[[{"header":{"parameterUnit":"m.s-1","parameterCategory":1,"la1":30.6,"la2":28.766,"lo1":-90.7593,"lo2":-88.6598,"dy":0.0162,"dx":0.0183,"nx":116,"ny":114,"refTime":"2023-09-21T18:00:00:Z","depth":0,"parameterNumber":2,"parameterNumberName":"U-component_of_WINDS"},"data":[0.0,0.0,0.0,0.0,0.0,0.0,0.0,0.0,0.0,0.0,0.0,0.0,0.0,0.0,0.0,0.0,0.0,0.0,0.0,0.0,0.0,0.0,0.0,0.0,0.0,0.0,0.0,0.0,0.0,0.0,0.0,0.0,0.0,0.0,0.0,0.0,0.0,0.0,0.0,0.0,0.0,0.0,0.0,0.0,0.0,0.0,0.0,0.0,0.0,0.0,0.0,0.0,0.0,0.0,0.0,0.0,0.0,0.0,0.0,0.0,0.0,0.0,0.0,0.0,0.0,0.0,0.0,0.0,0.0,0.0,0.0,0.0,0.0,0.0,0.0,0.0,0.0,0.0,0.0,0.0,0.0,0.0,0.0,0.0,0.0,0.0,0.0,0.0,0.0,0.0,0.0,0.0,0.0,0.0,0.0,0.0,0.0,0.0,0.0,0.0,0.0,0.0,0.0,0.0,0.0,0.0,0.0,0.0,0.0,0.0,0.0,0.0,0.0,0.0,0.0,0.0,0.0,0.0,0.0,0.0,0.0,0.0,0.0,0.0,0.0,0.0,0.0,0.0,0.0,0.0,0.0,0.0,0.0,0.0,0.0,0.0,0.0,0.0,0.0,0.0,0.0,0.0,0.0,0.0,0.0,0.0,0.0,0.0,0.0,0.0,0.0,0.0,0.0,0.0,0.0,0.0,0.0,0.0,0.0,0.0,0.0,0.0,0.0,0.0,0.0,0.0,0.0,0.0,0.0,0.0,0.0,0.0,0.0,0.0,0.0,0.0,0.0,0.0,0.0,0.0,0.0,0.0,0.0,0.0,0.0,0.0,0.0,0.0,0.0,0.0,0.0,0.0,0.0,0.0,0.0,0.0,0.0,0.0,0.0,0.0,0.0,0.0,0.0,0.0,0.0,0.0,0.0,0.0,0.0,0.0,0.0,0.0,0.0,0.0,0.0,0.0,0.0,0.0,0.0,0.0,0.0,0.0,0.0,0.0,0.0,0.0,0.0,0.0,0.0,0.0,0.0,0.0,0.0,0.0,0.0,0.0,0.0,0.0,0.0,0.0,0.0,0.0,0.0,0.0,0.0,0.0,0.0,0.0,0.0,0.0,0.0,0.0,0.0,0.0,0.0,0.0,0.0,0.0,0.0,0.0,0.0,0.0,0.0,0.0,0.0,0.0,0.0,0.0,0.0,0.0,0.0,0.0,0.0,0.0,0.0,0.0,0.0,0.0,0.0,0.0,0.0,0.0,0.0,0.0,0.0,0.0,0.0,0.0,0.0,0.0,0.0,0.0,0.0,0.0,0.0,0.0,0.0,0.0,0.0,0.0,0.0,0.0,0.0,0.0,0.0,0.0,0.0,0.0,0.0,0.0,0.0,0.0,0.0,0.0,0.0,0.0,0.0,0.0,0.0,0.0,0.0,0.0,0.0,0.0,0.0,0.0,0.0,0.0,0.0,0.0,0.0,0.0,0.0,0.0,0.0,0.0,0.0,0.0,0.0,0.0,0.0,0.0,0.0,0.0,0.0,0.0,0.0,0.0,0.0,0.0,0.0,0.0,0.0,0.0,0.0,0.0,0.0,0.0,0.0,0.0,0.0,0.0,0.0,0.0,0.0,0.0,0.0,0.0,0.0,0.0,0.0,0.0,0.0,0.0,0.0,0.0,0.0,0.0,0.0,0.0,0.0,0.0,0.0,0.0,0.0,0.0,0.0,0.0,0.0,0.0,0.0,0.0,0.0,0.0,0.0,0.0,0.0,0.0,0.0,0.0,0.0,0.0,0.0,0.0,0.0,0.0,0.0,0.0,0.0,0.0,0.0,0.0,0.0,0.0,0.0,0.0,0.0,0.0,0.0,0.0,0.0,0.0,0.0,0.0,0.0,0.0,0.0,0.0,0.0,0.0,0.0,0.0,0.0,0.0,0.0,0.0,0.0,0.0,0.0,0.0,0.0,0.0,0.0,0.0,0.0,0.0,0.0,0.0,0.0,0.0,0.0,0.0,0.0,0.0,0.0,0.0,0.0,0.0,0.0,0.0,0.0,0.0,0.0,0.0,0.0,0.0,0.0,0.0,0.0,0.0,0.0,0.0,0.0,0.0,0.0,0.0,0.0,0.0,0.0,0.0,0.0,0.0,0.0,0.0,0.0,0.0,0.0,0.0,0.0,0.0,0.0,0.0,0.0,0.0,0.0,0.0,0.0,0.0,0.0,0.0,0.0,0.0,0.0,0.0,0.0,0.0,0.0,0.0,0.0,0.0,0.0,0.0,0.0,0.0,0.0,0.0,0.0,0.0,0.0,0.0,0.0,0.0,0.0,0.0,0.0,0.0,0.0,0.0,0.0,0.0,0.0,0.0,0.0,0.0,0.0,0.0,0.0,0.0,0.0,0.0,0.0,0.0,0.0,0.0,0.0,0.0,0.0,0.0,0.0,0.0,0.0,0.0,0.0,0.0,0.0,0.0,0.0,0.0,0.0,0.0,0.0,0.0,0.0,0.0,0.0,0.0,0.0,0.0,0.0,0.0,0.0,0.0,0.0,0.0,0.0,0.0,0.0,0.0,0.0,0.0,0.0,0.0,0.0,0.0,0.0,0.0,0.0,0.0,0.0,0.0,0.0,0.0,0.0,0.0,0.0,0.0,0.0,0.0,0.0,0.0,0.0,0.0,0.0,0.0,0.0,0.0,0.0,0.0,0.0,0.0,0.0,0.0,0.0,0.0,0.0,0.0,0.0,0.0,0.0,0.0,0.0,0.0,0.0,0.0,0.0,0.0,0.0,0.0,0.0,0.0,0.0,0.0,0.0,0.0,0.0,0.0,0.0,0.0,0.0,0.0,0.0,0.0,0.0,0.0,0.0,0.0,0.0,0.0,0.0,0.0,0.0,0.0,0.0,0.0,0.0,0.0,0.0,0.0,0.0,0.0,0.0,0.0,0.0,0.0,0.0,0.0,0.0,0.0,0.0,0.0,0.0,0.0,0.0,0.0,0.0,0.0,0.0,0.0,0.0,0.0,0.0,0.0,0.0,0.0,0.0,0.0,0.0,0.0,0.0,0.0,0.0,0.0,0.0,0.0,0.0,0.0,0.0,0.0,0.0,0.0,0.0,0.0,0.0,0.0,0.0,0.0,0.0,0.0,0.0,0.0,0.0,0.0,0.0,0.0,0.0,0.0,0.0,0.0,0.0,0.0,0.0,0.0,0.0,0.0,0.0,0.0,0.0,0.0,0.0,0.0,0.0,0.0,0.0,0.0,0.0,0.0,0.0,0.0,0.0,0.0,0.0,0.0,0.0,0.0,0.0,0.0,0.0,0.0,0.0,0.0,0.0,0.0,0.0,0.0,0.0,0.0,0.0,0.0,0.0,0.0,0.0,0.0,0.0,0.0,0.0,0.0,0.0,0.0,0.0,0.0,0.0,0.0,0.0,0.0,0.0,0.0,0.0,0.0,0.0,0.0,0.0,0.0,0.0,0.0,0.0,0.0,0.0,0.0,0.0,0.0,0.0,0.0,0.0,0.0,0.0,0.0,0.0,0.0,0.0,0.0,0.0,0.0,0.0,0.0,0.0,0.0,0.0,0.0,0.0,0.0,0.0,0.0,0.0,0.0,0.0,0.0,0.0,0.0,0.0,0.0,0.0,0.0,0.0,0.0,0.0,0.0,0.0,0.0,0.0,0.0,0.0,0.0,0.0,0.0,0.0,0.0,0.0,0.0,0.0,0.0,0.0,0.0,0.0,0.0,0.0,0.0,0.0,0.0,0.0,0.0,0.0,0.0,0.0,0.0,0.0,0.0,0.0,0.0,0.0,0.0,0.0,0.0,0.0,0.0,0.0,0.0,0.0,0.0,0.0,0.0,0.0,0.0,0.0,0.0,0.0,0.0,0.0,0.0,0.0,0.0,0.0,0.0,0.0,0.0,0.0,0.0,0.0,0.0,0.0,0.0,0.0,0.0,0.0,0.0,0.0,0.0,0.0,0.0,0.0,0.0,0.0,0.0,0.0,0.0,0.0,0.0,0.0,0.0,0.0,0.0,0.0,0.0,0.0,0.0,0.0,0.0,0.0,0.0,0.0,0.0,0.0,0.0,0.0,0.0,0.0,0.0,0.0,0.0,0.0,0.0,0.0,0.0,0.0,0.0,0.0,0.0,0.0,0.0,0.0,0.0,0.0,0.0,0.0,0.0,0.0,0.0,0.0,0.0,0.0,0.0,0.0,0.0,0.0,0.0,0.0,0.0,0.0,0.0,0.0,0.0,0.0,0.0,0.0,0.0,0.0,0.0,0.0,0.0,0.0,0.0,0.0,0.0,0.0,0.0,0.0,0.0,0.0,0.0,0.0,0.0,0.0,0.0,0.0,0.0,0.0,0.0,0.0,0.0,0.0,0.0,0.0,0.0,0.0,0.0,0.0,0.0,0.0,0.0,0.0,0.0,0.0,0.0,0.0,0.0,0.0,0.0,0.0,0.0,0.0,0.0,0.0,0.0,0.0,0.0,0.0,0.0,0.0,0.0,0.0,0.0,0.0,0.0,0.0,0.0,0.0,0.0,0.0,0.0,0.0,0.0,0.0,0.0,0.0,0.0,0.0,0.0,0.0,0.0,0.0,0.0,0.0,0.0,0.0,0.0,0.0,0.0,0.0,0.0,0.0,0.0,0.0,0.0,0.0,0.0,0.0,0.0,0.0,0.0,0.0,0.0,0.0,0.0,0.0,0.0,0.0,0.0,0.0,0.0,0.0,0.0,0.0,0.0,0.0,0.0,0.0,0.0,0.0,0.0,0.0,0.0,0.0,0.0,0.0,0.0,0.0,0.0,0.0,0.0,0.0,0.0,0.0,0.0,0.0,0.0,0.0,0.0,0.0,0.0,0.0,0.0,0.0,0.0,0.0,0.0,0.0,0.0,0.0,0.0,0.0,0.0,0.0,0.0,0.0,0.0,0.0,0.0,0.0,0.0,0.0,0.0,0.0,0.0,0.0,0.0,0.0,0.0,0.0,0.0,0.0,0.0,0.0,0.0,0.0,0.0,0.0,0.0,0.0,0.0,0.0,0.0,0.0,0.0,0.0,0.0,0.0,0.0,0.0,0.0,0.0,0.0,0.0,0.0,0.0,0.0,0.0,0.0,0.0,0.0,0.0,0.0,0.0,0.0,0.0,0.0,0.0,0.0,0.0,0.0,0.0,0.0,0.0,0.0,0.0,0.0,0.0,0.0,0.0,0.0,0.0,0.0,0.0,0.0,0.0,0.0,0.0,0.0,0.0,0.0,0.0,0.0,0.0,0.0,0.0,0.0,0.0,0.0,0.0,0.0,0.0,0.0,0.0,0.0,0.0,0.0,0.0,0.0,0.0,0.0,0.0,0.0,0.0,0.0,0.0,0.0,0.0,0.0,0.0,0.0,0.0,0.0,0.0,0.0,0.0,0.0,0.0,0.0,0.0,0.0,0.0,0.0,0.0,0.0,0.0,0.0,0.0,0.0,0.0,0.0,0.0,0.0,0.0,0.0,0.0,0.0,0.0,0.0,0.0,0.0,0.0,0.0,0.0,0.0,0.0,0.0,0.0,0.0,0.0,0.0,0.0,0.0,0.0,0.0,0.0,0.0,0.0,0.0,0.0,0.0,0.0,0.0,0.0,0.0,0.0,0.0,0.0,0.0,0.0,0.0,0.0,0.0,0.0,0.0,0.0,0.0,0.0,0.0,0.0,0.0,0.0,0.0,0.0,0.0,0.0,0.0,0.0,0.0,0.0,0.0,0.0,0.0,0.0,0.0,0.0,0.0,0.0,0.0,0.0,0.0,0.0,0.0,0.0,0.0,0.0,0.0,0.0,0.0,0.0,0.0,0.0,0.0,0.0,0.0,0.0,0.0,0.0,0.0,0.0,0.0,0.0,0.0,0.0,0.0,0.0,0.0,0.0,0.0,0.0,0.0,0.0,0.0,0.0,0.0,0.0,0.0,0.0,0.0,0.0,0.0,0.0,0.0,0.0,0.0,0.0,0.0,0.0,0.0,0.0,0.0,0.0,0.0,0.0,0.0,0.0,0.0,0.0,0.0,0.0,0.0,0.0,0.0,0.0,0.0,0.0,0.0,0.0,0.0,0.0,0.0,0.0,0.0,1.9712,2.0487,0.0,0.0,0.0,0.0,0.0,0.0,0.0,0.0,0.0,0.0,0.0,0.0,0.0,0.0,0.0,0.0,0.0,0.0,0.0,0.0,0.0,0.0,0.0,0.0,0.0,0.0,0.0,0.0,0.0,0.0,0.0,0.0,0.0,0.0,0.0,0.0,0.0,0.0,0.0,0.0,0.0,0.0,0.0,0.0,0.0,0.0,0.0,0.0,0.0,0.0,0.0,0.0,0.0,0.0,0.0,0.0,0.0,0.0,0.0,0.0,0.0,0.0,0.0,0.0,0.0,0.0,0.0,0.0,0.0,0.0,0.0,0.0,0.0,0.0,0.0,0.0,0.0,0.0,0.0,0.0,0.0,0.0,0.0,0.0,0.0,0.0,0.0,0.0,0.0,0.0,0.0,0.0,0.0,0.0,0.0,0.0,0.0,0.0,0.0,0.0,0.0,0.0,0.0,0.0,0.0,0.0,0.0,0.0,0.0,0.0,0.0,0.0,0.0,0.0,1.9386,1.953,0.0,0.0,0.0,0.0,0.0,0.0,0.0,0.0,0.0,0.0,0.0,0.0,0.0,0.0,0.0,0.0,0.0,0.0,0.0,0.0,0.0,0.0,0.0,0.0,1.9429,1.9752,1.9731,0.0,0.0,0.0,0.0,0.0,0.0,0.0,0.0,0.0,0.0,0.0,0.0,0.0,0.0,0.0,0.0,0.0,0.0,0.0,0.0,0.0,0.0,0.0,0.0,0.0,0.0,0.0,0.0,0.0,0.0,0.0,0.0,0.0,0.0,0.0,0.0,0.0,0.0,0.0,0.0,0.0,0.0,0.0,0.0,0.0,0.0,0.0,0.0,0.0,0.0,0.0,0.0,0.0,0.0,0.0,0.0,0.0,0.0,0.0,0.0,0.0,0.0,0.0,0.0,0.0,0.0,0.0,0.0,0.0,0.0,0.0,0.0,0.0,0.0,0.0,0.0,0.0,0.0,0.0,0.0,0.0,1.84,1.8623,1.8635,1.9359,1.9263,1.8519,1.8729,1.8339,1.7654,1.881,0.0,0.0,0.0,0.0,0.0,0.0,0.0,0.0,0.0,0.0,0.0,0.0,0.0,0.0,0.0,0.0,0.0,0.0,0.0,0.0,0.0,1.9289,1.9405,1.9701,1.9713,1.9781,0.0,0.0,0.0,0.0,0.0,0.0,0.0,0.0,0.0,0.0,0.0,0.0,2.4614,2.4368,2.4094,2.3816,2.3236,0.0,0.0,0.0,0.0,0.0,0.0,0.0,0.0,0.0,0.0,0.0,0.0,0.0,0.0,0.0,0.0,0.0,0.0,0.0,0.0,0.0,0.0,0.0,0.0,0.0,0.0,0.0,0.0,0.0,0.0,0.0,0.0,0.0,0.0,0.0,0.0,0.0,0.0,0.0,0.0,0.0,0.0,0.0,1.9112,1.9376,0.0,0.0,0.0,0.0,0.0,0.0,0.0,0.0,0.0,0.0,0.0,0.0,0.0,1.8321,1.887,1.851,1.809,1.7625,1.7909,1.7705,1.7203,1.8012,1.7709,1.6634,1.6784,0.0,1.8172,1.8394,0.0,0.0,0.0,0.0,0.0,0.0,0.0,0.0,0.0,0.0,0.0,0.0,0.0,0.0,0.0,0.0,0.0,0.0,0.0,0.0,0.0,1.9427,1.9536,1.9682,1.9669,1.972,1.9885,0.0,0.0,0.0,0.0,0.0,0.0,0.0,0.0,0.0,2.5133,2.5081,2.4985,2.4699,2.4387,2.4073,2.3884,2.3116,2.1995,2.1824,0.0,0.0,0.0,0.0,0.0,0.0,0.0,0.0,0.0,0.0,0.0,0.0,0.0,0.0,0.0,0.0,0.0,0.0,0.0,0.0,0.0,0.0,0.0,0.0,0.0,0.0,0.0,0.0,0.0,0.0,0.0,0.0,0.0,0.0,0.0,0.0,0.0,0.0,0.0,1.9263,1.8764,1.916,1.8856,1.8786,0.0,0.0,0.0,0.0,0.0,0.0,0.0,0.0,0.0,1.8322,1.7615,1.7299,1.7446,1.6634,1.6136,1.5948,1.5803,1.5563,1.5284,1.5688,1.5641,1.5119,1.5187,1.5583,1.6213,1.6704,1.7071,1.7368,0.0,0.0,0.0,0.0,1.789,1.7542,0.0,0.0,0.0,0.0,0.0,0.0,0.0,0.0,0.0,0.0,0.0,0.0,1.9431,1.9546,1.9617,1.9726,1.9713,1.9732,1.9836,1.9821,0.0,0.0,0.0,0.0,0.0,0.0,0.0,2.5698,2.5411,2.5275,2.5283,2.5031,2.4734,2.44,2.4303,2.3406,2.1939,2.1876,2.1287,0.0,0.0,0.0,0.0,0.0,0.0,0.0,0.0,0.0,0.0,0.0,0.0,0.0,0.0,0.0,0.0,0.0,0.0,0.0,0.0,0.0,0.0,0.0,0.0,0.0,0.0,0.0,0.0,0.0,0.0,0.0,0.0,0.0,0.0,0.0,0.0,0.0,0.0,1.8813,1.8367,1.8934,1.8367,1.8273,0.0,0.0,0.0,0.0,0.0,0.0,1.8328,1.7795,1.7467,1.7434,1.6588,1.6099,1.6073,1.4864,1.4291,1.441,1.4094,1.3846,1.3726,1.4034,1.4085,1.3906,1.3717,1.3717,1.3957,1.5041,1.5438,1.5486,1.6028,1.63,1.6357,1.6357,1.6187,1.5857,0.0,0.0,0.0,0.0,0.0,0.0,0.0,0.0,0.0,0.0,0.0,1.9431,1.9587,1.9601,1.9649,1.9788,1.9908,1.9982,1.9993,2.0048,2.0108,2.0193,0.0,0.0,0.0,0.0,0.0,2.5698,2.5685,2.5546,2.5309,2.5215,2.4998,2.4667,2.4353,2.3002,2.1012,2.142,2.0767,1.9419,0.0,0.0,0.0,0.0,0.0,0.0,0.0,0.0,0.0,0.0,0.0,0.0,0.0,0.0,0.0,0.0,0.0,0.0,0.0,0.0,0.0,0.0,0.0,0.0,0.0,0.0,0.0,0.0,0.0,0.0,0.0,0.0,0.0,0.0,0.0,0.0,0.0,0.0,0.0,1.8561,1.7867,0.0,0.0,0.0,0.0,1.9004,1.8555,1.8178,1.7961,1.7058,1.6733,1.7,1.5449,1.4864,1.5429,1.4213,1.3563,1.3571,1.3666,1.3416,1.2887,1.3666,1.3666,1.3,1.2419,1.2097,1.2219,1.3897,1.4855,1.5284,1.5342,1.5505,1.5678,1.5678,1.5109,1.4323,0.0,0.0,0.0,0.0,0.0,0.0,0.0,0.0,0.0,1.918,1.9346,1.9495,1.9582,1.9675,1.9713,1.9675,1.9719,1.977,1.9811,1.9828,1.9922,2.0123,0.0,0.0,0.0,0.0,2.5701,2.5705,2.5701,2.5644,2.5566,2.5936,2.5998,2.579,2.5974,2.4921,2.2962,2.201,2.1093,2.0258,2.0212,2.0174,0.0,0.0,0.0,0.0,0.0,0.0,0.0,0.0,0.0,0.0,0.0,0.0,0.0,0.0,0.0,0.0,0.0,0.0,0.0,0.0,0.0,0.0,0.0,0.0,0.0,0.0,0.0,0.0,0.0,0.0,0.0,0.0,0.0,0.0,0.0,0.0,0.0,1.8429,1.7299,0.0,1.8186,1.772,1.7401,1.7523,1.6789,1.6291,1.6177,1.5613,1.5274,1.5108,1.4569,1.4273,1.4213,1.3304,1.2887,1.2818,1.2581,1.2089,1.1351,1.2212,1.1958,1.0954,1.1135,1.1003,1.0752,1.1377,1.2051,1.2716,1.2716,1.3089,1.3666,1.3666,1.3433,1.3155,0.0,0.0,0.0,0.0,0.0,0.0,0.0,0.0,1.903,1.9237,1.9458,1.963,1.9662,1.9751,1.9763,1.9675,1.9719,1.9751,1.9839,1.987,1.9952,2.0134,2.1809,0.0,0.0,2.5488,2.567,2.5703,2.5703,2.5835,2.6107,2.6489,2.6754,2.6901,2.6045,2.4934,2.3574,2.113,2.0307,2.0559,1.9854,1.9609,1.9743,0.0,0.0,0.0,0.0,0.0,0.0,0.0,0.0,0.0,0.0,0.0,0.0,0.0,0.0,0.0,0.0,0.0,0.0,0.0,0.0,0.0,0.0,0.0,0.0,0.0,0.0,0.0,0.0,0.0,0.0,0.0,0.0,0.0,0.0,0.0,1.7081,1.7993,1.6655,1.6089,1.7192,1.661,1.6234,1.6415,1.5439,1.4874,1.4874,1.4341,1.3923,1.3692,1.3614,1.3425,1.3191,1.252,1.2081,1.1929,1.1636,1.1127,1.0379,1.0958,1.0763,0.9915,1.0295,1.023,0.9903,0.9687,1.0161,1.091,1.087,1.1281,1.1919,1.1919,1.205,1.2313,0.0,0.0,0.0,0.0,0.0,0.0,0.0,1.9063,1.9411,1.9228,1.9553,1.9788,1.98,1.98,1.98,1.98,1.9919,2.0026,2.0098,2.0155,2.0212,2.0246,0.0,0.0,2.4366,2.5201,2.5629,2.5703,2.5723,2.6133,2.691,2.6883,2.728,2.7904,2.4539,2.2948,2.2601,1.8907,1.8451,2.0106,1.8956,1.8793,1.931,0.0,0.0,0.0,0.0,0.0,0.0,0.0,0.0,0.0,0.0,0.0,0.0,0.0,0.0,0.0,0.0,0.0,0.0,0.0,0.0,0.0,0.0,0.0,0.0,0.0,0.0,0.0,0.0,0.0,0.0,0.0,0.0,0.0,1.8436,1.7335,1.6655,1.7236,1.585,1.5129,1.5861,1.5555,1.5468,1.5748,1.4737,1.4145,1.4145,1.3243,1.2826,1.2948,1.2451,1.2328,1.2466,1.1809,1.1284,1.0784,1.0857,1.0606,1.0101,1.0101,1.0101,0.9962,0.9748,0.9608,0.9522,0.9026,0.9332,1.0091,1.0001,1.0205,1.0521,1.0521,1.1031,1.1802,0.0,0.0,0.0,0.0,0.0,0.0,0.0,1.8825,1.9081,1.9368,1.9513,1.9682,1.9919,1.9949,1.9949,1.9949,1.9971,2.0023,2.0112,2.0112,2.0448,0.0,0.0,0.0,2.4231,2.5143,2.5609,2.5632,2.6305,2.6755,2.6983,2.8003,2.8637,2.892,2.8298,2.6476,2.3769,2.1807,1.9929,1.8344,1.8206,1.8423,1.8954,0.0,0.0,0.0,0.0,0.0,0.0,0.0,0.0,0.0,0.0,0.0,0.0,0.0,0.0,0.0,0.0,0.0,0.0,0.0,0.0,0.0,0.0,0.0,0.0,0.0,0.0,0.0,0.0,0.0,0.0,0.0,0.0,1.6022,1.6991,1.5515,1.4601,1.5342,1.4314,1.3614,1.3921,1.3708,1.3416,1.3097,1.2931,1.281,1.281,1.2296,1.2058,1.2104,1.1183,1.0785,1.1101,1.0457,1.0201,1.0268,1.0337,0.9961,0.9405,0.9892,0.9329,0.7995,0.8418,0.8061,0.7141,0.7024,0.7144,0.7669,0.9231,1.0281,1.085,1.085,1.0982,1.124,0.0,0.0,0.0,0.0,0.0,0.0,0.0,1.9095,1.931,1.96,1.9695,1.9839,2.0058,2.0048,2.0048,2.0078,2.0067,2.0077,2.0184,2.0205,2.0655,0.0,0.0,2.3351,2.4222,2.5123,2.5795,2.6191,2.6736,2.7363,2.8066,2.8835,2.9418,2.98,2.87,2.6236,2.2811,2.098,1.8436,1.567,1.6524,1.7202,1.7825,1.8434,1.8898,1.922,1.9612,1.9687,1.9676,2.026,0.0,0.0,0.0,0.0,0.0,0.0,0.0,0.0,0.0,0.0,0.0,0.0,0.0,0.0,0.0,0.0,0.0,0.0,0.0,0.0,0.0,0.0,0.0,0.0,1.5284,1.466,1.4934,1.3948,1.3373,1.3837,1.2887,1.222,1.2488,1.2373,1.2205,1.2143,1.1703,1.1516,1.1516,1.0808,1.0368,1.0521,0.9912,0.9729,1.0043,0.9823,0.9662,0.9695,0.9477,0.9103,0.8549,0.8689,0.8107,0.709,0.7668,0.7444,0.6784,0.6783,0.6901,0.7157,0.0,0.0,0.0,0.0,1.0737,1.0737,0.0,0.0,0.0,0.0,0.0,0.0,0.0,1.958,1.979,1.9798,1.9952,2.0108,2.0188,2.0144,2.0145,2.0188,2.0155,2.0173,2.03,2.0379,0.0,2.1664,2.2476,2.3339,2.4273,2.5149,2.6057,2.6973,2.709,2.7949,2.9492,2.9484,2.986,3.0482,2.7558,2.4309,2.0857,1.8644,1.582,1.2928,1.4494,1.5622,1.6419,1.6839,1.6985,1.7046,1.7675,1.7866,1.8012,1.876,0.0,0.0,0.0,0.0,0.0,0.0,0.0,0.0,0.0,0.0,0.0,0.0,0.0,0.0,0.0,0.0,0.0,0.0,0.0,0.0,0.0,0.0,0.0,0.0,1.4067,1.313,1.2704,1.252,1.252,1.2581,1.1663,1.1038,1.1197,1.126,1.1384,1.1695,1.0703,1.0078,1.0199,0.0,0.0,0.0,0.0,0.8716,0.9007,0.9247,0.9204,0.8846,0.8475,0.8128,0.7706,0.7169,0.6865,0.6788,0.7161,0.731,0.7222,0.736,0.743,0.7522,0.7433,0.7691,0.827,0.9491,0.9977,0.9977,0.0,0.0,0.0,0.0,0.0,0.0,0.0,1.9612,1.9682,1.9787,1.982,1.9943,2.018,2.018,2.0199,2.0188,2.018,2.0246,2.0379,2.0488,2.0923,2.1739,2.2546,2.3368,2.4196,2.5121,2.6009,2.6835,2.7656,2.8555,2.9512,3.0193,3.0546,3.0579,2.9928,2.6437,2.1011,2.0998,1.7801,1.2893,1.3705,1.4884,1.6284,1.6812,1.7182,1.7453,1.7205,1.7101,1.7194,1.765,1.7784,1.7799,1.8104,0.0,0.0,0.0,0.0,0.0,0.0,0.0,0.0,0.0,0.0,0.0,0.0,0.0,0.0,0.0,0.0,0.0,0.0,0.0,0.0,1.4269,1.2777,1.1779,1.1802,1.0968,1.0591,1.1288,1.1108,1.0654,0.9742,0.9615,0.9296,0.8404,0.8409,0.8474,0.8474,0.7967,0.7702,0.7673,0.6621,0.6448,0.7144,0.6691,0.6794,0.7343,0.7271,0.0,0.7092,0.6942,0.6633,0.6093,0.6167,0.5938,0.5476,0.5526,0.5901,0.65,0.7155,0.7487,0.7599,0.7856,0.7972,0.7972,0.0,0.0,0.0,0.0,0.0,0.0,0.0,1.9797,1.9869,1.9934,1.9943,2.0012,2.0186,2.018,2.0153,2.0188,2.0254,2.0334,2.0398,2.0527,2.1159,2.2401,2.2829,2.363,2.4865,2.5354,2.6218,2.7496,2.8006,2.8892,3.0156,3.0558,3.0706,3.0606,3.0528,2.7848,2.3273,2.1985,1.8765,1.4503,1.391,1.4005,1.4566,1.5086,1.5516,1.58,1.548,1.5404,1.5528,1.6157,1.6366,1.6373,1.6744,1.6714,1.6471,0.0,0.0,0.0,0.0,0.0,0.0,0.0,0.0,0.0,0.0,0.0,0.0,0.0,0.0,1.5713,0.0,0.0,1.3793,1.2639,1.1888,1.1094,1.0199,0.9755,0.9633,1.0078,0.9894,0.9244,0.7936,0.7807,0.7414,0.6567,0.6441,0.6445,0.6572,0.6125,0.5866,0.5851,0.5484,0.5501,0.5929,0.6019,0.6249,0.6714,0.6479,0.6402,0.6402,0.6096,0.555,0.4846,0.4846,0.4457,0.3759,0.4226,0.458,0.5039,0.5874,0.6752,0.7391,0.7325,0.7316,0.7386,0.0,0.0,0.0,0.0,0.0,0.0,0.0,0.0,2.0125,2.0114,2.0125,2.0143,2.0215,2.0169,2.0162,2.0203,2.0332,2.0404,0.0,2.0522,2.1346,2.3031,2.3101,2.3889,2.5541,2.5596,2.6364,2.7901,2.8097,2.9007,3.0525,3.0661,3.0678,3.06,3.0492,2.868,2.5507,2.2453,1.9275,1.6122,1.425,1.3132,1.2767,1.3173,1.3676,1.4144,1.3962,1.4035,1.4305,1.4949,1.5096,1.5051,1.5355,1.5322,1.5142,1.5062,1.5337,0.0,0.0,0.0,0.0,0.0,0.0,0.0,0.0,0.0,1.5676,1.5042,1.4839,1.448,1.3536,1.3245,1.2639,1.101,1.0843,1.0332,0.8656,0.8458,0.8458,0.8388,0.821,0.7562,0.6113,0.5982,0.5712,0.5104,0.4659,0.4466,0.4593,0.4207,0.3949,0.3751,0.4193,0.444,0.4536,0.5117,0.5548,0.5739,0.5378,0.5234,0.5234,0.4932,0.4307,0.3519,0.3519,0.3127,0.2582,0.3283,0.3519,0.3667,0.449,0.5557,0.6692,0.6781,0.6889,0.6929,0.0,0.0,0.0,0.0,0.0,0.0,0.0,0.0,0.0,2.02,2.0192,2.0215,2.0287,2.028,2.0287,2.0288,2.0366,2.0438,2.0477,2.056,2.1348,2.3027,2.3103,2.3862,2.5482,2.5575,2.6022,2.687,2.7767,2.8679,2.9574,3.0409,3.0723,3.0598,3.0565,2.8758,2.5526,2.2918,1.9656,1.6077,1.3623,1.2502,1.2364,1.2341,1.3176,1.4252,1.4297,1.4547,1.4766,1.4708,1.464,1.4606,1.4892,1.4422,1.3852,1.3993,0.0,1.5241,1.5224,1.5624,1.5936,1.536,1.537,1.5071,0.0,0.0,1.3673,1.2504,1.1873,1.1487,1.1377,1.0822,1.0325,0.9958,0.9052,0.8275,0.8275,0.6967,0.592,0.5595,0.6183,0.6113,0.4668,0.4538,0.4138,0.3074,0.3076,0.3009,0.2741,0.2804,0.2606,0.1942,0.1997,0.1958,0.1753,0.1989,0.234,0.2723,0.2786,0.2893,0.2893,0.3597,0.3441,0.2659,0.2659,0.2581,0.2503,0.2581,0.2659,0.2731,0.3507,0.3932,0.4252,0.519,0.5467,0.5352,0.0,0.0,0.0,0.0,0.0,0.0,0.0,0.0,0.0,0.0,2.0192,2.0211,2.0242,2.0211,2.0211,2.0246,2.0307,0.0,2.0435,2.0506,2.1074,2.2285,2.2383,2.3162,2.4825,2.4851,2.5464,2.6757,2.7213,2.7872,2.8714,2.9096,2.924,2.9178,2.9619,2.9035,2.7398,2.2964,2.018,1.8338,1.3809,1.1721,1.1368,1.2158,1.275,1.3148,1.3449,1.3705,0.0,0.0,1.3836,1.3768,1.3873,1.3437,1.2899,1.2986,1.3511,0.0,1.4105,1.4731,0.0,0.0,1.376,1.3511,1.2274,1.2328,1.2258,1.1156,1.0654,1.0388,1.0186,0.9812,0.9378,0.0,0.828,0.7692,0.6523,0.5796,0.4938,0.3813,0.3471,0.3066,0.2473,0.2406,0.1872,0.0603,0.067,0.0737,0.0804,0.1005,0.1072,0.094,0.1222,0.1308,0.1327,0.1715,0.1979,0.2186,0.2439,0.2469,0.2503,0.2893,0.2581,0.1801,0.1254,0.1019,0.1097,0.1566,0.188,0.2031,0.2667,0.2974,0.3192,0.4515,0.4944,0.496,0.0,0.0,0.0,0.0,0.0,0.0,0.0,0.0,0.0,0.0,0.0,2.0227,2.0235,2.0178,2.015,2.0212,0.0,0.0,0.0,2.0462,2.0889,2.1755,2.1854,2.2554,2.4011,2.3989,2.4544,2.5743,2.6269,2.6864,2.7498,2.7968,2.8143,2.8126,2.8665,2.8865,2.8386,2.2601,2.0131,1.963,1.3716,1.0989,1.0587,1.1724,1.2078,1.2075,1.2753,1.3132,0.0,0.0,1.317,1.2929,1.3016,1.257,1.1981,1.208,1.254,1.3168,1.3462,0.0,0.0,1.2696,1.2343,1.2158,1.1615,1.156,1.1365,1.0401,1.0085,0.9824,0.9175,0.8988,0.8608,0.7517,0.7437,0.6846,0.508,0.4613,0.3877,0.228,0.1341,0.0603,0.0067,0.0134,-0.0201,-0.1342,-0.1476,-0.1409,-0.1208,-0.1074,-0.0805,-0.0537,-0.0268,-0.0068,0.0069,0.0556,0.0928,0.1118,0.1202,0.1298,0.1408,0.1251,0.0938,0.0548,-0.0313,-0.0549,-0.0314,0.0313,0.0781,0.124,0.1976,0.2221,0.2372,0.3732,0.4327,0.4492,0.0,0.0,0.0,0.0,0.0,0.0,0.0,0.0,0.0,0.0,0.0,0.0,0.0,0.0,2.0212,2.0302,0.0,0.0,0.0,2.0467,2.0891,2.1767,2.1791,2.2227,2.3114,2.314,2.3127,2.3118,2.4805,2.5658,2.5703,2.734,2.8104,2.8106,2.7981,2.7933,2.7554,2.1714,1.9252,1.8734,1.2956,1.0397,1.0166,1.074,1.1011,1.1335,1.2706,0.0,0.0,0.0,1.288,1.2304,1.2521,1.1841,0.0,1.1276,1.1904,1.2664,1.3169,0.0,1.2642,1.1608,1.1247,1.1059,1.0751,1.087,1.0926,1.0148,1.0015,0.9633,0.828,0.8037,0.7657,0.6613,0.6017,0.5279,0.4215,0.3284,0.2213,0.0737,0.0268,-0.0738,0.0,-0.2207,-0.1939,-0.2342,-0.2808,-0.3209,-0.3418,-0.342,-0.3284,-0.3082,-0.3082,-0.3084,-0.3086,-0.2691,-0.2198,-0.1456,-0.1941,-0.1837,-0.1175,-0.1956,-0.1953,-0.1247,-0.211,-0.1957,-0.1254,-0.1254,-0.0696,0.0152,0.1134,0.1466,0.1472,0.2521,0.3231,0.3687,0.0,0.0,0.0,0.0,0.0,0.0,0.0,0.0,0.0,0.0,0.0,0.0,0.0,0.0,0.0,0.0,0.0,0.0,0.0,2.0419,2.0574,2.0914,2.0951,2.1351,2.2211,2.2191,2.2443,2.2998,2.3581,2.3903,2.3941,2.4511,2.4761,2.4749,2.5228,2.5425,2.5043,1.991,1.8534,1.9179,1.2178,1.0239,1.1378,1.0002,1.0103,1.1141,0.0,0.0,0.0,1.2813,1.2264,1.1619,1.171,1.1217,1.0756,1.128,1.1644,1.1882,1.211,0.0,1.1608,1.08,1.0491,1.0364,1.0238,1.0047,0.9716,0.8941,0.8935,0.8742,0.7962,0.7377,0.6985,0.6662,0.5679,0.4619,0.3616,0.2476,0.1472,0.0603,-0.1072,0.0,0.0,0.0,0.0,-0.3944,-0.4082,-0.4018,-0.3816,-0.3754,-0.3553,-0.3215,-0.3215,-0.3151,-0.3088,-0.2847,-0.2578,-0.2257,-0.2352,-0.233,-0.2113,-0.2348,-0.2345,-0.211,-0.2347,-0.2347,-0.2111,-0.2002,-0.1446,-0.0603,-0.0291,0.0142,0.0769,0.151,0.1896,0.2283,0.0,0.0,0.0,0.0,0.0,0.0,0.0,0.0,0.0,0.0,0.0,0.0,0.0,0.0,0.0,0.0,0.0,2.0437,0.0,0.0,2.0448,2.0497,2.0507,2.0759,2.1323,2.1287,2.1559,2.2107,2.238,2.2576,2.2633,2.2917,2.3018,2.3023,2.3545,2.3724,2.3404,1.941,1.8023,1.8025,1.2145,1.028,1.0859,0.93,0.9461,0.0,0.0,0.0,1.1981,1.2374,1.1977,1.1326,1.1326,1.0922,1.0581,1.0974,1.1224,1.1329,1.1117,1.0961,1.0724,1.0238,0.9722,0.9332,0.9524,0.9198,0.8619,0.7907,0.8296,0.8425,0.7381,0.7042,0.6706,0.6129,0.508,0.382,0.241,0.1606,0.0602,-0.0736,-0.2277,-0.3675,0.0,0.0,0.0,-0.5727,-0.5932,-0.58,-0.5463,-0.5335,-0.5137,-0.474,-0.4671,-0.4674,-0.4544,-0.4453,-0.4186,-0.3829,-0.3222,-0.3129,-0.3365,-0.3365,-0.3365,-0.3365,-0.3365,-0.3193,-0.2855,-0.2813,-0.2167,-0.1319,-0.1064,-0.0627,0.0,0.0745,0.1144,0.1546,0.0,0.0,0.0,0.0,0.0,0.0,0.0,0.0,0.0,0.0,0.0,0.0,0.0,0.0,0.0,0.0,0.0,0.0,0.0,0.0,0.0,2.0508,2.0496,2.0507,2.0501,2.0496,2.0501,2.0501,2.1261,2.1666,2.1753,2.2454,2.2812,2.2863,2.2874,2.2823,2.2597,2.0022,1.7758,1.5688,1.2894,1.0665,0.8974,0.8743,0.0,0.0,0.0,0.0,0.0,0.0,1.1927,1.1217,1.1217,1.082,1.043,1.0355,1.0672,1.0932,1.022,0.9936,0.9875,0.9728,0.8818,0.8091,0.8544,0.8285,0.7767,0.7055,0.8096,0.8554,0.0,0.0,0.6759,0.5074,0.4154,0.2948,0.0804,0.0536,-0.0468,0.0,0.0,0.0,0.0,0.0,0.0,-0.7812,0.0,-0.8355,-0.8027,-0.7962,-0.7837,-0.7386,-0.7386,-0.7386,-0.7386,-0.7328,-0.6851,-0.6091,-0.4632,-0.4304,-0.5018,-0.5018,-0.5018,-0.5018,-0.501,-0.4479,-0.3626,-0.3616,-0.3072,-0.2097,-0.1188,-0.0826,-0.074,0.0135,0.0808,0.1345,0.0,0.0,0.0,0.0,0.0,0.0,0.0,0.0,0.0,0.0,0.0,0.0,0.0,0.0,0.0,0.0,0.0,0.0,0.0,0.0,0.0,0.0,0.0,0.0,0.0,0.0,0.0,2.0501,2.0656,2.0778,2.0842,2.1017,2.1113,2.1147,2.1141,2.1096,2.0895,1.8672,1.8274,1.866,0.0,1.1895,1.2664,0.0,0.0,0.0,0.0,0.0,0.0,0.0,0.0,0.0,0.0,0.9629,0.952,0.9428,0.9336,0.9212,0.8953,0.8617,0.828,0.8226,0.7902,0.7577,0.7707,0.7386,0.6999,0.6802,0.719,0.7381,0.0,0.0,0.0,0.5262,0.3272,0.0,0.0268,-0.1199,0.0,-0.4259,0.0,-0.6907,-0.8259,-0.8661,0.0,0.0,-0.8877,-0.8161,-0.8027,-0.7832,-0.7642,-0.7386,-0.7386,-0.7381,-0.7246,-0.6781,-0.6478,-0.6311,-0.5405,-0.4932,-0.5018,-0.5018,-0.5018,-0.5012,-0.492,-0.4712,-0.4517,-0.4347,-0.382,-0.2999,-0.2118,-0.1486,-0.0941,0.0,0.0404,0.0606,0.0,0.0,0.0,0.0,0.0,0.0,0.0,0.0,0.0,0.0,0.0,0.0,0.0,0.0,0.0,0.0,0.0,0.0,0.0,0.0,0.0,0.0,0.0,0.0,0.0,0.0,0.0,0.0,0.0,0.0,2.0501,2.0471,2.048,2.0508,2.0503,2.0488,2.0373,1.9176,0.0,0.0,0.0,0.0,0.0,0.0,0.0,0.0,0.0,0.0,0.0,0.0,0.0,0.9865,0.9361,0.8995,0.8751,0.8627,0.0,0.8077,0.7907,0.75,0.7186,0.7512,0.706,0.6605,0.6929,0.6535,0.6148,0.6148,0.647,0.0,0.6666,0.5789,0.0,0.0,0.0,0.0,-0.1003,-0.2465,-0.4051,0.0,-0.7093,0.0,-0.9673,-1.0123,-1.0696,0.0,-1.0085,-0.9198,-0.9,-0.8871,-0.8748,-0.8495,-0.8592,-0.861,-0.8607,-0.7943,-0.7432,-0.7163,-0.6273,-0.5547,-0.5093,-0.5015,-0.5018,-0.501,-0.4887,-0.4803,-0.4738,-0.4548,-0.4232,-0.3703,-0.29,-0.2147,-0.1411,-0.0605,-0.0135,0.0203,0.0,0.0,0.0,0.0,0.0,0.0,0.0,0.0,0.0,0.0,0.0,0.0,0.0,0.0,0.0,0.0,0.0,0.0,0.0,0.0,0.0,0.0,0.0,0.0,0.0,0.0,0.0,0.0,0.0,0.0,0.0,0.0,0.0,0.0,0.0,0.0,0.0,0.0,0.0,0.0,0.0,0.0,0.0,0.0,0.0,0.0,0.0,0.0,0.0,0.0,0.9141,0.9406,0.9047,0.856,0.8074,0.7711,0.748,0.722,0.6934,0.6544,0.64,0.6994,0.6276,0.5557,0.6141,0.5815,0.5428,0.5428,0.0,0.64,0.602,0.5404,0.4599,0.3673,0.0,-0.0468,-0.2603,-0.3666,-0.5117,-0.7687,-0.8447,-0.9458,-1.1066,-1.1531,-1.1988,-1.2629,-1.1578,-1.0719,-1.0487,-1.0456,-1.029,-0.9974,-1.0139,-1.0361,-1.0503,-0.9623,-0.8926,-0.8309,-0.7157,-0.616,-0.5473,-0.5168,-0.5015,-0.501,-0.4871,-0.4751,-0.4715,-0.4504,-0.439,-0.4233,-0.3487,-0.2815,-0.2147,-0.1411,-0.0674,-0.0136,0.0,0.0,0.0,0.0,0.0,0.0,0.0,0.0,0.0,0.0,1.5507,1.5904,0.0,0.0,0.0,0.0,0.0,0.0,0.0,0.0,0.0,0.0,0.0,0.0,0.0,2.0413,2.0405,2.0398,2.0386,0.0,0.0,0.0,0.0,0.0,0.0,0.0,0.0,0.0,0.0,0.0,0.0,0.0,0.0,0.0,0.0,0.0,0.0,0.0,0.0,0.0,0.8843,0.862,0.7723,0.7402,0.7155,0.6361,0.6134,0.6055,0.5762,0.5602,0.5624,0.569,0.5557,0.5428,0.5557,0.5491,0.0,0.0,0.562,0.5752,0.6083,0.5017,0.368,0.2534,0.0601,-0.1605,-0.3737,-0.5522,-0.7349,0.0,-1.0299,-1.1487,-1.3184,-1.3,0.0,0.0,-1.2814,-1.202,-1.1509,-1.1209,-1.0944,-1.074,-1.0579,-1.0621,-1.0863,-0.9913,-0.9443,-0.9291,-0.777,-0.6777,-0.6237,-0.555,-0.5168,-0.5004,-0.4781,-0.4745,-0.4706,-0.442,-0.4319,-0.4233,-0.3487,-0.3149,-0.2882,-0.1544,-0.1023,-0.0836,0.0,0.0,0.0,0.0,0.0,0.0,0.0,1.5243,1.5245,1.5245,1.527,1.5466,1.5922,1.6748,0.0,0.0,0.0,0.0,0.0,0.0,0.0,0.0,0.0,0.0,0.0,2.0371,2.0353,2.0246,0.0,2.036,2.0347,2.0413,2.0476,2.0503,2.0463,2.0455,2.0457,0.0,0.0,1.8517,1.7671,1.5312,0.0,0.0,0.0,0.0,0.0,0.0,0.0,0.0,0.7847,0.7498,0.7187,0.6647,0.6124,0.5876,0.5566,0.5341,0.5411,0.5428,0.5428,0.5428,0.5428,0.5428,0.5428,0.0,0.0,0.0,0.5289,0.5223,0.6079,0.4686,0.0,0.2131,-0.0067,-0.2403,-0.4668,-0.6576,0.0,-1.0292,-1.1542,-1.283,0.0,-1.4547,-1.4728,-1.5019,-1.3983,-1.3014,-1.2225,-1.1553,-1.1227,-1.1237,-1.1096,-1.1016,-1.1217,-1.0692,-1.0239,-0.9755,-0.8841,-0.7918,-0.685,-0.6237,-0.5625,-0.5154,-0.4831,-0.4726,-0.4706,-0.4398,-0.43,-0.4233,-0.3892,-0.3553,-0.3088,-0.1978,-0.1384,-0.0985,0.0,0.0,0.0,0.0,0.0,0.0,0.0,1.5189,1.5183,1.5183,1.5177,1.5195,1.5255,1.6056,1.685,0.0,0.0,0.0,0.0,0.0,0.0,0.0,0.0,0.0,0.0,0.0,0.0,2.0096,2.0203,0.0,0.0,0.0,0.0,0.0,2.0416,2.0395,2.0389,2.04,1.9399,0.0,0.0,1.5347,0.0,0.0,0.0,0.0,0.0,0.0,0.0,0.0,0.6935,0.6642,0.6756,0.61,0.5341,0.56,0.528,0.4928,0.5196,0.5287,0.5311,0.5311,0.5338,0.5428,0.5425,0.5359,0.0,0.0,0.4954,0.4688,0.5477,0.0,0.2613,0.0,-0.0532,-0.2863,-0.5588,-0.7228,-0.8965,0.0,-1.2517,0.0,-1.5196,-1.5809,0.0,-1.6294,-1.5129,-1.3808,-1.2579,-1.1818,-1.1512,-1.1735,-1.1526,-1.1484,-1.1477,-1.1409,-1.0962,-1.0143,-0.983,-0.8993,-0.7698,-0.7003,-0.6314,-0.5613,-0.5052,-0.4798,-0.4706,-0.4398,-0.43,-0.43,-0.43,-0.3961,-0.3297,-0.2421,-0.1756,-0.1209,0.0,0.0,0.0,0.0,0.0,0.0,0.0,1.5152,1.512,1.512,1.5107,1.5101,1.5127,1.5948,1.654,0.0,0.0,0.0,0.0,0.0,0.0,0.0,0.0,0.0,0.0,0.0,0.0,2.0108,2.0117,0.0,0.0,0.0,0.0,0.0,0.0,2.0334,2.0391,2.0395,0.0,0.0,0.0,0.0,0.0,0.0,0.0,0.0,0.0,0.0,0.0,0.0,0.0,0.6534,0.6046,0.5609,0.5262,0.5174,0.0,0.0,0.4914,0.5053,0.5152,0.5152,0.5257,0.5425,0.555,0.0,0.4758,0.5087,0.4489,0.3823,0.3744,0.3351,0.2143,-0.0399,0.0,-0.2599,-0.6633,-0.7613,-0.907,-1.215,0.0,0.0,-1.6446,-1.6588,-1.6766,-1.7307,-1.6282,-1.4688,-1.2437,-1.2225,-1.2231,-1.2265,-1.2037,-1.1829,-1.1706,-1.1484,-1.126,-1.0962,-1.0212,-0.9685,-0.9291,-0.7846,-0.7011,-0.6689,-0.5497,-0.4948,-0.4928,-0.4466,-0.43,-0.43,-0.43,-0.4233,-0.4043,-0.263,-0.2059,-0.182,0.0,0.0,0.0,0.0,0.0,0.0,1.4957,1.5033,1.5061,1.498,1.5059,1.5099,1.5101,1.5434,1.5869,1.6458,0.0,0.0,0.0,0.0,0.0,0.0,0.0,0.0,0.0,0.0,2.0039,1.9919,2.0039,0.0,0.0,0.0,0.0,0.0,0.0,2.018,2.0111,0.0,0.0,0.0,0.0,0.0,0.0,0.0,0.0,0.0,0.0,0.0,0.0,0.0,0.0,0.0,0.5782,0.534,0.0,0.0,0.4919,0.4955,0.4937,0.5023,0.5001,0.4617,0.459,0.4755,0.4957,0.0,0.4156,0.4954,0.3885,0.3017,0.3816,0.3082,0.1674,-0.0266,-0.1395,0.0,-0.6519,0.0,-0.992,-1.2035,-1.3656,0.0,0.0,0.0,-1.7066,-1.6541,-1.6069,-1.518,-1.3745,-1.3237,-1.3025,-1.3025,-1.2445,-1.2077,-1.1855,-1.1706,-1.1484,-1.126,-1.0812,-1.0363,-0.976,-0.8456,-0.7621,-0.6996,-0.5712,-0.5087,-0.5,-0.46,-0.4431,-0.43,-0.43,-0.43,-0.4121,-0.2678,-0.2091,-0.1902,0.0,0.0,0.0,0.0,0.0,1.4785,1.4794,1.4942,1.503,1.4904,1.503,1.5092,1.5092,1.5092,1.5457,1.6394,1.7279,0.0,0.0,0.0,0.0,0.0,0.0,0.0,0.0,0.0,1.9952,1.9807,1.9952,2.0029,0.0,0.0,2.0097,2.0246,0.0,0.0,0.0,0.0,0.0,0.0,0.0,0.0,0.0,0.0,0.0,0.0,0.0,0.0,0.0,0.0,0.0,0.0,0.0,0.0,0.0,0.0,0.4737,0.4819,0.4814,0.4799,0.4621,0.4179,0.417,0.4289,0.0,0.0,0.3754,0.442,0.3082,0.2079,0.2743,0.2008,0.0669,-0.1133,-0.2258,-0.3843,-0.6519,-0.8538,-1.0255,0.0,0.0,-1.5274,0.0,-1.7249,-1.7258,-1.6192,-1.5903,-1.5542,-1.4966,-1.4034,-1.3535,-1.3535,-1.2739,-1.2224,-1.2003,-1.1855,-1.1706,-1.1484,-1.126,-1.0887,-1.0293,-0.9296,-0.8385,-0.7604,-0.6218,-0.5444,-0.5144,-0.4804,-0.4564,-0.4434,-0.4434,-0.4298,-0.3989,-0.2711,-0.2109,-0.1687,0.0,0.0,0.0,0.0,0.0,0.0,1.4803,1.4909,1.4976,1.4904,1.503,1.5092,1.5092,1.5092,1.5455,1.6315,1.7202,0.0,0.0,0.0,0.0,0.0,0.0,0.0,0.0,0.0,1.9807,1.9807,1.9807,1.983,1.9907,1.9828,1.9918,2.0087,0.0,0.0,0.0,0.0,0.0,0.0,0.0,0.0,0.0,0.0,0.0,0.0,0.0,0.0,0.0,0.0,0.0,0.0,0.0,0.0,0.0,0.0,0.447,0.4307,0.4639,0.4278,0.3872,0.405,0.4171,0.422,0.0,0.3825,0.3689,0.3284,0.2214,0.0941,-0.0201,-0.0335,-0.1072,-0.3556,-0.3811,0.0,-0.7033,-0.8339,0.0,0.0,0.0,-1.469,-1.5861,-1.7038,-1.746,-1.6904,-1.6193,0.0,-1.5762,-1.4322,-1.3535,-1.3535,-1.2739,-1.2224,-1.2003,-1.2003,-1.1929,-1.1706,-1.1484,-1.1409,-1.1335,-1.0368,-0.9463,-0.8604,-0.7317,-0.6305,-0.5428,-0.5009,-0.4831,-0.4764,-0.4764,-0.4361,-0.3715,-0.2992,-0.2109,-0.1175,0.0,0.0,0.0,0.0,0.0,0.0,0.0,1.4813,1.4832,1.4776,1.4883,1.4984,1.5023,1.5078,1.5407,1.621,1.7137,0.0,0.0,0.0,0.0,0.0,0.0,0.0,0.0,0.0,1.9745,1.9807,1.9712,1.9738,1.9888,1.9638,1.965,1.9885,1.9707,1.9585,0.0,0.0,0.0,0.0,0.0,0.0,0.0,0.0,0.0,0.0,0.0,0.0,0.0,0.0,0.0,0.0,0.0,0.0,0.0,0.4415,0.0,0.0,0.4688,0.4742,0.4665,0.423,0.4046,0.3956,0.3825,0.3155,0.2552,0.2618,0.1273,-0.0067,-0.0402,-0.087,-0.1804,-0.3675,-0.4058,0.0,0.0,0.0,0.0,-1.1804,-1.4436,-1.6308,0.0,0.0,-1.7671,-1.7179,-1.6394,-1.5903,-1.5833,-1.4322,-1.3535,-1.3535,-1.2739,-1.2305,-1.2224,-1.2077,-1.2003,-1.1929,-1.1706,-1.1558,-1.1335,-1.0513,-0.9614,-0.8609,-0.752,-0.6477,-0.5506,-0.5246,-0.4981,-0.4831,-0.4831,-0.4694,-0.4311,-0.3143,-0.2506,-0.2118,0.0,0.0,0.0,0.0,0.0,0.0,0.0,1.4716,1.4756,1.4729,1.4849,1.4944,1.5003,1.4992,1.5424,1.6527,1.7169,0.0,0.0,0.0,0.0,0.0,0.0,0.0,0.0,1.9675,1.9713,1.9763,1.9655,1.9688,1.9858,1.9509,1.9499,1.9713,1.9518,1.938,0.0,0.0,0.0,0.0,0.0,0.0,0.8986,0.0,0.0,0.0,0.0,0.0,0.0,0.0,0.0,0.0,0.0,0.0,0.0,0.0,0.4629,0.4794,0.0,0.4697,0.4537,0.3978,0.3758,0.0,0.3149,0.2688,0.215,0.1677,0.0469,-0.0736,-0.1404,-0.2204,-0.3205,-0.4406,-0.5117,0.0,0.0,0.0,0.0,-1.2785,0.0,0.0,0.0,-1.7328,-1.7547,-1.709,-1.6244,-1.5621,-1.548,-1.397,-1.3098,-1.3025,-1.2592,-1.2305,-1.2305,-1.215,-1.2077,-1.2077,-1.1929,-1.1706,-1.1484,-1.0887,-0.9911,-0.8685,-0.7872,-0.6824,0.0,-0.5444,-0.5241,-0.503,-0.503,-0.4827,-0.4506,-0.3322,-0.2701,-0.2261,0.0,0.0,0.0,0.0,0.0,0.0,0.0,1.4658,1.4709,1.4794,1.4913,1.499,1.499,1.4883,1.548,1.7148,0.0,0.0,0.0,0.0,0.0,0.0,0.0,0.0,1.9582,1.9662,1.9701,1.9701,1.9623,1.9668,1.9795,1.9464,1.9402,1.9582,1.9376,1.9289,0.0,0.0,0.0,0.0,0.0,0.0,0.0,0.0,0.0,0.0,0.0,0.0,0.0,0.0,0.0,0.0,0.0,0.0,0.0,0.0,0.0,0.0,0.0,0.4399,0.384,0.0,0.0,0.0,0.2204,0.2353,0.0,0.0603,-0.0268,-0.1205,-0.2939,-0.4143,-0.5014,-0.5617,-0.6732,0.0,0.0,-0.999,0.0,0.0,-1.5089,0.0,-1.5783,-1.6745,-1.7183,-1.6873,-1.5904,-1.5196,-1.4903,-1.3462,-1.2599,-1.2305,-1.2305,-1.2305,-1.2305,-1.2305,-1.2305,-1.2305,-1.2077,-1.1929,-1.1706,-1.1558,-1.0432,-0.868,-0.8409,-0.73,-0.5779,-0.5494,-0.5439,-0.5428,-0.5428,-0.4957,-0.43,-0.3586,-0.2764,-0.1893,0.0,0.0,0.0,0.0,0.0,0.0,0.0,0.0,0.0,0.0,1.4832,1.4878,1.4913,1.4938,1.5582,0.0,0.0,0.0,0.0,0.0,0.0,0.0,0.0,0.0,1.9513,1.9582,1.9655,1.9699,1.9628,1.9668,1.9795,1.9499,1.9456,1.9582,1.9387,1.9251,0.0,0.0,0.0,0.0,0.0,0.0,0.0,0.0,0.0,0.0,0.5154,0.5089,0.0,0.0,0.0,0.0,0.0,0.0,0.0,0.0,0.4629,0.4743,0.4846,0.0,0.4903,0.4448,0.3825,0.3166,0.0,0.1475,0.0201,0.0,0.0,0.0,-0.3685,-0.4686,-0.5613,-0.6342,0.0,0.0,-0.9597,0.0,0.0,-1.4991,-1.5738,-1.6083,-1.6016,-1.694,-1.7382,-1.7062,-1.6565,-1.5948,-1.5196,-1.4034,-1.3171,-1.2526,-1.2378,-1.2305,-1.2305,-1.2305,-1.2305,-1.2305,-1.2231,-1.215,-1.1929,-1.1855,-1.0807,-0.8908,-0.8714,-0.7564,-0.5786,-0.561,-0.5467,-0.5428,-0.5428,-0.5292,-0.496,-0.3713,-0.3099,-0.2762,0.0,0.0,0.0,0.0,0.0,0.0,0.0,0.0,0.0,0.0,0.0,0.0,0.0,0.0,0.0,0.0,0.0,0.0,0.0,0.0,0.0,0.0,0.0,1.9601,1.9596,1.9587,1.9606,1.9601,1.9574,1.9614,1.9757,1.9513,1.9467,1.9582,1.939,1.9269,0.0,0.0,0.0,0.0,1.331,0.0,0.0,0.0,0.0,0.0,0.5669,0.5553,0.0,0.6102,0.5722,0.5201,0.0,0.0,0.0,0.0,0.4629,0.4794,0.4901,0.5079,0.5098,0.4432,0.3974,0.3364,0.2124,0.0,0.0,0.0,0.0,0.0,0.0,0.0,0.0,0.0,-0.8156,0.0,0.0,0.0,-1.3974,-1.4883,-1.5517,-1.5848,0.0,-1.6646,-1.7133,-1.6922,-1.6812,-1.6356,-1.5558,-1.4371,-1.339,-1.2685,-1.2391,-1.2237,-1.2305,-1.2305,-1.2305,-1.2305,-1.2305,-1.2157,-1.2003,-1.2003,-1.095,-0.913,-0.8885,-0.7744,-0.5929,-0.5707,-0.55,-0.5428,-0.5428,-0.5428,-0.5226,-0.3751,-0.3273,-0.3085,0.0,0.0,0.0,0.0,0.0,0.0,0.0,0.0,0.0,0.0,0.0,0.0,0.0,0.0,0.0,0.0,0.0,0.0,0.0,0.0,0.0,0.0,0.0,1.9668,1.9669,1.962,1.9536,1.9485,1.9518,1.956,1.9673,1.9513,1.9499,1.9555,1.9323,1.9166,0.0,0.0,0.0,0.0,1.3188,0.0,0.0,0.0,0.0,0.0,0.0,0.0,0.0,0.6448,0.6147,0.5597,0.5828,0.0,0.0,0.0,0.0,0.0,0.4901,0.4919,0.4731,0.3996,0.3931,0.3427,0.0991,0.0,0.0,0.0,0.0,0.0,0.0,0.0,0.0,0.0,0.0,0.0,-1.2012,-1.3122,-1.3983,-1.4588,-1.5118,0.0,-1.541,-1.6152,-1.6631,-1.6631,-1.6741,-1.6591,-1.59,-1.4612,-1.3537,-1.2788,-1.229,-1.206,-1.2237,-1.2258,-1.2305,-1.2305,-1.2305,-1.2224,-1.2003,-1.1929,-1.095,-0.9346,-0.8831,-0.765,-0.6072,-0.5681,-0.5488,-0.5428,-0.5428,-0.5428,-0.5226,-0.3885,-0.3332,-0.3068,0.0,0.0,0.0,0.0,0.0,0.0,0.0,0.0,0.0,0.0,0.0,0.0,0.0,0.0,0.0,0.0,0.0,0.0,0.0,0.0,0.0,1.9701,1.9596,1.956,1.9609,1.9499,1.9442,1.9409,1.9536,1.9597,1.9629,1.9633,1.9555,1.9423,1.9041,1.8592,1.8101,1.7727,1.5785,1.2974,1.3031,0.0,0.0,0.0,0.0,0.0,0.0,0.0,0.0,0.6852,0.6457,0.5941,0.6086,0.0,0.0,0.0,0.0,0.0,0.5014,0.4604,0.4103,0.3835,0.3317,0.2433,0.0727,0.0,0.0,0.0,0.0,0.0,0.0,-0.6985,-0.7642,0.0,0.0,-1.2227,0.0,0.0,-1.5177,-1.5235,0.0,-1.541,-1.541,-1.5869,-1.6162,-1.6162,-1.6505,-1.6427,-1.5688,-1.4758,-1.3882,-1.3161,-1.2208,-1.1792,-1.1771,-1.2123,-1.2305,-1.2305,-1.2305,-1.2305,-1.2224,-1.1558,-1.0651,-0.9492,-0.8322,-0.7158,-0.6072,-0.562,-0.5428,-0.5428,-0.5428,-0.5428,-0.5292,-0.4422,-0.3761,-0.299,0.0,0.0,0.0,0.0,0.0,0.0,0.0,0.0,0.0,0.0,0.0,0.0,0.0,0.0,0.0,0.0,0.0,0.0,0.0,0.0,0.0,1.9701,1.9509,1.9438,1.955,1.9423,1.935,1.935,1.9372,1.942,1.9489,1.9456,1.9298,1.9054,1.8681,1.8202,1.7676,1.7423,1.5652,1.2994,0.0,0.0,0.0,0.0,0.0,0.0,0.0,0.0,0.0,0.0,0.6995,0.6312,0.6209,0.0,0.0,0.0,0.0,0.0,0.5069,0.4509,0.3656,0.3036,0.2356,0.1205,-0.1453,0.0,0.0,0.0,0.0,0.0,0.0,0.0,-0.8544,-0.9691,0.0,-1.1695,-1.3183,-1.3974,-1.4519,0.0,0.0,-1.541,-1.541,-1.5811,-1.5943,-1.5567,-1.6287,-1.6296,-1.5349,-1.4635,-1.3894,-1.3251,-1.2284,-1.1657,-1.1457,-1.1825,-1.1901,-1.1824,-1.1824,-1.1824,-1.1759,-1.1035,-1.0315,-0.9464,-0.8274,-0.7212,-0.6346,-0.5811,-0.5549,-0.5477,-0.5459,-0.5428,-0.5292,-0.4154,-0.3246,-0.2553,0.0,0.0,0.0,0.0,0.0,0.0,0.0,0.0,0.0,0.0,0.0,0.0,0.0,0.0,0.0,0.0,0.0,0.0,0.0,0.0,1.9582,1.9599,1.9409,1.9365,1.9472,1.935,1.9292,1.9308,1.92,1.9182,1.9256,1.9127,1.8942,1.8681,1.8313,1.7795,1.7166,1.6897,1.5261,1.2855,0.0,0.0,0.0,0.0,0.0,0.0,0.0,0.0,0.0,0.0,0.0,0.0,0.0,0.0,0.0,0.4739,0.4849,0.5011,0.4959,0.4365,0.3392,0.188,0.0,0.0258,-0.3179,0.0,0.0,0.0,0.0,0.0,0.0,-0.8737,0.0,-1.0975,-1.0982,-1.1281,-1.2757,-1.3433,-1.3932,-1.441,-1.4883,-1.5118,-1.5001,-1.5295,-1.5294,-1.4735,-1.547,-1.5579,-1.4753,-1.4108,-1.3538,-1.3078,-1.2168,-1.1539,-1.1207,-1.1375,-1.1425,-1.1423,-1.1423,-1.1423,-1.1354,-1.0516,-0.9856,-0.9382,-0.8089,-0.7103,-0.6492,-0.5919,-0.5668,-0.5525,-0.5406,-0.5292,-0.4957,-0.3482,-0.2651,-0.2089,0.0,0.0,0.0,0.0,0.0,0.0,0.0,0.0,0.0,0.0,0.0,0.0,0.0,0.0,0.0,0.0,0.0,0.0,0.0,0.0,1.9398,1.9329,1.9298,1.9323,1.9411,1.9274,1.9251,1.9298,1.912,1.8948,1.8842,1.8771,1.8591,1.8331,1.7931,1.7169,1.6153,1.5519,1.4174,1.2424,1.2165,0.0,0.0,0.0,0.0,0.0,0.0,0.0,0.0,0.0,0.0,0.0,0.0,0.0,0.5454,0.5011,0.5069,0.5187,0.4684,0.4262,0.3294,0.0304,0.0188,0.0,-0.3247,-0.386,0.0,-0.6268,0.0,0.0,0.0,-0.9111,-1.0142,-1.0892,-1.1399,-1.232,-1.4103,0.0,-1.4469,-1.4469,-1.4529,-1.435,-1.3692,-1.3657,-1.3666,-1.3606,-1.3692,-1.3701,-1.3606,-1.2981,-1.2597,-1.2573,-1.1747,-1.1276,-1.1094,-1.0925,-1.1019,-1.1423,-1.1423,-1.1423,-1.1354,-0.9898,-0.9281,-0.9146,-0.7194,-0.6306,-0.6164,-0.5645,-0.5446,-0.5442,-0.5432,-0.4957,-0.422,-0.2748,-0.215,-0.2035,0.0,0.0,0.0,0.0,0.0,0.0,0.0,0.0,0.0,0.0,0.0,0.0,0.0,0.0,0.0,0.0,0.0,0.0,0.0,1.9271,1.9196,1.9301,1.9219,1.9119,1.9033,1.8982,1.8982,1.9051,1.8717,1.8455,1.8241,1.808,1.7856,1.7541,1.7085,1.6333,1.5389,1.4925,1.3723,1.2128,1.2031,1.1196,0.0,0.0,0.0,0.0,0.0,0.0,0.0,0.0,0.801,0.7646,0.648,0.5996,0.5773,0.5289,0.5183,0.5037,0.4389,0.349,0.2207,-0.0312,0.0,0.0,0.0,-0.5526,-0.5851,-0.7456,-0.8182,0.0,0.0,0.0,-1.0667,-1.0661,-1.1038,-1.1787,-1.294,-1.3122,-1.3243,-1.3674,-1.3803,-1.3812,-1.3511,-1.3511,-1.3321,-1.2887,-1.326,-1.3321,-1.2887,-1.2634,-1.2451,-1.2389,-1.1663,-1.0989,-1.0288,-1.0225,-1.0007,-0.9616,-1.0017,-1.0214,-1.0149,-0.8759,-0.817,-0.8157,-0.6785,-0.6198,-0.6276,-0.5283,-0.5089,-0.5494,-0.5466,-0.5226,-0.4821,-0.3215,-0.2613,-0.2432,0.0,0.0,0.0,0.0,0.0,0.0,0.0,0.0,0.0,0.0,0.0,0.0,0.0,0.0,0.0,0.0,0.0,0.0,1.9243,1.9014,1.8965,1.9153,1.9105,1.8984,1.8896,1.8698,1.8661,1.8771,1.836,1.8056,1.781,1.7568,1.7318,1.6987,1.6586,1.5879,1.4956,1.4537,1.347,1.2006,1.1898,1.1132,0.0,0.0,0.0,0.0,0.0,0.0,0.0,0.0,0.8209,0.7871,0.6431,0.605,0.5987,0.5293,0.5014,0.4705,0.382,0.2924,0.166,0.0,0.0,0.0,-0.6001,-0.6662,-0.7051,-0.8247,-0.8517,0.0,0.0,0.0,0.0,0.0,-1.087,-1.1421,-1.2081,-1.2205,-1.2389,-1.2757,-1.3009,-1.3017,-1.2834,-1.2842,-1.2712,-1.2274,-1.265,-1.265,-1.2151,-1.2151,-1.2089,-1.1911,-1.1483,-1.0793,-0.9837,-0.9773,-0.9384,-0.849,-0.8742,-0.9005,-0.9134,-0.8042,-0.7536,-0.7606,-0.6599,-0.6051,-0.579,-0.493,-0.4825,-0.516,-0.5062,-0.4891,-0.4556,-0.308,-0.2414,-0.2096,0.0,0.0,0.0,0.0,0.0,0.0,0.0,0.0,0.0,0.0,0.0,0.0,0.0,0.0,0.0,0.0,0.0,0.0,1.8697,1.8641,1.8678,1.8896,1.8896,1.8967,1.9087,1.8508,1.8293,1.8492,1.8076,1.7788,1.7589,1.7313,1.7043,1.6789,1.6512,1.5864,1.4956,1.4351,1.3289,1.197,1.1726,1.0954,1.0037,0.0,0.0,0.0,0.0,0.0,0.0,0.0,0.8321,0.7949,0.649,0.6164,0.6164,0.5073,0.4567,0.4144,0.3022,0.2638,0.0,0.0,0.0,0.0,-0.5723,-0.6915,-0.7632,-0.8376,0.0,-0.8894,-1.0231,-1.0218,0.0,-1.0301,-1.087,-1.1483,-1.1888,-1.2012,-1.2012,-1.2012,-1.2143,-1.2027,-1.1365,-1.1498,-1.1622,-1.1622,-1.1622,-1.1498,-1.1303,-1.1303,-1.124,-1.1059,-1.1059,-1.0674,-0.9773,-0.9773,-0.9326,-0.849,-0.7782,-0.7847,-0.849,-0.7782,-0.7456,-0.7456,-0.6605,-0.5679,-0.4815,-0.4622,-0.4489,-0.4287,-0.4287,-0.3885,-0.3082,-0.2211,-0.1412,-0.0815,0.0,0.0,0.0,0.0,0.0,0.0,0.0,0.0,0.0,0.0,0.0,0.0,0.0,0.0,0.0,0.0,0.0,0.0,1.8697,1.8545,1.8544,1.8678,1.8678,1.8641,1.8528,1.8166,1.7932,1.781,1.7539,1.7351,1.7248,1.6773,1.6517,1.6355,1.5809,1.5286,1.4741,1.4038,1.3054,1.2004,1.2057,1.1433,1.0454,0.0,0.0,0.0,0.0,0.0,0.0,0.0,0.0,0.0,0.6864,0.6647,0.6858,0.5891,0.5285,0.4678,0.3806,0.2306,0.0,0.0,0.0,0.0,0.0,-0.6859,0.0,0.0,-0.9215,-0.96,-0.9779,-1.0225,0.0,-1.0301,-1.0681,-1.0989,-1.117,-1.117,-1.117,-1.117,-1.1358,-1.1365,-1.1185,-1.1185,-1.1247,-1.1247,-1.1247,-1.1247,-1.1185,-1.0661,-1.0338,-1.0161,-1.0161,-0.9518,-0.8166,-0.8678,-0.8226,-0.6999,-0.6806,-0.7134,-0.7782,-0.7068,-0.6745,-0.6675,-0.6346,-0.5679,-0.4749,-0.3951,-0.3551,-0.3551,-0.4087,-0.4154,-0.3818,-0.2811,-0.2011,-0.1218,0.0,0.0,0.0,0.0,0.0,0.0,0.0,0.0,0.0,0.0,0.0,0.0,0.0,0.0,0.0,0.0,0.0,0.0,0.0,1.8304,1.8266,1.8506,1.8526,1.8333,1.7988,1.7815,1.7562,1.7183,1.7175,1.7076,1.6935,1.6501,1.6246,1.6166,1.5536,1.5031,1.4634,1.3809,1.3064,1.2413,1.2235,1.1797,1.1221,0.0,0.0,0.0,0.0,0.0,0.0,0.0,0.0,0.0,0.7085,0.6869,0.6966,0.5714,0.4999,0.434,0.3191,0.0,0.0,0.0,0.0,-0.4541,-0.6005,0.0,0.0,0.0,0.0,-0.946,-0.9582,-1.0168,0.0,-1.0428,-1.0618,-1.0807,-1.0744,-1.0744,-1.0744,-1.0744,-1.087,-1.0996,-1.0996,-1.1059,-1.1122,-1.1122,-1.0863,-1.0737,-1.0996,-1.0281,-0.9831,-0.9709,-0.9709,-0.9,-0.7521,-0.7907,-0.7521,-0.642,-0.642,-0.6613,-0.7068,-0.6613,-0.642,-0.635,-0.5881,-0.5147,-0.4217,-0.3482,-0.3015,-0.2882,-0.3885,-0.3951,-0.3349,-0.2878,-0.2078,-0.1084,0.0,0.0,0.0,0.0,0.0,0.0,0.0,0.0,0.0,0.0,0.0,0.0,0.0,0.0,0.0,0.0,0.0,0.0,0.0,0.0,1.8009,1.8383,1.8345,1.8065,1.7489,1.7472,1.7206,1.6696,1.6935,1.6935,1.667,1.6394,1.6191,1.6095,1.5536,1.5058,1.4624,1.3687,1.3215,1.3062,1.2399,1.2121,1.2152,1.2393,0.0,0.0,0.0,0.0,0.0,0.0,0.0,0.0,0.7257,0.7036,0.681,0.5046,0.4223,0.3559,0.2055,0.0,0.0,0.0,0.0,0.0,-0.6071,-0.7265,-0.8112,-0.8737,0.0,-0.8748,-0.9518,-0.9913,-1.0174,-1.0364,-1.0555,-1.0611,-1.0428,-1.0428,-1.0491,-1.0428,-1.0548,-1.0611,-1.0674,-1.08,-1.0933,-1.1059,-1.0345,-1.0155,-1.0674,-1.0034,-0.9582,-0.9326,-0.9326,-0.8683,-0.7391,-0.7456,-0.7134,-0.642,-0.642,-0.642,-0.642,-0.642,-0.642,-0.6284,-0.5147,-0.4217,-0.3487,-0.3149,-0.2681,-0.2347,-0.3685,-0.3416,-0.2347,-0.2679,-0.1879,-0.0611,0.0,0.0,0.0,0.0,0.0,0.0,0.0,0.0,0.0,0.0,0.0,0.0,0.0,0.0,0.0,0.0,0.0,0.0,0.0,0.0,1.8151,1.8236,1.8031,1.771,1.7256,1.7256,1.7052,1.6607,1.6722,1.6696,1.6459,1.6136,1.5841,1.5536,1.5163,1.486,1.466,1.4121,1.3665,1.3247,1.3214,1.2887,1.2549,1.2879,1.2493,0.0,0.0,0.0,0.0,0.0,0.0,0.0,0.7622,0.7413,0.7192,0.5991,0.5087,0.4304,0.0,0.1939,0.0,0.0,0.0,-0.5005,-0.6005,-0.6675,-0.7335,-0.8047,-0.8361,-0.8554,-0.8742,-0.8812,-0.8877,-0.8941,-0.939,-0.9582,-0.9005,-0.939,-0.9518,-0.9005,-0.9005,-0.9198,-0.9709,-0.9326,-0.9518,-1.0618,-1.0034,-0.9646,-0.9779,-0.9128,-0.849,-0.7977,-0.7907,-0.7521,-0.6613,-0.7199,-0.7134,-0.642,-0.642,-0.642,-0.642,-0.642,-0.635,-0.6145,-0.4483,-0.3685,-0.342,-0.208,-0.208,-0.3015,-0.3282,-0.3616,-0.3818,-0.362,-0.3019,-0.2093,0.0,0.0,0.0,0.0,0.0,0.0,0.0,0.0,0.0,0.0,0.0,0.0,0.0,0.0,0.0,0.0,0.0,0.0,0.0,0.0,1.7658,1.7772,1.7502,1.7248,1.6952,1.6825,1.6633,1.6313,1.634,1.6313,1.6203,1.5911,1.5624,1.5359,1.4735,1.4572,1.4638,1.3803,1.3553,1.3685,1.3346,1.3153,1.3077,1.2908,1.2442,1.1792,1.1493,0.0,0.0,0.0,0.0,0.0,0.0,0.0,0.7568,0.6091,0.539,0.4752,0.0,0.0,0.0,0.0,0.0,0.0,-0.4951,-0.5481,-0.6009,-0.64,-0.7316,-0.8037,-0.8037,-0.8296,-0.849,-0.849,-0.8812,-0.8877,-0.8554,-0.8812,-0.8877,-0.8554,-0.849,-0.8619,-0.9,-0.8683,-0.8812,-0.9524,-0.8941,-0.8683,-0.9005,-0.8361,-0.7842,-0.7521,-0.7521,-0.7134,-0.642,-0.6811,-0.6811,-0.642,-0.642,-0.635,-0.6284,-0.6284,-0.6148,-0.5815,-0.4553,-0.3754,-0.3284,-0.208,-0.1812,-0.2281,-0.2948,-0.3215,-0.3284,-0.3689,-0.3355,-0.2562,0.0,0.0,0.0,0.0,0.0,0.0,0.0,0.0,0.0,0.0,0.0,0.0,0.0,0.0,0.0,0.0,0.0,0.0,0.0,0.0,0.0,1.7224,1.701,1.6825,1.6617,1.6394,1.6163,1.5996,1.5968,1.5955,1.5854,1.5594,1.5359,1.5134,1.4387,1.4214,1.4462,1.3394,1.3399,1.4016,1.3313,1.3176,1.3276,1.2706,1.2264,1.1868,1.1318,1.0694,0.9961,0.9614,0.0,0.0,0.0,0.0,0.7836,0.6023,0.5522,0.502,0.0,0.0,0.0,0.0,0.0,0.0,-0.3892,-0.4422,-0.4815,-0.4815,-0.6071,-0.7195,-0.7195,-0.7712,-0.8166,-0.8166,-0.8231,-0.8296,-0.8166,-0.8231,-0.8296,-0.8166,-0.8166,-0.8166,-0.8296,-0.8231,-0.8231,-0.849,-0.7912,-0.7717,-0.8296,-0.7782,-0.7461,-0.733,-0.7326,-0.7003,-0.642,-0.642,-0.642,-0.642,-0.635,-0.6284,-0.6079,-0.6079,-0.5947,-0.555,-0.4821,-0.402,-0.3149,-0.2414,-0.1879,-0.1611,-0.2748,-0.3015,-0.2748,-0.3623,-0.3556,-0.2896,0.0,0.0,0.0,0.0,0.0,0.0,0.0,0.0,0.0,0.0,0.0,0.0,0.0,0.0,0.0,0.0,0.0,0.0,1.7455,0.0,0.0,1.696,1.691,1.6722,1.6367,1.6191,1.6095,1.5996,1.587,0.0,0.0,0.0,0.0,1.4273,1.4198,1.4063,1.3856,1.3956,1.3884,1.3658,1.3564,1.3072,1.2403,1.2423,1.194,1.125,1.0728,1.0372,1.0064,0.9211,0.8857,0.0,0.0,0.0,0.7949,0.6627,0.5945,0.5273,0.0,0.0,0.0,0.0,0.0,-0.3892,0.0,0.0,-0.4815,0.0,-0.5345,-0.5881,-0.5881,-0.628,-0.6679,-0.6679,-0.7195,-0.7391,-0.6745,-0.726,-0.7391,-0.6741,-0.6679,-0.6937,-0.7587,-0.7068,-0.7195,-0.8425,-0.7912,-0.7521,-0.7652,-0.7521,-0.7199,-0.6548,-0.6548,-0.6482,-0.642,-0.642,-0.642,-0.642,-0.628,-0.6013,-0.5683,-0.5683,-0.5683,-0.555,-0.4686,-0.3885,-0.3149,-0.2414,-0.2414,-0.2948,-0.3149,-0.3951,-0.4957,-0.4761,-0.4628,-0.4295,0.0,0.0,0.0,0.0,0.0,0.0,0.0,0.0,0.0,0.0,0.0,0.0,0.0,0.0,0.0,1.7288,1.7175,1.7052,1.6901,1.6901,1.6799,1.6633,1.6565,1.6474,1.6262,1.6123,1.5983,1.587,0.0,0.0,0.0,1.4578,1.4232,0.0,0.0,1.3684,1.3563,1.3509,1.3507,1.3573,1.319,1.2735,1.2286,1.194,1.1451,1.0897,1.0387,1.0087,0.988,0.9316,0.9159,0.9106,0.8844,0.0,0.0,0.0,0.6922,0.0,0.3507,0.0,0.0,0.0,0.0,-0.282,-0.3424,0.0,-0.3889,-0.3889,-0.4356,-0.4821,-0.5084,-0.5348,-0.5481,-0.5481,-0.5807,-0.6005,-0.5951,-0.621,-0.6408,-0.6416,-0.642,-0.6548,-0.6876,-0.6613,-0.6679,-0.726,-0.7068,-0.6872,-0.6872,-0.6872,-0.6745,-0.642,-0.642,-0.642,-0.642,-0.642,-0.635,-0.628,-0.6013,-0.5749,-0.5617,-0.5554,-0.5491,-0.5422,-0.4622,-0.4087,-0.3751,-0.2547,-0.228,-0.2614,-0.3015,-0.3553,-0.4092,-0.4628,-0.4761,-0.4492,0.0,0.0,0.0,0.0,0.0,0.0,0.0,0.0,0.0,0.0,0.0,0.0,0.0,0.0,0.0,0.0,1.685,1.667,1.6474,1.6448,1.6394,1.6344,1.6274,1.6234,1.6139,1.6011,1.587,1.5712,0.0,0.0,1.4777,1.4227,1.3841,0.0,1.3533,1.343,0.0,0.0,0.0,1.318,1.2745,1.2286,1.1832,1.1259,1.0753,1.0285,0.9984,0.9732,0.9524,0.9413,0.9413,0.9361,0.9113,0.9008,0.0,0.0,0.0,0.0,0.0,0.0,0.0,0.0,0.0,0.0,0.0,0.0,-0.2956,0.0,-0.3426,-0.3892,-0.4353,-0.4616,-0.4815,-0.4815,-0.4815,-0.4948,-0.5348,-0.5481,-0.5683,-0.5951,-0.6218,-0.6284,-0.6017,-0.6218,-0.635,-0.6218,-0.635,-0.642,-0.642,-0.642,-0.642,-0.642,-0.642,-0.635,-0.635,-0.6288,-0.6218,-0.6013,-0.5749,-0.555,-0.5554,-0.5425,-0.5428,-0.5362,-0.4821,-0.4486,-0.422,-0.3082,-0.2681,-0.2681,-0.3218,-0.3487,-0.3623,-0.4428,-0.4694,-0.4492,0.0,0.0,0.0,0.0,0.0,0.0,0.0,0.0,0.0,0.0,0.0,0.0,1.6866,1.6823,1.6737,1.6452,1.6436,1.6382,1.6328,1.6313,1.6246,1.6123,1.6151,0.0,1.5928,1.5856,1.5697,0.0,0.0,0.0,1.4683,1.4103,1.3629,1.3334,1.3504,1.3446,1.3231,0.0,0.0,0.0,0.0,1.1633,1.0506,1.0454,0.9821,0.8988,0.9458,0.9302,0.8883,0.9256,0.9413,0.9361,0.9211,0.9008,0.8805,0.0,0.0,0.0,0.0,0.0,0.0,0.0,0.0,0.0,0.0,0.0,-0.2348,-0.2686,-0.3023,-0.3226,-0.3293,-0.4087,-0.4815,-0.4815,-0.4815,-0.4815,-0.4815,-0.5282,-0.5415,-0.4948,-0.5749,-0.6017,-0.5014,-0.5815,-0.6218,-0.5683,-0.6086,-0.642,-0.642,-0.642,-0.642,-0.642,-0.642,-0.635,-0.6214,-0.602,-0.5818,-0.5613,-0.5617,-0.5554,-0.5425,-0.5428,-0.5428,-0.5428,-0.5359,-0.4957,-0.4287,-0.422,-0.4154,-0.4154,-0.4025,-0.4359,-0.4954,-0.4691,-0.4625,-0.4492,0.0,0.0,0.0,0.0,0.0,0.0,0.0,0.0,0.0,0.0,0.0,0.0,0.0,1.6471,1.6283,1.6151,1.5981,1.5796,1.5535,1.5535,1.5492,1.5404,1.5374,1.53,1.5121,1.4968,1.4876,0.0,0.0,1.4052,1.3855,1.3731,1.3545,1.3305,1.3379,1.3321,1.3139,1.332,0.0,0.0,0.0,0.0,0.0,0.0,0.0,0.0,0.0,0.0,0.8928,0.8988,0.9249,0.9546,0.9703,0.9397,0.8945,0.8639,0.0,0.0,0.0,0.0,0.0,0.0,0.0735,0.0,-0.1075,-0.1479,-0.1747,-0.2285,-0.2488,-0.2555,-0.2555,-0.3224,-0.3756,-0.3756,-0.3756,-0.3889,-0.4223,-0.4425,-0.4622,-0.4749,-0.515,-0.5216,-0.4815,-0.5481,-0.5815,-0.5617,-0.6083,-0.642,-0.642,-0.635,-0.628,-0.628,-0.6152,-0.6086,-0.602,-0.5818,-0.5683,-0.5617,-0.5488,-0.5425,-0.5428,-0.5428,-0.5428,-0.5428,-0.5428,-0.5226,-0.4957,-0.4486,-0.4223,-0.4092,-0.4028,-0.4025,-0.4087,-0.4492,-0.4495,-0.4364,0.0,0.0,0.0,0.0,0.0,0.0,0.0,0.0,0.0,0.0,0.0,0.0,0.0,0.0,1.5782,1.5579,1.5404,1.5181,1.4939,1.4939,1.4892,1.4845,1.4814,1.4707,1.4554,1.4456,1.4374,0.0,0.0,0.0,0.0,1.3386,1.3365,1.351,1.315,1.3029,0.0,0.0,0.0,1.1981,0.0,0.0,1.0087,0.0,0.0,0.0,0.0,0.0,0.0,0.8337,0.847,0.873,0.9196,0.9206,0.8899,0.0,0.0,0.0,0.6384,0.0,0.0,0.0,0.0,0.1604,0.0268,0.0,-0.0604,-0.1546,-0.1817,-0.1951,-0.2154,-0.2555,-0.2891,-0.3023,-0.3023,-0.3224,-0.3694,-0.3758,-0.3959,-0.422,-0.4483,-0.455,-0.4287,-0.4818,-0.5216,-0.5348,-0.5815,-0.6214,-0.635,-0.628,-0.6148,-0.6083,-0.5888,-0.5822,-0.5822,-0.562,-0.5617,-0.5877,-0.5557,-0.5491,-0.5752,-0.5491,-0.5428,-0.5428,-0.5428,-0.5428,-0.5359,-0.4821,-0.4489,-0.4359,-0.4228,-0.4092,-0.3887,-0.4359,-0.4431,-0.43,0.0,0.0,0.0,0.0,0.0,0.0,0.0,0.0,0.0,1.6105,0.0,0.0,0.0,0.0,0.0,1.4696,1.4665,1.4617,1.4519,1.4533,1.4487,1.4438,1.4501,1.4379,1.4127,1.4264,1.4214,1.396,0.0,0.0,0.0,0.0,1.3103,1.3795,1.2736,1.2609,1.316,0.0,1.253,1.12,0.0,1.0669,0.9562,0.0,0.0,0.0,0.8732,0.8084,0.0,0.7332,0.0,0.0,0.0,0.0,0.0,0.0,0.0,0.0,0.0,0.0,0.0,0.0,0.0,0.0,0.2616,0.0,0.1204,-0.0403,-0.1008,-0.1412,-0.2018,-0.2154,-0.222,-0.2619,-0.2686,-0.282,-0.3092,-0.3357,-0.3422,-0.3226,-0.3823,-0.3956,-0.3226,-0.3823,-0.442,-0.4749,-0.5282,-0.5749,-0.6145,-0.6145,-0.6083,-0.5888,-0.5686,-0.5617,-0.5613,-0.5491,-0.5752,-0.64,-0.5752,-0.5818,-0.64,-0.5752,-0.5428,-0.5428,-0.5428,-0.5362,-0.5362,-0.5156,-0.5087,-0.502,-0.4758,-0.4625,-0.4561,-0.4367,-0.43,-0.43,0.0,0.0,0.0,0.0,0.0,0.0,1.6166,1.6057,1.5987,0.0,0.0,0.0,1.5344,1.4998,1.4474,1.3822,1.3723,1.3457,1.2916,1.2765,1.2683,1.2625,1.2625,1.2543,1.233,1.2519,1.2687,1.2894,1.2943,1.2885,1.2762,1.2786,1.2559,0.0,1.2015,1.1969,1.2049,1.2089,0.0,1.0779,1.0685,1.002,0.0,0.0,0.0,0.0,0.0,0.6421,0.6327,0.0,0.6959,0.7592,0.0,0.0,0.0,0.0,0.0,0.0,0.7587,0.0,0.0,0.0,0.0,0.0,0.0,0.0,0.1944,0.114,0.047,-0.0067,-0.0202,-0.047,-0.0739,-0.1276,-0.1882,-0.2354,-0.2488,-0.2555,-0.2555,-0.249,-0.269,-0.2688,-0.249,-0.2952,-0.3347,-0.3413,-0.4414,-0.508,-0.5147,-0.5547,-0.5686,-0.5561,-0.5491,-0.5683,-0.6203,-0.6137,-0.647,-0.7125,-0.6929,-0.6929,-0.712,-0.64,-0.6075,-0.5881,-0.5422,-0.5093,-0.4964,-0.509,-0.4957,-0.4758,-0.4625,-0.4495,-0.4364,-0.43,-0.43,-0.43,0.0,0.0,0.0,0.0,0.0,0.0,1.5957,1.5756,1.5566,0.0,0.0,0.0,1.4269,1.4011,1.3641,1.3022,1.2938,1.278,1.246,1.2395,1.2307,1.2252,1.2241,1.2135,1.199,1.2107,1.221,1.2292,1.2332,1.2267,1.2186,1.2232,1.208,1.1691,0.0,0.0,0.0,0.0,0.0,0.0,1.0174,0.0,0.0,0.7865,0.722,0.0,0.0,0.0,0.5961,0.5673,0.6212,0.0,0.0,0.0,0.0,0.0,0.0,0.0,0.0,0.0,0.0,0.0,0.0,0.0,0.4209,0.3611,0.2947,0.0,0.1141,0.0739,0.0538,0.0336,0.0134,-0.0202,-0.0739,-0.1344,-0.2087,-0.2085,-0.2018,-0.2154,-0.2018,-0.2018,-0.2154,-0.2284,-0.248,-0.288,-0.388,-0.4683,-0.508,-0.5352,-0.5491,-0.5428,-0.5686,-0.6013,-0.64,-0.6662,-0.699,-0.7386,-0.7125,-0.699,-0.6924,-0.6203,-0.5811,-0.5683,-0.5156,-0.4891,-0.4694,-0.4824,-0.4758,-0.4558,-0.4495,-0.4431,-0.43,-0.43,-0.43,-0.43,0.0,0.0,0.0,1.5955,1.5898,1.5827,1.5712,1.5359,1.5041,0.0,1.4534,1.3954,1.3107,1.2981,1.2805,1.2418,1.2373,1.2429,1.2625,1.2615,1.2615,1.2542,1.2542,1.2468,1.2362,1.2362,1.2254,1.1994,1.183,1.1816,1.1985,1.164,1.1595,1.1774,0.0,0.0,0.0,0.0,0.0,1.0079,0.9644,0.8849,0.0,0.0,0.6879,0.6487,0.5974,0.5872,0.586,0.5104,0.525,0.0,0.0,0.0,0.0,0.0,0.7068,0.0,0.0,0.0,0.0,0.0,0.6412,0.0,0.4945,0.4478,0.388,0.0,0.1613,0.1412,0.1007,0.094,0.0873,0.0873,0.0739,0.0067,-0.1681,-0.1614,-0.1614,-0.1951,-0.1748,-0.1681,-0.2018,-0.1749,-0.188,-0.2613,-0.348,-0.4348,-0.5415,-0.5425,-0.5428,-0.5491,-0.6075,-0.6461,-0.6531,-0.712,-0.7386,-0.7386,-0.6793,-0.6531,-0.6461,-0.5613,-0.5219,-0.5153,-0.4894,-0.4694,-0.4561,-0.4561,-0.4561,-0.4561,-0.4367,-0.43,-0.43,-0.43,-0.43,-0.43,0.0,0.0,0.0,1.5697,1.5639,1.5448,1.5134,1.4937,1.4735,1.4337,1.3835,1.3387,1.3028,1.2839,1.2636,1.2362,1.2109,1.1885,1.1587,1.1519,1.1528,1.1485,1.1485,1.1441,1.1309,1.1572,1.1817,1.2005,1.1995,1.194,1.1822,1.146,1.1015,1.0608,0.0,0.0,0.0,0.0,0.0,0.8554,0.8442,0.0,0.7337,0.6481,0.5612,0.4879,0.4955,0.4813,0.4541,0.4935,0.513,0.5418,0.0,0.0,0.0,0.6675,0.0,0.0,0.0,0.0,0.0,0.0,0.0,0.0,0.5289,0.4556,0.3954,0.0,0.3413,0.2948,0.3482,0.3549,0.3413,0.3009,0.2412,0.1544,0.0134,-0.0336,-0.0605,-0.0672,-0.1008,-0.121,-0.1277,-0.1277,-0.1277,-0.1411,-0.2614,-0.3685,-0.4486,-0.509,-0.5624,-0.6203,-0.6334,-0.6662,-0.719,-0.7321,-0.7386,-0.7386,-0.7256,-0.712,-0.7051,-0.6272,-0.5749,-0.5484,-0.4891,-0.4561,-0.4367,-0.4367,-0.4367,-0.4364,-0.43,-0.43,-0.43,-0.43,-0.43,-0.43,0.0,0.0,0.0,1.5225,1.5013,1.4721,1.4533,1.4232,1.3934,1.3718,1.3219,1.2787,1.2457,1.2299,1.2101,1.1701,1.154,1.1306,1.0992,1.1217,1.1187,1.0828,1.0971,1.0971,1.0733,1.0915,1.1002,1.0893,1.1292,1.1251,1.0787,1.0787,1.0277,0.9399,0.0,0.0,0.0,0.0,0.9099,0.8559,0.7997,0.0,0.6244,0.5536,0.4836,0.4256,0.4391,0.435,0.4281,0.4866,0.5087,0.0,0.5749,0.5885,0.5958,0.0,0.6086,0.5888,0.0,0.0,0.0,0.6145,0.0,0.0,0.0,0.5282,0.4815,0.468,0.4148,0.3885,0.422,0.435,0.4281,0.3946,0.3349,0.275,0.2214,0.094,0.0,-0.0269,-0.0538,-0.0806,-0.1076,-0.1076,-0.121,-0.1544,-0.2281,-0.3149,-0.422,-0.4622,-0.5153,-0.5881,-0.6203,-0.6531,-0.6924,-0.7256,-0.7256,-0.6924,-0.6793,-0.6531,-0.6133,-0.5613,-0.5286,-0.509,-0.4628,-0.4364,-0.43,-0.43,-0.43,-0.43,-0.43,-0.43,-0.43,-0.43,-0.43,-0.43,1.5134,0.0,0.0,0.0,1.4219,1.3868,1.3873,1.3411,1.307,1.3129,1.2609,1.2078,1.166,1.1407,1.1077,1.0575,1.0504,1.0434,1.0332,1.0771,1.0838,1.0364,1.061,1.0661,1.0312,1.0415,1.0261,0.9865,1.0395,1.0395,0.9865,0.994,0.9458,0.8587,0.0,0.0,0.0,0.0,0.0,0.8458,0.0,0.6529,0.542,0.4766,0.4219,0.3862,0.3754,0.3753,0.3961,0.4556,0.4752,0.4752,0.502,0.5355,0.0,0.0,0.0,0.0,0.0,0.0,0.0,0.0,0.0,0.6863,0.0,0.0,0.0,0.4875,0.468,0.4619,0.4752,0.0,0.0,0.4653,0.0,0.0,0.0,0.214,0.0,0.0201,-0.0067,-0.0336,-0.0874,-0.1008,-0.1344,-0.1879,-0.2013,-0.2681,-0.402,-0.422,-0.4686,-0.5557,-0.6075,-0.6334,-0.6334,-0.6859,-0.6793,-0.6071,-0.5943,-0.555,-0.502,-0.4691,-0.4561,-0.4561,-0.4367,-0.43,-0.43,-0.43,-0.43,-0.43,-0.43,-0.43,-0.43,-0.43,-0.43,-0.43,1.4038,1.3973,0.0,0.0,1.3377,1.3037,1.3019,1.2753,1.2485,1.2497,1.1841,1.1204,0.0,0.0,0.0,0.0,0.0,0.0,0.9231,0.0,0.9563,1.0012,1.0064,1.0115,1.0064,1.0064,1.0064,0.9961,0.9821,0.9821,0.9961,0.9145,0.883,0.0,0.79,0.0,0.0,0.0,0.7302,0.0,0.6542,0.6328,0.0,0.4672,0.3719,0.3035,0.2515,0.2341,0.2482,0.0,0.3416,0.3618,0.0,0.4827,0.4564,0.5024,0.0,0.0,0.0,0.0,0.0,0.0,0.5352,0.0,0.5219,0.0,0.5408,0.5481,0.0,0.5873,0.6482,0.0,0.0,0.5826,0.468,0.3857,0.4024,0.3107,0.2283,0.1744,0.094,0.0202,-0.0336,-0.0807,-0.1143,-0.121,-0.1745,-0.248,-0.3282,-0.3951,-0.4882,-0.6268,-0.6207,-0.6141,-0.6141,-0.6071,-0.5679,-0.496,-0.496,-0.4827,-0.4625,-0.4625,-0.4495,-0.43,-0.43,-0.43,-0.43,-0.43,-0.43,-0.43,-0.43,-0.43,-0.43,-0.43,-0.43,-0.43,1.3467,1.3213,0.0,0.0,1.284,1.2503,1.2615,1.2425,1.2195,1.193,1.1413,0.0,0.0,0.0,0.0,0.0,0.0,0.777,0.0,0.0,0.0,0.8066,0.8915,0.9124,0.8541,0.8974,0.9093,0.8935,0.9093,0.9033,0.8915,0.8501,0.8072,0.0,0.7088,0.0,0.6862,0.0,0.6731,0.0,0.0,0.0,0.0,0.3929,0.3097,0.2443,0.2204,0.208,0.2147,0.0,0.2815,0.0,0.0,0.0,0.0,0.4087,0.0,0.0,0.0,0.0,0.0,0.0,0.0,0.0,0.5484,0.0,0.5481,0.5613,0.0,0.0,0.0,0.0,0.0,0.0,0.5048,0.4342,0.4492,0.0,0.282,0.2281,0.1677,0.0873,-0.0202,-0.047,-0.074,-0.0943,-0.1277,-0.1946,-0.2885,-0.3418,-0.4217,-0.5418,-0.5484,-0.5484,-0.5355,-0.5286,-0.509,-0.4831,-0.4694,-0.4628,-0.4625,-0.4495,-0.4364,-0.43,-0.43,-0.43,-0.43,-0.43,-0.43,-0.43,-0.43,-0.43,-0.43,-0.43,-0.43,-0.43,1.2679,0.0,0.0,0.0,0.0,1.1809,1.1772,1.174,0.0,0.0,0.0,0.0,0.982,0.8763,0.0,0.0,0.6543,0.6063,0.0,0.0,0.6881,0.0,0.0,0.0,0.7165,0.7818,0.8156,0.8002,0.8309,0.8287,0.8027,0.7697,0.7236,0.6643,0.0,0.5864,0.551,0.0,0.5702,0.536,0.4689,0.3936,0.3149,0.2748,0.2281,0.1812,0.1612,0.1544,0.1544,0.1542,0.1876,0.2277,0.1942,0.2546,0.3351,0.0,0.0,0.0,0.442,0.0,0.0,0.0,0.0,0.0,0.0,0.5686,0.562,0.5484,0.562,0.0,0.0,0.0,0.5932,0.5952,0.0,0.4613,0.4581,0.3875,0.3224,0.2818,0.2281,0.1476,0.0403,0.0201,-0.0134,-0.0539,-0.0807,-0.1477,-0.2619,-0.3153,-0.382,-0.4764,-0.4891,-0.4891,-0.4761,-0.4697,-0.4631,-0.4631,-0.4564,-0.4495,-0.4495,-0.4367,-0.43,-0.43,-0.43,-0.43,-0.43,-0.43,-0.43,-0.43,-0.43,-0.43,-0.43,-0.43,-0.43,-0.43,1.146,1.1817,0.0,0.0,0.0,0.0,0.0,0.0,0.0,0.0,0.0,0.0,0.0,0.0,0.0,0.0,0.0,0.3121,0.3666,0.0,0.4491,0.0,0.0,0.6253,0.0,0.6853,0.7246,0.7521,0.7521,0.7635,0.7813,0.6729,0.649,0.6849,0.5314,0.4606,0.4529,0.4094,0.3582,0.3008,0.3011,0.228,0.121,0.0,0.1143,0.1008,0.0337,0.0067,0.0067,0.0067,0.0067,0.0201,0.0935,0.1136,0.1337,0.0,0.0,0.0,0.3082,0.3215,0.3549,0.4818,0.5087,0.5087,0.5087,0.5488,0.5756,0.5219,0.5947,0.6675,0.6675,0.6675,0.6485,0.5799,0.5065,0.0,0.0,0.3893,0.3758,0.3756,0.2683,0.1878,0.1811,0.1343,0.0739,0.0,-0.0335,-0.1139,-0.2619,-0.3355,-0.4092,-0.4764,-0.4694,-0.4625,-0.4625,-0.4431,-0.43,-0.43,-0.43,-0.43,-0.43,-0.43,-0.43,-0.43,-0.43,-0.43,-0.43,-0.43,-0.43,-0.43,-0.43,-0.43,-0.43,-0.43,-0.43,-0.43,0.0,0.0,0.0,0.0,0.0,0.0,0.0,1.0292,0.0,0.0,0.8122,0.0,0.0,0.4856,0.4051,0.0,0.0,0.2792,0.3019,0.3978,0.0,0.0,0.0,0.6028,0.0,0.0,0.6678,0.6793,0.6441,0.6352,0.642,0.5838,0.5696,0.5816,0.0,0.4451,0.0,0.0,0.0,0.0,0.0,0.1143,0.0404,0.0,0.0807,0.0337,0.0067,-0.0337,-0.074,-0.0739,-0.0737,-0.0735,-0.0937,-0.0401,0.0334,0.0067,0.0334,0.0869,0.1604,0.1471,0.1405,0.2746,0.3149,0.3215,0.3749,0.4356,0.4764,0.4631,0.4827,0.5223,0.555,0.5617,0.5665,0.5814,0.5654,0.5404,0.0,0.4926,0.4688,0.4688,0.3754,0.2883,0.2281,0.1612,0.1008,0.0538,-0.0537,-0.1544,-0.2281,-0.3288,-0.4028,-0.4434,-0.4561,-0.4561,-0.4431,-0.4367,-0.43,-0.43,-0.43,-0.43,-0.43,-0.43,-0.43,-0.43,-0.43,-0.43,-0.43,-0.43,-0.43,-0.43,-0.43,-0.43,-0.43,-0.43,-0.43,-0.43,1.0163,0.0,0.0,0.0,0.0,0.0,0.0,0.0,0.0,0.0,0.662,0.0,0.4569,0.0,0.307,0.0,0.2213,0.1888,0.1973,0.2945,0.0,0.1912,0.3949,0.4657,0.0,0.0,0.5679,0.5735,0.5739,0.5711,0.5655,0.5297,0.5144,0.5199,0.0,0.4043,0.313,0.2926,0.2214,0.0,0.0,0.0269,0.0,0.0,0.0,-0.0404,-0.0404,-0.0875,-0.1478,-0.1745,-0.1876,-0.1939,-0.2345,-0.1873,-0.1202,-0.1404,-0.1137,-0.0602,0.0134,0.0,-0.0067,0.1405,0.1741,0.2009,0.2948,0.3553,0.3892,0.3892,0.4295,0.4561,0.435,0.4885,0.5355,0.5219,0.5422,0.5557,0.0,0.5027,0.4824,0.4824,0.4225,0.3489,0.2618,0.2283,0.1746,0.0739,-0.0134,-0.1073,-0.2079,-0.3017,-0.3825,-0.43,-0.4431,-0.4431,-0.43,-0.43,-0.43,-0.43,-0.43,-0.43,-0.43,-0.43,-0.43,-0.43,-0.43,-0.43,-0.43,-0.43,-0.43,-0.43,-0.43,-0.43,-0.43,-0.43,-0.43,-0.43,0.928,0.0,0.0,0.0,0.971,0.0,0.0,0.0,0.6587,0.0,0.5035,0.3996,0.3226,0.2623,0.1983,0.1289,0.0707,0.0419,0.0555,0.0988,0.0,0.0,0.1604,0.2217,0.2086,0.0,0.0,0.4533,0.5211,0.5547,0.5523,0.5018,0.0,0.0,0.4495,0.0,0.208,0.2079,0.1276,0.0,-0.0067,-0.0471,-0.1076,-0.1143,-0.1143,-0.121,-0.1143,-0.1611,-0.2281,-0.2948,-0.3215,-0.3284,-0.3284,-0.3284,-0.3149,-0.2415,-0.2214,-0.2078,-0.1403,-0.1202,-0.0868,0.0601,0.1002,0.1403,0.2744,0.3082,0.3149,0.3149,0.4084,0.455,0.3147,0.448,0.5422,0.4215,0.4686,0.4957,0.4434,0.4367,0.4367,0.4367,0.4028,0.3491,0.282,0.3355,0.2818,0.0739,0.0803,0.0067,-0.2012,-0.2815,-0.3553,-0.43,-0.43,-0.43,-0.43,-0.43,-0.43,-0.43,-0.43,-0.43,-0.43,-0.43,-0.43,-0.43,-0.43,-0.43,-0.43,-0.43,-0.43,-0.43,-0.43,-0.43,-0.43,-0.43,-0.43,-0.43,0.883,0.8309,0.799,0.0,0.8554,0.862,0.0,0.0,0.0,0.0,0.3227,0.2364,0.1274,0.1008,0.0659,-0.0059,-0.0241,0.0,0.0,0.0,0.0,-0.1169,0.1216,0.201,0.0824,0.2138,0.3144,0.3798,0.3796,0.4142,0.4647,0.4515,0.0,0.0,0.0,0.0,0.2079,0.1544,0.0807,-0.0067,-0.0606,-0.0942,-0.1143,-0.1678,-0.2213,-0.2614,-0.2013,-0.228,-0.2948,-0.3149,-0.3553,-0.4028,-0.4028,-0.4028,-0.3961,-0.3761,-0.3761,-0.3556,-0.288,-0.2678,-0.2409,-0.154,-0.0469,0.0401,0.0736,0.1608,0.2414,0.2414,0.2614,0.2948,0.3082,0.3882,0.455,0.0,0.0,0.0,0.0,0.0,0.0,0.4891,0.3954,0.3487,0.3828,0.3088,0.2281,0.1744,0.0335,-0.1006,-0.2012,-0.2815,-0.3553,-0.43,-0.43,-0.43,-0.43,-0.43,-0.43,-0.43,-0.43,-0.43,-0.43,-0.43,-0.43,-0.43,-0.43,-0.43,-0.43,-0.43,-0.43,-0.43,-0.43,-0.43,-0.43,-0.43,-0.43,-0.43,0.7551,0.0,0.0,0.6824,0.0,0.0,0.6433,0.5538,0.0,0.2896,0.171,0.0,-0.006,-0.0427,-0.08,-0.1232,-0.1246,0.0,-0.1748,0.0,0.0,-0.1854,-0.0263,0.0199,-0.0719,0.0332,0.0,0.1941,0.2476,0.2947,0.3355,0.0,0.0,0.0,0.0,0.2347,0.1612,0.0604,-0.0134,-0.0539,-0.1276,-0.1745,0.0,-0.2414,-0.3017,-0.3623,-0.322,-0.3353,-0.3689,-0.3689,-0.3961,-0.43,-0.43,-0.43,-0.43,-0.43,-0.43,-0.4231,-0.3825,-0.3689,-0.3487,-0.275,-0.2009,-0.1205,-0.0602,0.0402,0.1206,0.1206,0.1676,0.2013,0.1812,0.2815,0.3885,0.0,0.0,0.0,0.0,0.0,0.0,0.0,0.409,0.3825,0.4233,0.2952,0.208,0.208,0.0738,-0.0604,-0.1607,-0.2345,-0.322,-0.43,-0.43,-0.43,-0.43,-0.43,-0.43,-0.43,-0.43,-0.43,-0.43,-0.43,-0.43,-0.43,-0.43,-0.43,-0.43,-0.43,-0.43,-0.43,-0.43,-0.43,-0.43,-0.43,-0.43,-0.43,0.6124,0.0,0.0,0.0,0.0,0.0,0.0,0.3667,0.0,0.202,0.0,-0.0867,-0.0929,-0.1551,-0.201,-0.2256,-0.2262,-0.222,-0.221,-0.2213,-0.2213,-0.2213,-0.2147,-0.2147,-0.2214,-0.1606,-0.0802,0.0,0.0,0.0,0.0,0.0,0.0,0.0,0.0,0.0,0.0,-0.0538,-0.1143,-0.1276,-0.1946,-0.2614,-0.3215,-0.3284,-0.3756,-0.43,-0.43,-0.43,-0.43,-0.43,-0.43,-0.43,-0.43,-0.43,-0.43,-0.43,-0.43,-0.43,-0.43,-0.43,-0.4164,-0.3487,-0.3284,-0.288,-0.1671,-0.0803,-0.0268,-0.0134,0.0804,0.1343,0.0337,0.1745,0.3284,0.0,0.0,0.0,0.0,0.0,0.0,0.0,0.0,0.0,0.4164,0.3019,0.2214,0.2214,0.1545,0.0469,-0.1002,-0.1741,-0.2751,-0.4233,-0.43,-0.43,-0.43,-0.43,-0.43,-0.43,-0.43,-0.43,-0.43,-0.43,-0.43,-0.43,-0.43,-0.43,-0.43,-0.43,-0.43,-0.43,-0.43,-0.43,-0.43,-0.43,-0.43,-0.43,0.6091,0.0,0.0,0.0,0.0,0.3357,0.1071,0.1051,0.1099,0.0307,-0.1004,-0.185,-0.185,-0.2019,-0.2317,-0.2926,-0.2994,0.0,0.0,0.0,0.0,-0.3828,-0.2751,-0.2414,-0.3015,-0.2278,-0.1273,0.0,0.0,0.0938,0.208,0.0,0.0,0.0,0.0,0.0,-0.0739,-0.1008,0.0,-0.2013,-0.2748,-0.3082,-0.3284,-0.3892,-0.4164,-0.43,-0.43,-0.43,-0.43,-0.43,-0.43,-0.43,-0.43,-0.43,-0.43,-0.43,-0.43,-0.43,-0.43,-0.43,-0.43,-0.4164,-0.3623,-0.3149,-0.288,-0.2278,-0.1543,-0.1007,-0.0739,-0.0269,0.074,0.1678,0.2347,0.2482,0.2482,0.0,0.0,0.0,0.0,0.0,0.0,0.2149,0.3284,0.3151,0.3015,0.3015,0.1812,0.0469,-0.1002,-0.1741,-0.2751,-0.4233,-0.43,-0.43,-0.43,-0.43,-0.43,-0.43,-0.43,-0.43,-0.43,-0.43,-0.43,-0.43,-0.43,-0.43,-0.43,-0.43,-0.43,-0.43,-0.43,-0.43,-0.43,-0.43,-0.43,-0.43,0.0,0.0,0.0,0.0,0.0,0.0,0.0,-0.0969,-0.1217,-0.1159,-0.2083,-0.2692,-0.2692,-0.2994,-0.3355,-0.3756,-0.3758,-0.3894,-0.43,-0.3961,-0.3961,-0.43,-0.3625,-0.3422,-0.3758,-0.3422,-0.2748,-0.1674,-0.1272,-0.0736,-0.0067,0.067,0.0,0.0,0.0,-0.0939,0.0,0.0,-0.2348,-0.275,-0.3487,-0.3758,-0.3825,-0.4164,-0.43,-0.43,-0.43,-0.43,-0.43,-0.43,-0.43,-0.43,-0.43,-0.43,-0.43,-0.43,-0.43,-0.43,-0.43,-0.43,-0.43,-0.43,-0.4028,-0.3758,-0.3758,-0.3218,-0.2547,-0.2281,-0.1879,-0.1275,-0.0268,0.0536,0.1138,0.1539,0.1877,0.208,0.0,0.0,0.208,0.0,0.0,0.0,0.0,0.2614,0.2815,0.3149,0.1879,0.0469,-0.1002,-0.1741,-0.2751,-0.4233,-0.43,-0.43,-0.43,-0.43,-0.43,-0.43,-0.43,-0.43,-0.43,-0.43,-0.43,-0.43,-0.43,-0.43,-0.43,-0.43,-0.43,-0.43,-0.43,-0.43,-0.43,-0.43,-0.43,-0.43,0.0,0.2105,0.0,0.0,0.0066,-0.0535,-0.1403,-0.2476,-0.3015,-0.2414,-0.295,-0.342,-0.342,-0.3961,-0.43,-0.43,-0.43,-0.43,-0.43,-0.43,-0.43,-0.43,-0.43,-0.43,-0.43,-0.43,-0.3961,-0.3215,-0.2609,-0.2275,-0.2079,-0.0938,0.0,0.0,0.0,0.0,-0.2348,-0.2948,-0.3284,-0.3487,-0.4095,-0.43,-0.43,-0.43,-0.43,-0.43,-0.43,-0.43,-0.43,-0.43,-0.43,-0.43,-0.43,-0.43,-0.43,-0.43,-0.43,-0.43,-0.43,-0.43,-0.43,-0.43,-0.43,-0.43,-0.43,-0.3825,-0.3418,-0.3215,-0.2614,-0.1944,-0.1404,-0.087,-0.0201,0.0535,0.0937,0.1341,0.1611,0.0,0.1476,0.0,0.0,0.0,0.1676,0.1811,0.2079,0.2477,0.1611,0.0469,-0.1002,-0.1741,-0.2751,-0.4233,-0.43,-0.43,-0.43,-0.43,-0.43,-0.43,-0.43,-0.43,-0.43,-0.43,-0.43,-0.43,-0.43,-0.43,-0.43,-0.43,-0.43,-0.43,-0.43,-0.43,-0.43,-0.43,-0.43,-0.43,0.0,0.0,0.0,0.0,0.0,-0.147,-0.2811,-0.3149,-0.3149,-0.3082,-0.3756,-0.4164,-0.4164,-0.4233,-0.43,-0.43,-0.43,-0.43,-0.43,-0.43,-0.43,-0.43,-0.43,-0.43,-0.43,-0.43,-0.3961,-0.3215,-0.3149,-0.2748,-0.208,-0.1945,-0.1945,-0.208,-0.208,-0.248,-0.3082,-0.3149,-0.3553,-0.4231,-0.43,-0.43,-0.43,-0.43,-0.43,-0.43,-0.43,-0.43,-0.43,-0.43,-0.43,-0.43,-0.43,-0.43,-0.43,-0.43,-0.43,-0.43,-0.43,-0.43,-0.43,-0.43,-0.43,-0.43,-0.43,-0.4233,-0.4028,-0.3351,-0.2614,-0.2079,-0.2012,-0.1945,-0.1677,-0.1007,-0.1342,-0.1275,0.0,0.0,-0.0538,0.0135,0.0,0.0,0.0201,0.0939,0.1074,0.0335,0.0805,0.0469,-0.1002,-0.1741,-0.2751,-0.4233,-0.43,-0.43,-0.43,-0.43,-0.43,-0.43,-0.43,-0.43,-0.43,-0.43,-0.43,-0.43,-0.43,-0.43,-0.43,-0.43,-0.43,-0.43,-0.43,-0.43,-0.43,-0.43,-0.43,-0.43,0.0,0.0,0.0,0.0,0.0,-0.2678,-0.3689,-0.3892,-0.3892,-0.3892,-0.4097,-0.43,-0.43,-0.43,-0.43,-0.43,-0.43,-0.43,-0.43,-0.43,-0.43,-0.43,-0.43,-0.43,-0.43,-0.43,-0.4164,-0.3892,-0.3892,-0.3692,-0.3422,-0.295,-0.2748,-0.2748,-0.322,-0.3558,-0.3892,-0.3892,-0.4028,-0.43,-0.43,-0.43,-0.43,-0.43,-0.43,-0.43,-0.43,-0.43,-0.43,-0.43,-0.43,-0.43,-0.43,-0.43,-0.43,-0.43,-0.43,-0.43,-0.43,-0.43,-0.43,-0.43,-0.43,-0.43,-0.43,-0.43,-0.4233,-0.3894,-0.3625,-0.3424,-0.3424,-0.3086,-0.2681,-0.2415,-0.2146,-0.1812,-0.1209,-0.1277,0.0,-0.101,0.0,-0.0875,-0.094,-0.0269,0.0,-0.047,0.047,0.047,-0.1006,-0.1744,-0.2549,-0.3623,-0.4097,-0.43,-0.43,-0.43,-0.43,-0.43,-0.43,-0.43,-0.43,-0.43,-0.43,-0.43,-0.43,-0.43,-0.43,-0.43,-0.43,-0.43,-0.43,-0.43,-0.43,-0.43,-0.4233,-0.4164,-0.1671,-0.2075,-0.2683,-0.342,-0.3553,-0.3689,-0.4233,-0.43,-0.43,-0.43,-0.43,-0.43,-0.43,-0.43,-0.43,-0.43,-0.43,-0.43,-0.43,-0.43,-0.43,-0.43,-0.43,-0.43,-0.43,-0.43,-0.43,-0.43,-0.43,-0.43,-0.43,-0.3758,-0.3553,-0.3553,-0.4097,-0.43,-0.43,-0.43,-0.43,-0.43,-0.43,-0.43,-0.43,-0.43,-0.43,-0.43,-0.43,-0.43,-0.43,-0.43,-0.43,-0.43,-0.43,-0.43,-0.43,-0.43,-0.43,-0.43,-0.43,-0.43,-0.43,-0.43,-0.43,-0.43,-0.43,-0.43,-0.43,-0.43,-0.43,-0.43,-0.43,-0.3892,-0.342,-0.3215,-0.2815,-0.2348,-0.1945,-0.1947,0.0,-0.1412,-0.1344,-0.1412,-0.168,-0.0941,-0.0739,-0.1344,-0.0336,-0.0201,-0.1276,-0.1812,-0.2482,-0.3418,-0.4028,-0.43,-0.4231,-0.43,-0.4233,-0.4164,-0.4233,-0.43,-0.4233,-0.43,-0.43,-0.43,-0.43,-0.43,-0.43,-0.43,-0.43,-0.43,-0.4233,-0.4231,-0.4231,-0.4164,-0.4095,-0.3961,-0.3015,-0.3149,-0.3418,-0.4164,-0.43,-0.43,-0.43,-0.43,-0.43,-0.43,-0.43,-0.43,-0.43,-0.43,-0.43,-0.43,-0.43,-0.43,-0.43,-0.43,-0.43,-0.43,-0.43,-0.43,-0.43,-0.43,-0.43,-0.43,-0.43,-0.43,-0.43,-0.43,-0.43,-0.43,-0.43,-0.43,-0.43,-0.43,-0.43,-0.43,-0.43,-0.43,-0.43,-0.43,-0.43,-0.43,-0.43,-0.43,-0.43,-0.43,-0.43,-0.43,-0.43,-0.43,-0.43,-0.43,-0.43,-0.43,-0.43,-0.43,-0.43,-0.43,-0.43,-0.43,-0.43,-0.43,-0.43,-0.43,-0.43,-0.43,-0.43,-0.43,-0.4028,-0.3351,-0.3623,-0.3489,-0.2079,-0.2348,-0.2216,-0.0941,-0.0605,-0.0873,-0.1811,-0.1074,-0.1074,-0.2552,-0.2016,-0.168,-0.1878,-0.2012,-0.2683,-0.3961,-0.4164,-0.4231,-0.4028,-0.4231,-0.4164,-0.3825,-0.4164,-0.4164,-0.4028,-0.4231,-0.43,-0.43,-0.43,-0.43,-0.43,-0.43,-0.43,-0.43,-0.4097,-0.4028,-0.3961,-0.3825,-0.3825,-0.3825,-0.3892,-0.3961,-0.4028,-0.4233,-0.43,-0.43,-0.43,-0.43,-0.43,-0.43,-0.43,-0.43,-0.43,-0.43,-0.43,-0.43,-0.43,-0.43,-0.43,-0.43,-0.43,-0.43,-0.43,-0.43,-0.43,-0.43,-0.43,-0.43,-0.43,-0.43,-0.43,-0.43,-0.43,-0.43,-0.43,-0.43,-0.43,-0.43,-0.43,-0.43,-0.43,-0.43,-0.43,-0.43,-0.43,-0.43,-0.43,-0.43,-0.43,-0.43,-0.43,-0.43,-0.43,-0.43,-0.43,-0.43,-0.43,-0.43,-0.43,-0.43,-0.43,-0.43,-0.43,-0.43,-0.43,-0.43,-0.43,-0.43,-0.43,-0.43,-0.43,-0.43,-0.4233,-0.3961,-0.3961,-0.3828,-0.3422,-0.3422,-0.3224,-0.2688,-0.2554,-0.2688,-0.2956,-0.2149,-0.1677,-0.1945,-0.1612,-0.1545,-0.1878,-0.2281,-0.2753,-0.3291,-0.3758,-0.3961,-0.3892,-0.3961,-0.3961,-0.3961,-0.4028,-0.4164,-0.4231,-0.43,-0.43,-0.43,-0.43,-0.43,-0.43,-0.4164,-0.4097,-0.4097,-0.3894,-0.3892,-0.3825,-0.3825,-0.3694,-0.3696,-0.43,-0.43,-0.43,-0.43,-0.4498,-0.4561,-0.4367,-0.4498,-0.4561,-0.43,-0.43,-0.43,-0.43,-0.43,-0.43,-0.43,-0.43,-0.43,-0.43,-0.43,-0.43,-0.43,-0.43,-0.43,-0.43,-0.43,-0.43,-0.43,-0.43,-0.43,-0.43,-0.43,-0.43,-0.43,-0.43,-0.43,-0.43,-0.43,-0.43,-0.43,-0.43,-0.43,-0.43,-0.43,-0.43,-0.43,-0.43,-0.43,-0.43,-0.43,-0.43,-0.43,-0.43,-0.43,-0.43,-0.43,-0.43,-0.43,-0.43,-0.43,-0.43,-0.43,-0.43,-0.43,-0.43,-0.43,-0.43,-0.4231,-0.4164,-0.4164,-0.4097,-0.4097,-0.4097,-0.4097,-0.3964,-0.383,-0.383,-0.3694,-0.3424,-0.3159,-0.3092,-0.3092,-0.3092,-0.2551,-0.2214,-0.2214,-0.2083,-0.215,-0.2484,-0.2619,-0.2822,-0.3159,-0.3558,-0.3758,-0.3694,-0.3825,-0.3828,-0.383,-0.3961,-0.4095,-0.4164,-0.4164,-0.4164,-0.4097,-0.4097,-0.4097,-0.4097,-0.3961,-0.3894,-0.3892,-0.3761,-0.3694,-0.3694,-0.3825,-0.3828,-0.383,-0.4434,-0.4434,-0.4434,-0.4434,-0.4954,-0.5147,-0.4564,-0.4954,-0.5147,-0.4498,-0.4434,-0.4434,-0.4367,-0.4367,-0.4367,-0.4367,-0.43,-0.43,-0.43,-0.43,-0.43,-0.43,-0.43,-0.43,-0.43,-0.43,-0.43,-0.43,-0.43,-0.43,-0.43,-0.43,-0.43,-0.43,-0.43,-0.43,-0.43,-0.43,-0.43,-0.43,-0.4364,-0.4367,-0.4367,-0.4367,-0.4367,-0.4367,-0.43,-0.43,-0.43,-0.43,-0.43,-0.43,-0.43,-0.43,-0.43,-0.43,-0.43,-0.43,-0.43,-0.43,-0.43,-0.43,-0.43,-0.43,-0.43,-0.43,-0.4233,-0.4028,-0.4028,-0.3961,-0.3825,-0.3825,-0.3825,-0.3825,-0.3627,-0.3498,-0.3498,-0.3362,-0.3023,-0.2551,-0.2484,-0.2484,-0.2484,-0.2484,-0.2619,-0.3092,-0.3159,-0.3295,-0.3429,-0.2956,-0.2956,-0.3498,-0.3694,-0.3694,-0.3498,-0.383,-0.383,-0.3498,-0.383,-0.4028,-0.3961,-0.3961,-0.3894,-0.3825,-0.3825,-0.3825,-0.3825,-0.3758,-0.3758,-0.3758,-0.3563,-0.3498,-0.3565,-0.3894,-0.4028,-0.4161,-0.5807,-0.5877,-0.5877,-0.5877,-0.6005,-0.6067,-0.5939,-0.6071,-0.6067,-0.5939,-0.5877,-0.5675,-0.5147,-0.508,-0.508,-0.508,-0.4628,-0.43,-0.43,-0.43,-0.43,-0.43,-0.43,-0.43,-0.43,-0.43,-0.43,-0.43,-0.43,-0.43,-0.43,-0.43,-0.43,-0.43,-0.43,-0.43,-0.43,-0.43,-0.43,-0.4367,-0.4888,-0.508,-0.508,-0.508,-0.508,-0.5017,-0.4495,-0.43,-0.43,-0.43,-0.43,-0.43,-0.43,-0.43,-0.43,-0.43,-0.43,-0.43,-0.43,-0.43,-0.43,-0.43,-0.43,-0.43,-0.43,-0.43,-0.4233,-0.4028,-0.4028,-0.3961,-0.3825,-0.3825,-0.3825,-0.3825,-0.3758,-0.3758,-0.3758,-0.3692,-0.3558,-0.3293,-0.3228,-0.3228,-0.3228,-0.3092,-0.2889,-0.2619,-0.2956,-0.3023,-0.2551,-0.2889,-0.3226,-0.3498,-0.3426,-0.3293,-0.3295,-0.3496,-0.3629,-0.3758,-0.3894,-0.3961,-0.3825,-0.3825,-0.3825,-0.3825,-0.3825,-0.3825,-0.3758,-0.3629,-0.3563,-0.3563,-0.3362,-0.3496,-0.3894,-0.3961,-0.4292,-0.4752,-0.633,-0.64,-0.64,-0.64,-0.6662,-0.6793,-0.6465,-0.6662,-0.6793,-0.6465,-0.64,-0.6264,-0.587,-0.5804,-0.5672,-0.5342,-0.4691,-0.4431,-0.4758,-0.4498,-0.43,-0.43,-0.43,-0.43,-0.43,-0.43,-0.43,-0.43,-0.43,-0.43,-0.43,-0.43,-0.4498,-0.4758,-0.4431,-0.4498,-0.4758,-0.4431,-0.43,-0.4367,-0.5017,-0.5147,-0.4888,-0.5213,-0.508,-0.4821,-0.4431,-0.43,-0.43,-0.43,-0.43,-0.43,-0.43,-0.43,-0.43,-0.43,-0.43,-0.43,-0.43,-0.43,-0.43,-0.43,-0.43,-0.43,-0.43,-0.43,-0.4233,-0.4028,-0.3961,-0.3828,-0.3694,-0.356,-0.356,-0.356,-0.356,-0.356,-0.356,-0.356,-0.3493,-0.3362,-0.3362,-0.3362,-0.3362,-0.3295,-0.3092,-0.282,-0.3025,-0.3025,-0.2686,-0.3023,-0.3228,-0.3362,-0.3228,-0.3226,-0.3226,-0.3429,-0.3629,-0.3825,-0.3892,-0.3828,-0.3694,-0.3694,-0.3627,-0.356,-0.356,-0.356,-0.3493,-0.3426,-0.3362,-0.3362,-0.3228,-0.356,-0.4028,-0.4289,-0.4686,-0.5282,-0.6728,-0.6728,-0.6728,-0.6728,-0.726,-0.7456,-0.6793,-0.7256,-0.7456,-0.6793,-0.6728,-0.6662,-0.6597,-0.6597,-0.6334,-0.5672,-0.502,-0.4758,-0.5147,-0.4691,-0.4431,-0.43,-0.43,-0.43,-0.43,-0.4431,-0.4431,-0.4431,-0.4561,-0.4628,-0.4628,-0.4498,-0.4755,-0.5276,-0.4628,-0.4628,-0.508,-0.4561,-0.43,-0.4367,-0.5017,-0.4951,-0.4498,-0.5084,-0.4951,-0.4431,-0.4367,-0.43,-0.43,-0.43,-0.43,-0.43,-0.43,-0.43,-0.43,-0.43,-0.43,-0.43,-0.43,-0.43,-0.43,-0.43,-0.43,-0.43,-0.43,-0.43,-0.4233,-0.4028,-0.3892,-0.3758,-0.3498,-0.3362,-0.3228,-0.3226,-0.3226,-0.3226,-0.3226,-0.3226,-0.3226,-0.3226,-0.3226,-0.3226,-0.3226,-0.3226,-0.3226,-0.3226,-0.3226,-0.3226,-0.3226,-0.3226,-0.3226,-0.3226,-0.3226,-0.3226,-0.3228,-0.3431,-0.3563,-0.3758,-0.3758,-0.3627,-0.3431,-0.3431,-0.3362,-0.3226,-0.3226,-0.3226,-0.3226,-0.3226,-0.3226,-0.3226,-0.3226,-0.356,-0.4159,-0.4616,-0.5213,-0.5815,-0.8052,-0.8182,-0.8182,-0.8182,-0.8247,-0.8317,-0.8182,-0.8247,-0.8317,-0.8182,-0.8182,-0.7987,-0.7391,-0.7326,-0.726,-0.719,-0.6465,-0.5613,-0.4498,-0.4885,-0.4888,-0.43,-0.43,-0.43,-0.43,-0.4888,-0.5147,-0.5147,-0.5741,-0.6071,-0.6071,-0.5411,-0.5213,-0.5276,-0.4628,-0.4367,-0.4431,-0.4367,-0.43,-0.4367,-0.5017,-0.5209,-0.5147,-0.5276,-0.5209,-0.508,-0.4498,-0.43,-0.43,-0.43,-0.43,-0.43,-0.43,-0.43,-0.43,-0.43,-0.43,-0.43,-0.43,-0.43,-0.43,-0.43,-0.43,-0.43,-0.43,-0.43,-0.4231,-0.3892,-0.3892,-0.3828,-0.3362,-0.3362,-0.3429,-0.3228,-0.3226,-0.3226,-0.3226,-0.3226,-0.3226,-0.3226,-0.3226,-0.3226,-0.3226,-0.3226,-0.3226,-0.3226,-0.3226,-0.3226,-0.3226,-0.3226,-0.3226,-0.3226,-0.3226,-0.3295,-0.3431,-0.3498,-0.3498,-0.3563,-0.3563,-0.3429,-0.3228,-0.3228,-0.3228,-0.3226,-0.3226,-0.3226,-0.3226,-0.3226,-0.3226,-0.3226,-0.3226,-0.3823,-0.4683,-0.4749,-0.5415,-0.6284,-0.8447,-0.8517,-0.8517,-0.8517,-0.8517,-0.8517,-0.8517,-0.8517,-0.8517,-0.8517,-0.8517,-0.8382,-0.8052,-0.8052,-0.7917,-0.7521,-0.7521,-0.6929,-0.5547,-0.5345,-0.5345,-0.5418,-0.502,-0.502,-0.5418,-0.502,-0.4951,-0.5276,-0.5672,-0.5804,-0.5804,-0.587,-0.6133,-0.6465,-0.5745,-0.5418,-0.5418,-0.502,-0.4821,-0.4888,-0.5147,-0.5276,-0.5276,-0.5276,-0.5084,-0.4691,-0.4431,-0.43,-0.43,-0.43,-0.43,-0.43,-0.43,-0.43,-0.43,-0.43,-0.43,-0.43,-0.43,-0.43,-0.43,-0.43,-0.43,-0.43,-0.43,-0.4233,-0.4097,-0.3961,-0.3828,-0.3629,-0.3429,-0.3362,-0.3295,-0.3226,-0.3226,-0.3226,-0.3226,-0.3226,-0.3226,-0.3226,-0.3226,-0.3226,-0.3226,-0.3226,-0.3226,-0.3226,-0.3226,-0.3226,-0.3226,-0.3226,-0.3226,-0.3226,-0.3226,-0.3228,-0.3362,-0.3362,-0.3362,-0.3362,-0.3362,-0.3295,-0.3226,-0.3226,-0.3226,-0.3226,-0.3226,-0.3226,-0.3226,-0.3226,-0.3226,-0.3228,-0.3493,-0.409,-0.4815,-0.5147,-0.5749,-0.642,-0.8517,-0.8517,-0.8517,-0.8517,-0.8517,-0.8517,-0.8517,-0.8517,-0.8517,-0.8517,-0.8517,-0.8517,-0.8517,-0.8517,-0.8317,-0.7787,-0.8187,-0.8052,-0.699,-0.6199,-0.5935,-0.6133,-0.5606,-0.5672,-0.6396,-0.5484,-0.5219,-0.5672,-0.587,-0.5935,-0.5935,-0.633,-0.6859,-0.7456,-0.6728,-0.64,-0.6334,-0.5606,-0.5276,-0.5276,-0.5147,-0.508,-0.508,-0.508,-0.4758,-0.43,-0.43,-0.43,-0.43,-0.43,-0.43,-0.43,-0.43,-0.43,-0.4233,-0.4233,-0.4231,-0.4231,-0.43,-0.43,-0.43,-0.43,-0.4233,-0.4233,-0.4233,-0.4097,-0.3961,-0.3894,-0.3696,-0.3563,-0.3431,-0.3362,-0.3228,-0.3226,-0.3226,-0.3226,-0.3226,-0.3226,-0.3226,-0.3226,-0.3226,-0.3226,-0.3226,-0.3226,-0.3226,-0.3226,-0.3226,-0.3226,-0.3226,-0.3226,-0.3226,-0.3226,-0.3226,-0.3226,-0.3226,-0.3226,-0.3226,-0.3226,-0.3226,-0.3226,-0.3226,-0.3226,-0.3226,-0.3226,-0.3226,-0.3226,-0.3226,-0.3226,-0.3226,-0.3226,-0.3627,-0.4223,-0.4882,-0.5282,-0.5815,-0.642,-0.8517,-0.8517,-0.8517,-0.8517,-0.8517,-0.8517,-0.8517,-0.8517,-0.8517,-0.8517,-0.8517,-0.8517,-0.8517,-0.8517,-0.8447,-0.8447,-0.8452,-0.8452,-0.8382,-0.7722,-0.6728,-0.5408,-0.5342,-0.5672,-0.6396,-0.6994,-0.7125,-0.6793,-0.7456,-0.7787,-0.7787,-0.719,-0.706,-0.7456,-0.6728,-0.64,-0.6334,-0.5606,-0.5276,-0.5276,-0.4625,-0.4367,-0.4367,-0.4367,-0.4367,-0.43,-0.43,-0.43,-0.43,-0.43,-0.43,-0.43,-0.43,-0.4164,-0.4028,-0.4028,-0.3961,-0.3892,-0.4233,-0.43,-0.43,-0.43,-0.4164,-0.4028,-0.4028,-0.3892,-0.3761,-0.3563,-0.3694,-0.3692,-0.3293,-0.3362,-0.3431,-0.3228,-0.3226,-0.3226,-0.3226,-0.3226,-0.3226,-0.3226,-0.3226,-0.3226,-0.3226,-0.3226,-0.3226,-0.3226,-0.3226,-0.3226,-0.3226,-0.3226,-0.3226,-0.3226,-0.3226,-0.3226,-0.3226,-0.3226,-0.3226,-0.3226,-0.3226,-0.3226,-0.3226,-0.3226,-0.3226,-0.3226,-0.3226,-0.3226,-0.3226,-0.3226,-0.3226,-0.3226,-0.3226,-0.3889,-0.4815,-0.4815,-0.5481,-0.642,-0.7852,-0.8052,-0.8182,-0.8182,-0.8382,-0.8517,-0.8517,-0.8517,-0.8517,-0.8517,-0.8517,-0.8517,-0.8517,-0.8517,-0.8517,-0.8517,-0.8517,-0.8517,-0.8517,-0.8052,-0.7456,-0.6728,-0.6396,-0.6662,-0.7391,-0.6605,-0.6346,-0.6609,-0.6872,-0.7134,-0.7321,-0.7521,-0.7787,-0.8117,-0.7852,-0.7456,-0.706,-0.6793,-0.6531,-0.6264,-0.5547,-0.5547,-0.5811,-0.496,-0.4761,-0.4821,-0.4295,-0.4164,-0.43,-0.4028,-0.4028,-0.4097,-0.4097,-0.4028,-0.3892,-0.3892,-0.3825,-0.3825,-0.3961,-0.3961,-0.3961,-0.3961,-0.3961,-0.3892,-0.3892,-0.3761,-0.3563,-0.3498,-0.3496,-0.336,-0.3228,-0.3295,-0.3295,-0.3226,-0.3226,-0.3226,-0.3226,-0.3226,-0.3226,-0.3226,-0.3226,-0.3226,-0.3226,-0.3226,-0.3226,-0.3226,-0.3226,-0.3226,-0.3226,-0.3226,-0.3226,-0.3226,-0.3226,-0.3226,-0.3226,-0.3226,-0.3226,-0.3226,-0.3226,-0.3226,-0.3226,-0.3226,-0.3226,-0.3226,-0.3226,-0.3226,-0.3226,-0.3226,-0.3226,-0.3293,-0.3956,-0.442,-0.4882,-0.555,-0.6083,-0.642,-0.7526,-0.7787,-0.7987,-0.7852,-0.8052,-0.8252,-0.8317,-0.8317,-0.8382,-0.8511,-0.8517,-0.8517,-0.8517,-0.8517,-0.8517,-0.8517,-0.8382,-0.8317,-0.8317,-0.8052,-0.7722,-0.7521,-0.6994,-0.7064,-0.7852,-0.6675,-0.6218,-0.6552,-0.6679,-0.6872,-0.7125,-0.7722,-0.8182,-0.8517,-0.8517,-0.8252,-0.7787,-0.7456,-0.7125,-0.6859,-0.6075,-0.6071,-0.6465,-0.5223,-0.4954,-0.5209,-0.4292,-0.4097,-0.4233,-0.4028,-0.4028,-0.4097,-0.4028,-0.3894,-0.3694,-0.3625,-0.3625,-0.3625,-0.3625,-0.3625,-0.3625,-0.3758,-0.3758,-0.3694,-0.3694,-0.3563,-0.3429,-0.3429,-0.3295,-0.3226,-0.3226,-0.3226,-0.3226,-0.3226,-0.3226,-0.3226,-0.3226,-0.3226,-0.3226,-0.3226,-0.3226,-0.3226,-0.3226,-0.3226,-0.3226,-0.3226,-0.3226,-0.3226,-0.3226,-0.3226,-0.3226,-0.3226,-0.3226,-0.3226,-0.3226,-0.3226,-0.3226,-0.3226,-0.3226,-0.3226,-0.3226,-0.3226,-0.3226,-0.3226,-0.3226,-0.3226,-0.3226,-0.3226,-0.3226,-0.3293,-0.422,-0.4686,-0.4882,-0.5815,-0.6284,-0.642,-0.7591,-0.7787,-0.7917,-0.7521,-0.7521,-0.7591,-0.7922,-0.7987,-0.8117,-0.8452,-0.8517,-0.8517,-0.8517,-0.8517,-0.8517,-0.8517,-0.8182,-0.7987,-0.7987,-0.7657,-0.7521,-0.7521,-0.6806,-0.6745,-0.7461,-0.7521,-0.7265,-0.6881,-0.7265,-0.7521,-0.7521,-0.7852,-0.8187,-0.8517,-0.8517,-0.8517,-0.8447,-0.7386,-0.6924,-0.6793,-0.5818,-0.562,-0.5807,-0.4954,-0.4888,-0.5209,-0.4292,-0.4097,-0.43,-0.43,-0.43,-0.4233,-0.4028,-0.3763,-0.3431,-0.3228,-0.3226,-0.3226,-0.3226,-0.3226,-0.3293,-0.3692,-0.3627,-0.3498,-0.3498,-0.3362,-0.3226,-0.3226,-0.3226,-0.3226,-0.3226,-0.3226,-0.3226,-0.3226,-0.3226,-0.3226,-0.3226,-0.3226,-0.3226,-0.3226,-0.3226,-0.3226,-0.3226,-0.3226,-0.3226,-0.3226,-0.3226,-0.3226,-0.3226,-0.3226,-0.3226,-0.3226,-0.3226,-0.3226,-0.3226,-0.3226,-0.3226,-0.3226,-0.3226,-0.3226,-0.3226,-0.3226,-0.3226,-0.3226,-0.3226,-0.3226,-0.3226,-0.3226,-0.3226,-0.3293,-0.3828,-0.4356,-0.4882,-0.5415,-0.5951,-0.642,-0.6745,-0.7007,-0.7209,-0.7073,-0.7526,-0.7852,-0.7987,-0.8182,-0.8382,-0.8517,-0.8317,-0.8117,-0.8117,-0.7917,-0.7787,-0.7787,-0.7722,-0.7526,-0.7269,-0.7138,-0.6942,-0.6745,-0.6745,-0.6881,-0.7073,-0.6876,-0.6679,-0.6552,-0.6679,-0.7003,-0.7521,-0.7335,-0.7531,-0.8117,-0.7917,-0.7787,-0.7787,-0.7456,-0.7129,-0.6876,-0.6548,-0.6482,-0.6478,-0.5352,-0.5153,-0.5348,-0.4095,-0.3763,-0.3894,-0.3627,-0.3694,-0.3894,-0.3696,-0.3563,-0.3431,-0.3228,-0.3226,-0.3226,-0.3226,-0.3226,-0.3228,-0.336,-0.3362,-0.3295,-0.3295,-0.3228,-0.3226,-0.3226,-0.3226,-0.3226,-0.3226,-0.3226,-0.3226,-0.3226,-0.3226,-0.3226,-0.3226,-0.3226,-0.3226,-0.3226,-0.3226,-0.3226,-0.3226,-0.3226,-0.3226,-0.3226,-0.3226,-0.3226,-0.3226,-0.3226,-0.3226,-0.3226,-0.3226,-0.3226,-0.3226,-0.3226,-0.3226,-0.3226,-0.3226,-0.3226,-0.3226,-0.3226,-0.3226,-0.3226,-0.3226,-0.3226,-0.3226,-0.3226,-0.3426,-0.3828,-0.4353,-0.4885,-0.5415,-0.5951,-0.6284,-0.642,-0.6416,-0.6683,-0.6881,-0.6749,-0.7073,-0.74,-0.7531,-0.7727,-0.7927,-0.8052,-0.7917,-0.7787,-0.7787,-0.7591,-0.7521,-0.7521,-0.733,-0.7068,-0.6749,-0.6683,-0.6618,-0.642,-0.6618,-0.6683,-0.6683,-0.6486,-0.642,-0.642,-0.6552,-0.6811,-0.7265,-0.7204,-0.74,-0.7787,-0.7587,-0.7521,-0.7521,-0.733,-0.7138,-0.6881,-0.6749,-0.6815,-0.6815,-0.5683,-0.555,-0.5752,-0.4558,-0.4092,-0.4092,-0.3825,-0.3694,-0.3627,-0.3565,-0.3431,-0.3362,-0.3228,-0.3226,-0.3226,-0.3226,-0.3226,-0.3226,-0.3226,-0.3226,-0.3226,-0.3226,-0.3226,-0.3226,-0.3226,-0.3226,-0.3226,-0.3226,-0.3226,-0.3226,-0.3226,-0.3226,-0.3226,-0.3226,-0.3226,-0.3226,-0.3226,-0.3226,-0.3226,-0.3226,-0.3226,-0.3226,-0.3226,-0.3226,-0.3226,-0.3226,-0.3226,-0.3226,-0.3226,-0.3226,-0.3226,-0.3226,-0.3226,-0.3226,-0.3226,-0.3226,-0.3226,-0.3226,-0.3226,-0.3226,-0.3226,-0.3226,-0.3226,-0.3226,-0.3426,-0.3694,-0.4095,-0.4818,-0.5282,-0.5683,-0.6218,-0.642,-0.642,-0.6486,-0.6618,-0.6749,-0.6486,-0.642,-0.6552,-0.6881,-0.6946,-0.7073,-0.7461,-0.7456,-0.7461,-0.7461,-0.7391,-0.7396,-0.7396,-0.7073,-0.6749,-0.642,-0.642,-0.642,-0.642,-0.642,-0.642,-0.642,-0.642,-0.642,-0.642,-0.6683,-0.6881,-0.6881,-0.7265,-0.7391,-0.7461,-0.7391,-0.7396,-0.7391,-0.7007,-0.6881,-0.6815,-0.6552,-0.6618,-0.6749,-0.5947,-0.5885,-0.6218,-0.5352,-0.4824,-0.4558,-0.4495,-0.4028,-0.3498,-0.3498,-0.3362,-0.3226,-0.3226,-0.3226,-0.3226,-0.3226,-0.3226,-0.3226,-0.3226,-0.3226,-0.3226,-0.3226,-0.3226,-0.3226,-0.3226,-0.3226,-0.3226,-0.3226,-0.3226,-0.3226,-0.3226,-0.3226,-0.3226,-0.3226,-0.3226,-0.3226,-0.3226,-0.3226,-0.3226,-0.3226,-0.3226,-0.3226,-0.3226,-0.3226,-0.3226,-0.3226,-0.3226,-0.3226,-0.3226,-0.3226,-0.3226,-0.3226,-0.3226,-0.3226,-0.3226,-0.3226,-0.3226,-0.3226,-0.3226,-0.3226,-0.3226,-0.3226,-0.3226,-0.3226,-0.3761,-0.4028,-0.4159,-0.5219,-0.5617,-0.5749,-0.6218,-0.642,-0.642,-0.642,-0.6486,-0.6482,-0.642,-0.6618,-0.6815,-0.6881,-0.7138,-0.7396,-0.7456,-0.7199,-0.7012,-0.7012,-0.6811,-0.6613,-0.6613,-0.6548,-0.6482,-0.642,-0.642,-0.642,-0.642,-0.642,-0.642,-0.642,-0.642,-0.642,-0.642,-0.6486,-0.6618,-0.6881,-0.6745,-0.6811,-0.7007,-0.6745,-0.6613,-0.6613,-0.6552,-0.6486,-0.6486,-0.6416,-0.642,-0.642,-0.5815,-0.5683,-0.5683,-0.5084,-0.4556,-0.4095,-0.383,-0.3496,-0.3295,-0.3431,-0.3362,-0.3226,-0.3226,-0.3226,-0.3226,-0.3226,-0.3226,-0.3226,-0.3226,-0.3226,-0.3226,-0.3226,-0.3226,-0.3226,-0.3226,-0.3226,-0.3226,-0.3226,-0.3226,-0.3226,-0.3226,-0.3226,-0.3226,-0.3226,-0.3226,-0.3226,-0.3226,-0.3226,-0.3226,-0.3226,-0.3226,-0.3226,-0.3226,-0.3226,-0.3226,-0.3226,-0.3226,-0.3226,-0.3226,-0.3226,-0.3226,-0.3226,-0.3226,-0.3226,-0.3226,-0.3226,-0.3226,-0.3226,-0.3226,-0.3226,-0.3226,-0.3226,-0.3226,-0.3226,-0.3761,-0.4225,-0.4683,-0.5348,-0.5885,-0.6218,-0.6354,-0.642,-0.642,-0.642,-0.642,-0.642,-0.642,-0.6552,-0.6683,-0.6683,-0.6811,-0.7003,-0.7003,-0.6811,-0.6683,-0.6683,-0.6486,-0.642,-0.642,-0.642,-0.642,-0.642,-0.642,-0.642,-0.642,-0.642,-0.642,-0.642,-0.642,-0.642,-0.642,-0.642,-0.6486,-0.6683,-0.6482,-0.6486,-0.6683,-0.6482,-0.642,-0.642,-0.642,-0.642,-0.642,-0.642,-0.642,-0.635,-0.6083,-0.5951,-0.5885,-0.5348,-0.4688,-0.3961,-0.3496,-0.3295,-0.3226,-0.3295,-0.3295,-0.3226,-0.3226,-0.3226,-0.3226,-0.3226,-0.3226,-0.3226,-0.3226,-0.3226,-0.3226,-0.3226,-0.3226,-0.3226,-0.3226,-0.3226,-0.3226,-0.3226,-0.3226,-0.3226,-0.3226,-0.3226,-0.3226,-0.3226,-0.3226,-0.3226,-0.3226,-0.3226,-0.3226,-0.3226,-0.3226,-0.3226,-0.3226,-0.3226,-0.3226,-0.3226,-0.3226,-0.3226,-0.3226,-0.3226,-0.3226,-0.3226,-0.3226,-0.3226,-0.3226,-0.3226,-0.3226,-0.3226,-0.3226,-0.3226,-0.3226,-0.3226,-0.336,-0.3627,-0.4159,-0.4686,-0.5216,-0.5749,-0.6152,-0.642,-0.642,-0.642,-0.642,-0.642,-0.642,-0.642,-0.642,-0.642,-0.642,-0.642,-0.642,-0.642,-0.642,-0.642,-0.642,-0.642,-0.642,-0.642,-0.642,-0.642,-0.642,-0.642,-0.642,-0.642,-0.642,-0.642,-0.642,-0.642,-0.642,-0.642,-0.642,-0.642,-0.642,-0.642,-0.642,-0.642,-0.642,-0.642,-0.642,-0.642,-0.642,-0.642,-0.642,-0.642,-0.642,-0.6424,-0.6453,-0.6465,-0.6398,-0.5955,-0.5161,-0.4084,-0.3476,-0.3273,-0.3271,-0.3254,-0.325,-0.3246,-0.323,-0.3226,-0.3226,-0.3226,-0.3226,-0.3226,-0.3226,-0.3226,-0.3226,-0.3226,-0.3226,-0.3226,-0.3226,-0.3226,-0.3226,-0.3226,-0.3226,-0.3226,-0.3226,-0.3226,-0.3226,-0.3226,-0.3226,-0.3226,-0.3226,-0.3226,-0.3226,-0.3226,-0.3226,-0.3226,-0.3226,-0.3293,-0.3293,-0.3226,-0.3293,-0.3293,-0.3226,-0.3226,-0.3226,-0.3226,-0.3226,-0.3226,-0.3226,-0.3293,-0.3293,-0.3226,-0.3226,-0.3226,-0.3226,-0.3226,-0.3493,-0.4028,-0.4553,-0.5147,-0.5683,-0.6218,-0.642,-0.642,-0.642,-0.642,-0.642,-0.642,-0.642,-0.642,-0.642,-0.642,-0.642,-0.642,-0.642,-0.642,-0.642,-0.642,-0.642,-0.642,-0.642,-0.642,-0.642,-0.642,-0.642,-0.642,-0.642,-0.642,-0.642,-0.642,-0.642,-0.642,-0.642,-0.642,-0.642,-0.642,-0.642,-0.642,-0.642,-0.642,-0.642,-0.642,-0.642,-0.642,-0.642,-0.642,-0.642,-0.642,-0.642,-0.6436,-0.6599,-0.6652,-0.6664,-0.6752,-0.6026,-0.4888,-0.3819,-0.3462,-0.345,-0.3371,-0.3344,-0.333,-0.325,-0.3226,-0.3226,-0.3226,-0.3226,-0.3226,-0.3226,-0.3226,-0.3226,-0.3226,-0.3226,-0.3226,-0.3226,-0.3226,-0.3226,-0.3226,-0.3226,-0.3226,-0.3226,-0.3226,-0.3226,-0.3226,-0.3226,-0.3226,-0.3226,-0.3226,-0.3226,-0.3226,-0.3226,-0.3226,-0.3226,-0.3627,-0.3694,-0.3226,-0.3627,-0.3694,-0.3226,-0.3226,-0.3226,-0.3226,-0.3226,-0.3226,-0.3226,-0.3694,-0.3627,-0.3226,-0.3226,-0.3226,-0.3226,-0.3226,-0.3493,-0.4028,-0.4553,-0.5147,-0.5683,-0.6218,-0.642,-0.642,-0.642,-0.642,-0.642,-0.642,-0.642,-0.642,-0.642,-0.642,-0.642,-0.642,-0.642,-0.642,-0.642,-0.642,-0.642,-0.642,-0.642,-0.642,-0.642,-0.642,-0.642,-0.642,-0.642,-0.642,-0.642,-0.642,-0.642,-0.642,-0.642,-0.642,-0.642,-0.642,-0.642,-0.642,-0.642,-0.642,-0.642,-0.642,-0.642,-0.642,-0.642,-0.6473,-0.6562,-0.657,-0.6631,-0.6725,-0.6806,-0.6834,-0.6838,-0.6631,-0.58,-0.4648,-0.4145,-0.3787,-0.3493,-0.3452,-0.344,-0.3422,-0.333,-0.3303,-0.3291,-0.324,-0.3226,-0.3226,-0.3226,-0.3226,-0.3226,-0.3226,-0.3226,-0.3226,-0.3226,-0.3226,-0.3226,-0.3226,-0.3226,-0.3226,-0.3226,-0.3226,-0.3226,-0.3226,-0.3226,-0.3226,-0.3226,-0.3226,-0.3226,-0.3226,-0.3226,-0.3226,-0.3226,-0.3426,-0.3426,-0.3226,-0.3426,-0.3426,-0.3226,-0.3226,-0.3226,-0.3226,-0.3226,-0.3226,-0.3226,-0.3426,-0.356,-0.3627,-0.3956,-0.4087,-0.4087,-0.4087,-0.442,-0.4888,-0.515,-0.5547,-0.6083,-0.6284,-0.642,-0.642,-0.642,-0.642,-0.6432]},{"header":{"parameterUnit":"m.s-1","parameterCategory":1,"la1":30.6,"la2":28.766,"lo1":-90.7593,"lo2":-88.6598,"dy":0.0162,"dx":0.0183,"nx":116,"ny":114,"refTime":"2023-09-21T18:00:00:Z","depth":0,"parameterNumber":3,"parameterNumberName":"V-component_of_WINDS"},"data":[0.0,0.0,0.0,0.0,0.0,0.0,0.0,0.0,0.0,0.0,0.0,0.0,0.0,0.0,0.0,0.0,0.0,0.0,0.0,0.0,0.0,0.0,0.0,0.0,0.0,0.0,0.0,0.0,0.0,0.0,0.0,0.0,0.0,0.0,0.0,0.0,0.0,0.0,0.0,0.0,0.0,0.0,0.0,0.0,0.0,0.0,0.0,0.0,0.0,0.0,0.0,0.0,0.0,0.0,0.0,0.0,0.0,0.0,0.0,0.0,0.0,0.0,0.0,0.0,0.0,0.0,0.0,0.0,0.0,0.0,0.0,0.0,0.0,0.0,0.0,0.0,0.0,0.0,0.0,0.0,0.0,0.0,0.0,0.0,0.0,0.0,0.0,0.0,0.0,0.0,0.0,0.0,0.0,0.0,0.0,0.0,0.0,0.0,0.0,0.0,0.0,0.0,0.0,0.0,0.0,0.0,0.0,0.0,0.0,0.0,0.0,0.0,0.0,0.0,0.0,0.0,0.0,0.0,0.0,0.0,0.0,0.0,0.0,0.0,0.0,0.0,0.0,0.0,0.0,0.0,0.0,0.0,0.0,0.0,0.0,0.0,0.0,0.0,0.0,0.0,0.0,0.0,0.0,0.0,0.0,0.0,0.0,0.0,0.0,0.0,0.0,0.0,0.0,0.0,0.0,0.0,0.0,0.0,0.0,0.0,0.0,0.0,0.0,0.0,0.0,0.0,0.0,0.0,0.0,0.0,0.0,0.0,0.0,0.0,0.0,0.0,0.0,0.0,0.0,0.0,0.0,0.0,0.0,0.0,0.0,0.0,0.0,0.0,0.0,0.0,0.0,0.0,0.0,0.0,0.0,0.0,0.0,0.0,0.0,0.0,0.0,0.0,0.0,0.0,0.0,0.0,0.0,0.0,0.0,0.0,0.0,0.0,0.0,0.0,0.0,0.0,0.0,0.0,0.0,0.0,0.0,0.0,0.0,0.0,0.0,0.0,0.0,0.0,0.0,0.0,0.0,0.0,0.0,0.0,0.0,0.0,0.0,0.0,0.0,0.0,0.0,0.0,0.0,0.0,0.0,0.0,0.0,0.0,0.0,0.0,0.0,0.0,0.0,0.0,0.0,0.0,0.0,0.0,0.0,0.0,0.0,0.0,0.0,0.0,0.0,0.0,0.0,0.0,0.0,0.0,0.0,0.0,0.0,0.0,0.0,0.0,0.0,0.0,0.0,0.0,0.0,0.0,0.0,0.0,0.0,0.0,0.0,0.0,0.0,0.0,0.0,0.0,0.0,0.0,0.0,0.0,0.0,0.0,0.0,0.0,0.0,0.0,0.0,0.0,0.0,0.0,0.0,0.0,0.0,0.0,0.0,0.0,0.0,0.0,0.0,0.0,0.0,0.0,0.0,0.0,0.0,0.0,0.0,0.0,0.0,0.0,0.0,0.0,0.0,0.0,0.0,0.0,0.0,0.0,0.0,0.0,0.0,0.0,0.0,0.0,0.0,0.0,0.0,0.0,0.0,0.0,0.0,0.0,0.0,0.0,0.0,0.0,0.0,0.0,0.0,0.0,0.0,0.0,0.0,0.0,0.0,0.0,0.0,0.0,0.0,0.0,0.0,0.0,0.0,0.0,0.0,0.0,0.0,0.0,0.0,0.0,0.0,0.0,0.0,0.0,0.0,0.0,0.0,0.0,0.0,0.0,0.0,0.0,0.0,0.0,0.0,0.0,0.0,0.0,0.0,0.0,0.0,0.0,0.0,0.0,0.0,0.0,0.0,0.0,0.0,0.0,0.0,0.0,0.0,0.0,0.0,0.0,0.0,0.0,0.0,0.0,0.0,0.0,0.0,0.0,0.0,0.0,0.0,0.0,0.0,0.0,0.0,0.0,0.0,0.0,0.0,0.0,0.0,0.0,0.0,0.0,0.0,0.0,0.0,0.0,0.0,0.0,0.0,0.0,0.0,0.0,0.0,0.0,0.0,0.0,0.0,0.0,0.0,0.0,0.0,0.0,0.0,0.0,0.0,0.0,0.0,0.0,0.0,0.0,0.0,0.0,0.0,0.0,0.0,0.0,0.0,0.0,0.0,0.0,0.0,0.0,0.0,0.0,0.0,0.0,0.0,0.0,0.0,0.0,0.0,0.0,0.0,0.0,0.0,0.0,0.0,0.0,0.0,0.0,0.0,0.0,0.0,0.0,0.0,0.0,0.0,0.0,0.0,0.0,0.0,0.0,0.0,0.0,0.0,0.0,0.0,0.0,0.0,0.0,0.0,0.0,0.0,0.0,0.0,0.0,0.0,0.0,0.0,0.0,0.0,0.0,0.0,0.0,0.0,0.0,0.0,0.0,0.0,0.0,0.0,0.0,0.0,0.0,0.0,0.0,0.0,0.0,0.0,0.0,0.0,0.0,0.0,0.0,0.0,0.0,0.0,0.0,0.0,0.0,0.0,0.0,0.0,0.0,0.0,0.0,0.0,0.0,0.0,0.0,0.0,0.0,0.0,0.0,0.0,0.0,0.0,0.0,0.0,0.0,0.0,0.0,0.0,0.0,0.0,0.0,0.0,0.0,0.0,0.0,0.0,0.0,0.0,0.0,0.0,0.0,0.0,0.0,0.0,0.0,0.0,0.0,0.0,0.0,0.0,0.0,0.0,0.0,0.0,0.0,0.0,0.0,0.0,0.0,0.0,0.0,0.0,0.0,0.0,0.0,0.0,0.0,0.0,0.0,0.0,0.0,0.0,0.0,0.0,0.0,0.0,0.0,0.0,0.0,0.0,0.0,0.0,0.0,0.0,0.0,0.0,0.0,0.0,0.0,0.0,0.0,0.0,0.0,0.0,0.0,0.0,0.0,0.0,0.0,0.0,0.0,0.0,0.0,0.0,0.0,0.0,0.0,0.0,0.0,0.0,0.0,0.0,0.0,0.0,0.0,0.0,0.0,0.0,0.0,0.0,0.0,0.0,0.0,0.0,0.0,0.0,0.0,0.0,0.0,0.0,0.0,0.0,0.0,0.0,0.0,0.0,0.0,0.0,0.0,0.0,0.0,0.0,0.0,0.0,0.0,0.0,0.0,0.0,0.0,0.0,0.0,0.0,0.0,0.0,0.0,0.0,0.0,0.0,0.0,0.0,0.0,0.0,0.0,0.0,0.0,0.0,0.0,0.0,0.0,0.0,0.0,0.0,0.0,0.0,0.0,0.0,0.0,0.0,0.0,0.0,0.0,0.0,0.0,0.0,0.0,0.0,0.0,0.0,0.0,0.0,0.0,0.0,0.0,0.0,0.0,0.0,0.0,0.0,0.0,0.0,0.0,0.0,0.0,0.0,0.0,0.0,0.0,0.0,0.0,0.0,0.0,0.0,0.0,0.0,0.0,0.0,0.0,0.0,0.0,0.0,0.0,0.0,0.0,0.0,0.0,0.0,0.0,0.0,0.0,0.0,0.0,0.0,0.0,0.0,0.0,0.0,0.0,0.0,0.0,0.0,0.0,0.0,0.0,0.0,0.0,0.0,0.0,0.0,0.0,0.0,0.0,0.0,0.0,0.0,0.0,0.0,0.0,0.0,0.0,0.0,0.0,0.0,0.0,0.0,0.0,0.0,0.0,0.0,0.0,0.0,0.0,0.0,0.0,0.0,0.0,0.0,0.0,0.0,0.0,0.0,0.0,0.0,0.0,0.0,0.0,0.0,0.0,0.0,0.0,0.0,0.0,0.0,0.0,0.0,0.0,0.0,0.0,0.0,0.0,0.0,0.0,0.0,0.0,0.0,0.0,0.0,0.0,0.0,0.0,0.0,0.0,0.0,0.0,0.0,0.0,0.0,0.0,0.0,0.0,0.0,0.0,0.0,0.0,0.0,0.0,0.0,0.0,0.0,0.0,0.0,0.0,0.0,0.0,0.0,0.0,0.0,0.0,0.0,0.0,0.0,0.0,0.0,0.0,0.0,0.0,0.0,0.0,0.0,0.0,0.0,0.0,0.0,0.0,0.0,0.0,0.0,0.0,0.0,0.0,0.0,0.0,0.0,0.0,0.0,0.0,0.0,0.0,0.0,0.0,0.0,0.0,0.0,0.0,0.0,0.0,0.0,0.0,0.0,0.0,0.0,0.0,0.0,0.0,0.0,0.0,0.0,0.0,0.0,0.0,0.0,0.0,0.0,0.0,0.0,0.0,0.0,0.0,0.0,0.0,0.0,0.0,0.0,0.0,0.0,0.0,0.0,0.0,0.0,0.0,0.0,0.0,0.0,0.0,0.0,0.0,0.0,0.0,0.0,0.0,0.0,0.0,0.0,0.0,0.0,0.0,0.0,0.0,0.0,0.0,0.0,0.0,0.0,0.0,0.0,0.0,0.0,0.0,0.0,0.0,0.0,0.0,0.0,0.0,0.0,0.0,0.0,0.0,0.0,0.0,0.0,0.0,0.0,0.0,0.0,0.0,0.0,0.0,0.0,0.0,0.0,0.0,0.0,0.0,0.0,0.0,0.0,0.0,0.0,0.0,0.0,0.0,0.0,0.0,0.0,0.0,0.0,0.0,0.0,0.0,0.0,0.0,0.0,0.0,0.0,0.0,0.0,0.0,0.0,0.0,0.0,0.0,0.0,0.0,0.0,0.0,0.0,0.0,0.0,0.0,0.0,0.0,0.0,0.0,0.0,0.0,0.0,0.0,0.0,0.0,0.0,0.0,0.0,0.0,0.0,0.0,0.0,0.0,0.0,0.0,0.0,0.0,0.0,0.0,0.0,0.0,0.0,0.0,0.0,0.0,0.0,0.0,0.0,0.0,0.0,0.0,0.0,0.0,0.0,0.0,0.0,0.0,0.0,0.0,0.0,0.0,0.0,0.0,0.0,0.0,0.0,0.0,0.0,0.0,0.0,0.0,0.0,0.0,0.0,0.0,0.0,0.0,0.0,0.0,0.0,0.0,0.0,0.0,0.0,0.0,0.0,0.0,0.0,0.0,0.0,0.0,0.0,0.0,0.0,0.0,0.0,0.0,0.0,0.0,0.0,0.0,0.0,0.0,0.0,0.0,0.0,0.0,0.0,0.0,0.0,0.0,0.0,0.0,0.0,0.0,0.0,0.0,0.0,0.0,0.0,0.0,0.0,0.0,0.0,0.0,0.0,0.0,0.0,0.0,0.0,0.0,0.0,0.0,0.0,0.0,0.0,0.0,0.0,0.0,0.0,0.0,0.0,0.0,0.0,0.0,0.0,0.0,0.0,0.0,0.0,0.0,0.0,0.0,0.0,0.0,0.0,0.0,0.0,0.0,0.0,0.0,0.0,0.0,0.0,0.0,0.0,0.0,0.0,0.0,0.0,0.0,0.0,0.0,0.0,0.0,0.0,0.0,0.0,0.0,0.0,0.0,0.0,0.0,0.0,0.0,0.0,0.0,0.0,0.0,0.0,0.0,0.0,0.0,0.0,0.0,0.0,0.0,0.0,0.0,0.0,0.0,0.0,0.0,0.0,0.0,0.0,0.0,0.0,0.0,0.0,0.0,0.0,0.0,0.0,0.0,0.0,0.0,0.0,0.0,0.0,0.0,0.0,0.0,0.0,0.0,0.0,0.0,0.0,0.0,0.0,0.0,0.0,0.0,0.0,0.0,0.0,0.0,0.0,0.0,0.0,0.0,0.0,0.0,0.0,0.0,0.0,0.0,0.0,0.0,0.0,0.0,0.0,0.0,0.0,0.0,0.0,0.0,0.0,0.0,0.0,0.0,0.0,0.0,0.0,0.0,0.0,0.0,0.0,0.0,0.0,0.0,0.0,0.0,0.0,0.0,0.0,0.0,0.0,0.0,0.0,0.0,0.0,0.0,0.0,0.0,0.0,0.0,0.0,0.0,0.0,0.0,0.0,0.0,0.0,0.0,0.0,0.0,0.0,0.0,0.0,0.0,0.0,0.0,0.0,0.0,0.0,0.0,0.0,0.0,0.0,0.0,0.0,0.0,0.0,0.0,0.0,0.0,0.0,0.0,0.0,0.0,0.0,0.0,0.0,0.0,0.0,0.0,0.0,0.0,0.0,0.0,0.0,0.0,0.0,0.0,0.0,0.0,0.0,0.0,0.0,0.0,0.0,0.0,0.0,0.0,0.0,0.0,1.9035,1.8286,0.0,0.0,0.0,0.0,0.0,0.0,0.0,0.0,0.0,0.0,0.0,0.0,0.0,0.0,0.0,0.0,0.0,0.0,0.0,0.0,0.0,0.0,0.0,0.0,0.0,0.0,0.0,0.0,0.0,0.0,0.0,0.0,0.0,0.0,0.0,0.0,0.0,0.0,0.0,0.0,0.0,0.0,0.0,0.0,0.0,0.0,0.0,0.0,0.0,0.0,0.0,0.0,0.0,0.0,0.0,0.0,0.0,0.0,0.0,0.0,0.0,0.0,0.0,0.0,0.0,0.0,0.0,0.0,0.0,0.0,0.0,0.0,0.0,0.0,0.0,0.0,0.0,0.0,0.0,0.0,0.0,0.0,0.0,0.0,0.0,0.0,0.0,0.0,0.0,0.0,0.0,0.0,0.0,0.0,0.0,0.0,0.0,0.0,0.0,0.0,0.0,0.0,0.0,0.0,0.0,0.0,0.0,0.0,0.0,0.0,0.0,0.0,0.0,0.0,2.0698,2.0048,0.0,0.0,0.0,0.0,0.0,0.0,0.0,0.0,0.0,0.0,0.0,0.0,0.0,0.0,0.0,0.0,0.0,0.0,0.0,0.0,0.0,0.0,0.0,0.0,-0.6501,-0.5293,-0.5518,0.0,0.0,0.0,0.0,0.0,0.0,0.0,0.0,0.0,0.0,0.0,0.0,0.0,0.0,0.0,0.0,0.0,0.0,0.0,0.0,0.0,0.0,0.0,0.0,0.0,0.0,0.0,0.0,0.0,0.0,0.0,0.0,0.0,0.0,0.0,0.0,0.0,0.0,0.0,0.0,0.0,0.0,0.0,0.0,0.0,0.0,0.0,0.0,0.0,0.0,0.0,0.0,0.0,0.0,0.0,0.0,0.0,0.0,0.0,0.0,0.0,0.0,0.0,0.0,0.0,0.0,0.0,0.0,0.0,0.0,0.0,0.0,0.0,0.0,0.0,0.0,0.0,0.0,0.0,0.0,0.0,2.2521,2.2793,2.2808,2.3173,2.3682,2.4244,2.2222,2.1759,2.2394,2.1354,0.0,0.0,0.0,0.0,0.0,0.0,0.0,0.0,0.0,0.0,0.0,0.0,0.0,0.0,0.0,0.0,0.0,0.0,0.0,0.0,0.0,-0.7021,-0.6634,-0.5696,-0.5653,-0.5486,0.0,0.0,0.0,0.0,0.0,0.0,0.0,0.0,0.0,0.0,0.0,0.0,0.8117,0.9111,0.9552,0.9562,1.0712,0.0,0.0,0.0,0.0,0.0,0.0,0.0,0.0,0.0,0.0,0.0,0.0,0.0,0.0,0.0,0.0,0.0,0.0,0.0,0.0,0.0,0.0,0.0,0.0,0.0,0.0,0.0,0.0,0.0,0.0,0.0,0.0,0.0,0.0,0.0,0.0,0.0,0.0,0.0,0.0,0.0,0.0,0.0,1.6834,1.7911,0.0,0.0,0.0,0.0,0.0,0.0,0.0,0.0,0.0,0.0,0.0,0.0,0.0,2.3136,2.3723,2.3906,2.4225,2.471,2.465,2.4821,2.5148,2.4792,2.5057,2.5737,2.5359,0.0,2.4335,2.3971,0.0,0.0,0.0,0.0,0.0,0.0,0.0,0.0,0.0,0.0,0.0,0.0,0.0,0.0,0.0,0.0,0.0,0.0,0.0,0.0,0.0,-0.6689,-0.6301,-0.569,-0.5873,-0.5701,-0.5096,0.0,0.0,0.0,0.0,0.0,0.0,0.0,0.0,0.0,0.2254,0.4197,0.8239,0.9173,0.9606,0.9604,1.0015,1.115,1.2763,1.3243,0.0,0.0,0.0,0.0,0.0,0.0,0.0,0.0,0.0,0.0,0.0,0.0,0.0,0.0,0.0,0.0,0.0,0.0,0.0,0.0,0.0,0.0,0.0,0.0,0.0,0.0,0.0,0.0,0.0,0.0,0.0,0.0,0.0,0.0,0.0,0.0,0.0,0.0,0.0,1.8684,1.9431,1.9754,2.0044,2.0323,0.0,0.0,0.0,0.0,0.0,0.0,0.0,0.0,0.0,2.3878,2.4356,2.482,2.5265,2.5737,2.6075,2.6282,2.6301,2.6421,2.6606,2.637,2.6421,2.6723,2.6707,2.6455,2.6073,2.5599,2.5308,2.5153,0.0,0.0,0.0,0.0,2.4736,2.4936,0.0,0.0,0.0,0.0,0.0,0.0,0.0,0.0,0.0,0.0,0.0,0.0,-0.6738,-0.6398,-0.6044,-0.561,-0.5793,-0.5658,-0.513,-0.5265,0.0,0.0,0.0,0.0,0.0,0.0,0.0,0.2701,0.2223,0.344,0.6128,0.6415,0.6918,0.7635,0.8368,1.0238,1.2859,1.308,1.4089,0.0,0.0,0.0,0.0,0.0,0.0,0.0,0.0,0.0,0.0,0.0,0.0,0.0,0.0,0.0,0.0,0.0,0.0,0.0,0.0,0.0,0.0,0.0,0.0,0.0,0.0,0.0,0.0,0.0,0.0,0.0,0.0,0.0,0.0,0.0,0.0,0.0,0.0,2.0986,2.1505,2.1401,2.1889,2.2069,0.0,0.0,0.0,0.0,0.0,0.0,2.4657,2.4948,2.5179,2.5249,2.579,2.6144,2.6229,2.6954,2.7307,2.7244,2.7365,2.747,2.753,2.7396,2.7348,2.7439,2.7512,2.7512,2.7391,2.6721,2.6472,2.6421,2.6027,2.5834,2.5799,2.5799,2.5905,2.6132,0.0,0.0,0.0,0.0,0.0,0.0,0.0,0.0,0.0,0.0,0.0,-0.6738,-0.627,-0.6227,-0.6007,-0.5534,-0.5241,-0.5029,-0.4985,-0.4675,-0.4412,-0.4292,0.0,0.0,0.0,0.0,0.0,0.2701,0.0953,0.0223,0.0387,-0.0991,-0.0273,0.2212,0.501,0.9177,1.3974,1.345,1.4541,1.6659,0.0,0.0,0.0,0.0,0.0,0.0,0.0,0.0,0.0,0.0,0.0,0.0,0.0,0.0,0.0,0.0,0.0,0.0,0.0,0.0,0.0,0.0,0.0,0.0,0.0,0.0,0.0,0.0,0.0,0.0,0.0,0.0,0.0,0.0,0.0,0.0,0.0,0.0,0.0,2.2717,2.339,0.0,0.0,0.0,0.0,2.4214,2.4511,2.4792,2.495,2.5529,2.5766,2.5684,2.6624,2.6954,2.659,2.7303,2.7654,2.7672,2.756,2.766,2.7954,2.756,2.756,2.788,2.8058,2.8156,2.8103,2.7422,2.6937,2.6606,2.6573,2.6455,2.6353,2.6353,2.6706,2.7224,0.0,0.0,0.0,0.0,0.0,0.0,0.0,0.0,0.0,-0.7314,-0.6803,-0.6428,-0.6221,-0.5922,-0.5793,-0.5922,-0.5841,-0.5669,-0.5448,-0.5313,-0.5106,-0.4785,0.0,0.0,0.0,0.0,0.0336,0.0954,0.0336,0.0,-0.0112,-0.4748,-0.5349,-0.237,0.2044,0.6213,0.9984,1.2263,1.4028,1.5404,1.572,1.5832,0.0,0.0,0.0,0.0,0.0,0.0,0.0,0.0,0.0,0.0,0.0,0.0,0.0,0.0,0.0,0.0,0.0,0.0,0.0,0.0,0.0,0.0,0.0,0.0,0.0,0.0,0.0,0.0,0.0,0.0,0.0,0.0,0.0,0.0,0.0,0.0,0.0,2.4017,2.482,0.0,2.4689,2.5073,2.5319,2.5259,2.573,2.6071,2.6142,2.6505,2.6724,2.6841,2.7115,2.7272,2.7303,2.7736,2.7954,2.7964,2.8093,2.8308,2.8633,2.8255,2.8342,2.8724,2.8634,2.8664,2.8759,2.8517,2.8218,2.7903,2.7903,2.7752,2.756,2.756,2.7695,2.7893,0.0,0.0,0.0,0.0,0.0,0.0,0.0,0.0,-0.7592,-0.7049,-0.6416,-0.6002,-0.5964,-0.5663,-0.562,-0.5922,-0.5841,-0.5663,-0.527,-0.5231,-0.5067,-0.4648,-0.4289,0.0,0.0,-0.2006,-0.084,0.0,0.0,-0.0507,-0.154,-0.5389,-0.6361,-0.4562,0.1593,0.5471,0.7717,1.3397,1.5372,1.48,1.6077,1.6527,1.6275,0.0,0.0,0.0,0.0,0.0,0.0,0.0,0.0,0.0,0.0,0.0,0.0,0.0,0.0,0.0,0.0,0.0,0.0,0.0,0.0,0.0,0.0,0.0,0.0,0.0,0.0,0.0,0.0,0.0,0.0,0.0,0.0,0.0,0.0,0.0,2.5443,2.4879,2.577,2.6127,2.5368,2.5822,2.6106,2.6016,2.6607,2.6971,2.6971,2.7258,2.7474,2.7612,2.7607,2.7678,2.7811,2.812,2.846,2.8799,2.8982,2.9369,2.9931,2.9703,2.9774,3.0068,2.9898,2.9921,3.003,2.9813,2.951,2.9179,2.8881,2.8639,2.8422,2.8422,2.8388,2.8318,0.0,0.0,0.0,0.0,0.0,0.0,0.0,-0.7509,-0.6495,-0.6904,-0.6118,-0.5534,-0.5491,-0.5491,-0.5491,-0.5491,-0.5198,-0.4854,-0.4456,-0.4376,-0.4204,-0.3935,0.0,0.0,-0.3587,-0.3542,-0.2411,-0.0056,-0.0,-0.1427,-0.4142,-0.3182,-0.347,-0.4357,0.334,0.6907,0.7672,1.6801,1.8451,1.5151,1.7068,1.7449,1.6786,0.0,0.0,0.0,0.0,0.0,0.0,0.0,0.0,0.0,0.0,0.0,0.0,0.0,0.0,0.0,0.0,0.0,0.0,0.0,0.0,0.0,0.0,0.0,0.0,0.0,0.0,0.0,0.0,0.0,0.0,0.0,0.0,0.0,2.4576,2.5341,2.577,2.5314,2.625,2.674,2.6266,2.6539,2.6657,2.647,2.7002,2.7317,2.7317,2.7765,2.7982,2.7926,2.8129,2.8183,2.8165,2.851,2.9204,3.0244,3.0239,3.0803,3.1793,3.1793,3.1793,3.1837,3.1883,3.1925,3.189,3.1221,3.0764,3.0379,2.9462,2.902,2.8906,2.8906,2.8737,2.8492,0.0,0.0,0.0,0.0,0.0,0.0,0.0,-0.8185,-0.7516,-0.6622,-0.6246,-0.583,-0.5198,-0.5159,-0.5159,-0.5159,-0.5072,-0.4946,-0.4828,-0.4828,-0.4768,0.0,0.0,0.0,-0.3567,-0.2754,-0.1959,-0.1287,-0.0402,-0.0409,-0.1237,-0.3005,-0.4344,-0.5034,-0.1545,0.2375,0.6816,1.2464,1.6355,1.8667,1.9018,1.8423,1.7216,0.0,0.0,0.0,0.0,0.0,0.0,0.0,0.0,0.0,0.0,0.0,0.0,0.0,0.0,0.0,0.0,0.0,0.0,0.0,0.0,0.0,0.0,0.0,0.0,0.0,0.0,0.0,0.0,0.0,0.0,0.0,0.0,2.6145,2.555,2.6472,2.7031,2.6573,2.7206,2.7607,2.7322,2.7495,2.766,2.777,2.789,2.7946,2.7946,2.8112,2.8236,2.8344,2.8573,2.9038,2.9692,2.9945,3.0487,3.137,3.1347,3.1592,3.2006,3.1859,3.2008,3.2367,3.226,3.233,3.2546,3.2352,3.2225,3.1944,2.9958,2.9034,2.8827,2.8827,2.8797,2.8718,0.0,0.0,0.0,0.0,0.0,0.0,0.0,-0.7426,-0.679,-0.5899,-0.5647,-0.527,-0.4631,-0.4675,-0.4675,-0.4543,-0.4679,-0.4635,-0.4428,-0.3836,-0.3179,0.0,0.0,-0.0611,-0.1906,-0.2364,-0.2087,-0.1029,-0.035,0.0,-0.0061,-0.2523,-0.4134,-0.4987,-0.1693,0.2989,0.8756,1.356,1.8356,2.2694,2.2128,2.0775,1.8949,1.8274,1.7393,1.6561,1.6095,1.5942,1.5862,1.5336,0.0,0.0,0.0,0.0,0.0,0.0,0.0,0.0,0.0,0.0,0.0,0.0,0.0,0.0,0.0,0.0,0.0,0.0,0.0,0.0,0.0,0.0,0.0,0.0,2.6606,2.7,2.6804,2.7374,2.7725,2.7452,2.7954,2.8273,2.8049,2.8121,2.8237,2.8264,2.8428,2.8504,2.8504,2.8717,2.8879,2.8906,2.941,2.9943,3.0457,3.0918,3.1603,3.247,3.2514,3.2824,3.3355,3.3299,3.3446,3.3716,3.3549,3.3579,3.3719,3.334,3.3177,3.2962,0.0,0.0,0.0,0.0,2.891,2.891,0.0,0.0,0.0,0.0,0.0,0.0,0.0,-0.6033,-0.5303,-0.512,-0.4744,-0.432,-0.3924,-0.4144,-0.4236,-0.3924,-0.4192,-0.4104,-0.3534,-0.1917,0.0,0.123,0.0441,0.0153,0.0477,-0.1814,-0.1994,0.0,0.0,0.0,-0.0064,-0.1674,-0.327,-0.4556,0.012,0.5668,1.1921,1.6714,2.1774,2.6507,2.5618,2.3715,2.1301,2.0795,1.9886,1.8766,1.8065,1.771,1.7394,1.6818,0.0,0.0,0.0,0.0,0.0,0.0,0.0,0.0,0.0,0.0,0.0,0.0,0.0,0.0,0.0,0.0,0.0,0.0,0.0,0.0,0.0,0.0,0.0,0.0,2.7313,2.784,2.8037,2.812,2.812,2.8093,2.8507,2.8755,2.8609,2.8585,2.8535,2.841,2.8819,2.9064,2.9001,0.0,0.0,0.0,0.0,3.0904,3.0902,3.1727,3.2633,3.3601,3.3677,3.4184,3.5122,3.5235,3.5315,3.533,3.5197,3.5146,3.5105,3.4257,3.3862,3.3582,3.1879,3.1134,3.0864,2.9651,2.9181,2.9181,0.0,0.0,0.0,0.0,0.0,0.0,0.0,-0.5996,-0.569,-0.5163,-0.5034,-0.4696,-0.3968,-0.3968,-0.3972,-0.3924,-0.3968,-0.3615,-0.2773,-0.0045,0.1969,0.3055,0.2918,0.225,0.1056,0.0877,0.0568,0.0176,0.006,0.0,-0.0,-0.0329,-0.2203,-0.5186,-0.4007,0.2139,1.1647,1.2493,1.8595,2.7649,2.719,2.5143,2.2209,2.1042,2.0206,1.9555,1.8858,1.8662,1.8682,1.8198,1.8177,1.8271,1.8025,0.0,0.0,0.0,0.0,0.0,0.0,0.0,0.0,0.0,0.0,0.0,0.0,0.0,0.0,0.0,0.0,0.0,0.0,0.0,0.0,2.712,2.7875,2.8438,2.8492,2.8761,2.8902,2.8658,2.8749,2.8879,2.9116,2.9159,2.9262,2.9551,2.957,2.9551,2.9551,2.9732,2.9782,2.9668,3.082,3.1694,3.2225,3.3259,3.4155,3.492,3.4955,0.0,3.5251,3.53,3.536,3.5457,3.5424,3.5483,3.5577,3.5391,3.4796,3.3834,3.1943,3.1184,3.1056,3.0105,2.9751,2.9751,0.0,0.0,0.0,0.0,0.0,0.0,0.0,-0.5351,-0.5,-0.4648,-0.4696,-0.4482,-0.3832,-0.3968,-0.41,-0.3924,-0.3571,-0.2948,-0.1919,0.0,0.148,0.2305,0.3158,0.3216,0.2394,0.2609,0.2179,0.114,0.1836,0.1388,-0.0,-0.0733,-0.2147,-0.4097,-0.4767,-0.0425,0.7506,1.0252,1.6312,2.4257,2.658,2.6619,2.5103,2.3342,2.2159,2.1352,2.0543,2.0258,2.0237,1.9688,1.9591,1.9687,1.9346,1.9398,1.963,0.0,0.0,0.0,0.0,0.0,0.0,0.0,0.0,0.0,0.0,0.0,0.0,0.0,0.0,2.615,0.0,0.0,2.7365,2.7895,2.835,2.8713,2.9001,2.9153,2.9214,2.9064,2.9148,2.9319,2.9619,2.9653,2.9734,2.9932,2.998,2.9999,2.9952,3.0106,3.0177,3.0101,3.1102,3.2011,3.2788,3.3705,3.4557,3.5364,3.5388,3.5402,3.5402,3.5476,3.5546,3.5609,3.5609,3.566,3.576,3.5708,3.5388,3.4754,3.3314,3.211,3.1086,3.0219,2.9899,2.9902,0.0,0.0,0.0,0.0,0.0,0.0,0.0,0.0,-0.414,-0.4001,-0.414,-0.4052,-0.3565,-0.3921,-0.4056,-0.3744,-0.322,-0.2415,0.0,-0.0448,0.0279,0.0855,0.2174,0.3039,0.3363,0.354,0.3237,0.2441,0.3699,0.2985,0.0333,-0.1607,-0.2751,-0.3149,-0.4489,-0.2005,0.3471,0.9129,1.4857,2.0542,2.5575,2.7688,2.7536,2.5577,2.4173,2.3081,2.2021,2.1509,2.1308,2.0861,2.0778,2.0811,2.0563,2.0613,2.0745,2.0827,2.0917,0.0,0.0,0.0,0.0,0.0,0.0,0.0,0.0,0.0,2.6218,2.6587,2.6633,2.6808,2.7449,2.7613,2.7895,2.8682,2.8808,2.8975,2.9458,2.9495,2.9495,2.9494,2.9605,2.9777,3.0048,3.0075,3.0087,3.0098,3.0269,3.0337,3.0279,3.0414,3.0507,3.0552,3.1322,3.2097,3.2793,3.3735,3.4538,3.5239,3.5454,3.5554,3.5554,3.5657,3.5718,3.5725,3.5725,3.5742,3.5805,3.5728,3.5725,3.5632,3.4691,3.321,3.1484,3.0585,3.0141,3.0011,0.0,0.0,0.0,0.0,0.0,0.0,0.0,0.0,0.0,-0.3653,-0.3697,-0.3565,-0.3258,-0.3303,-0.3258,-0.3123,-0.2998,-0.2464,-0.1432,-0.0494,0.0047,0.01,0.0302,0.1094,0.251,0.3254,0.3599,0.3597,0.4088,0.3458,0.1809,-0.2193,-0.425,-0.4573,-0.4909,-0.2011,0.3474,0.8912,1.4678,2.0577,2.5893,2.7593,2.6819,2.5728,2.4781,2.3838,2.2015,2.1166,2.0991,2.1103,2.1103,2.1055,2.0878,2.1181,2.1535,2.1444,0.0,2.3358,2.3555,2.4644,2.5878,2.6472,2.6488,2.6638,0.0,0.0,2.7425,2.8084,2.8314,2.8431,2.8517,2.8753,2.8956,2.9126,2.9379,2.9587,2.9587,2.9882,3.0107,3.0189,3.0054,3.0048,3.0326,3.0366,3.0403,3.0529,3.0549,3.0555,3.0561,3.0516,3.0553,3.0661,3.1519,3.201,3.2101,3.373,3.455,3.46,3.5398,3.5762,3.5762,3.5718,3.5733,3.578,3.578,3.5786,3.5791,3.5786,3.578,3.5696,3.4824,3.3854,3.2851,3.1865,3.1006,3.0352,0.0,0.0,0.0,0.0,0.0,0.0,0.0,0.0,0.0,0.0,-0.3697,-0.37,-0.3524,-0.37,-0.37,-0.3388,-0.2719,0.0,-0.0758,-0.0268,0.0,0.0,0.0,0.0303,0.0975,0.2722,0.3635,0.3701,0.3825,0.3299,0.2071,-0.0571,-0.2815,-0.4556,-0.489,-0.3758,-0.1136,0.7186,1.2186,1.5184,2.3442,2.6637,2.6301,2.4927,2.4233,2.3842,2.2383,2.1721,0.0,0.0,2.1615,2.1612,2.1568,2.182,2.2119,2.2046,2.271,0.0,2.4805,2.5775,0.0,0.0,2.7447,2.7549,2.8228,2.8183,2.8192,2.8688,2.8879,2.8934,2.8964,2.9114,2.9297,0.0,2.9606,2.9744,3.0042,3.0171,3.0323,3.0505,3.0467,3.0451,3.0564,3.0569,3.0607,3.0717,3.0715,3.0714,3.0712,3.0687,3.0704,3.0767,3.1109,3.1535,3.2004,3.2728,3.3555,3.4501,3.4876,3.5304,3.5791,3.5762,3.5786,3.5853,3.5896,3.5923,3.5901,3.5864,3.5869,3.5763,3.4859,3.3991,3.3147,3.2126,3.1212,3.0458,0.0,0.0,0.0,0.0,0.0,0.0,0.0,0.0,0.0,0.0,0.0,-0.3612,-0.3568,-0.3877,-0.3917,-0.3473,0.0,0.0,0.0,0.0536,0.0638,0.0332,0.0286,0.0443,0.0786,0.2521,0.3449,0.3618,0.3517,0.2823,0.1501,0.0183,-0.1845,-0.4329,-0.4668,-0.4895,-0.4306,0.6056,1.048,1.139,2.1738,2.5889,2.5718,2.4443,2.3833,2.3571,2.2541,2.2073,0.0,0.0,2.2027,2.2169,2.2096,2.233,2.2652,2.2599,2.3216,2.4253,2.5999,0.0,0.0,2.802,2.8219,2.8299,2.8569,2.8612,2.8669,2.8971,2.9082,2.9151,2.9321,2.9399,2.9533,2.9869,2.9829,2.995,3.0359,3.0414,3.0477,3.0677,3.0713,3.0717,3.0683,3.0664,3.0683,3.0732,3.0726,3.0729,3.0738,3.0743,3.0732,3.0737,3.0741,3.1015,3.1601,3.187,3.2721,3.4161,3.4413,3.4976,3.5832,3.5818,3.5827,3.5855,3.5917,3.5953,3.5975,3.5917,3.5773,3.5506,3.4807,3.3892,3.2883,3.2128,3.1284,3.0511,0.0,0.0,0.0,0.0,0.0,0.0,0.0,0.0,0.0,0.0,0.0,0.0,0.0,0.0,-0.3473,-0.3034,0.0,0.0,0.0,0.2016,0.2288,0.1141,0.1047,0.1603,0.2787,0.2893,0.3147,0.361,0.3266,0.2076,0.0056,-0.1134,-0.2582,-0.42,-0.4369,-0.4549,-0.4057,0.6329,1.0671,1.1593,2.1995,2.5733,2.5005,2.47,2.4022,2.3112,2.2231,0.0,0.0,0.0,2.2198,2.2544,2.2358,2.2747,0.0,2.3119,2.4138,2.568,2.7302,0.0,2.8065,2.8551,2.8737,2.881,2.8947,2.8881,2.8839,2.906,2.9086,2.9214,2.9606,2.9734,2.9874,3.0142,3.0247,3.0325,3.0472,3.0605,3.0682,3.0694,3.076,3.0753,0.0,3.0604,3.0603,3.0614,3.0555,3.0535,3.0591,3.061,3.0605,3.0607,3.0607,3.0626,3.0646,3.1546,3.2445,3.3347,3.4183,3.5049,3.5899,3.5825,3.5767,3.572,3.5778,3.5845,3.5896,3.5896,3.5442,3.4726,3.463,3.3581,3.2115,3.203,3.1397,3.0579,0.0,0.0,0.0,0.0,0.0,0.0,0.0,0.0,0.0,0.0,0.0,0.0,0.0,0.0,0.0,0.0,0.0,0.0,0.0,0.1428,0.2481,0.206,0.1879,0.2009,0.2432,0.2922,0.3104,0.2926,0.2478,0.2196,0.1989,-0.1392,-0.315,-0.3533,-0.377,-0.4027,-0.3687,0.5382,0.7772,0.651,1.8312,2.171,1.9907,2.1821,2.2825,2.3098,0.0,0.0,0.0,2.2304,2.2588,2.2927,2.2859,2.3126,2.3602,2.4608,2.5258,2.6072,2.7852,0.0,2.8551,2.8887,2.9021,2.9067,2.9112,2.9178,2.9249,2.9474,2.9456,2.9514,2.9713,2.9864,2.9958,3.0052,3.0273,3.0452,3.0548,3.0603,3.0648,3.0697,3.0684,0.0,0.0,0.0,0.0,3.0468,3.049,3.0518,3.0524,3.0571,3.0595,3.0593,3.0593,3.062,3.0665,3.0983,3.1868,3.3322,3.4725,3.5549,3.5836,3.5821,3.5783,3.5778,3.5802,3.5802,3.5797,3.5256,3.4872,3.4526,3.3378,3.2597,3.2022,3.1429,3.0997,3.0716,0.0,0.0,0.0,0.0,0.0,0.0,0.0,0.0,0.0,0.0,0.0,0.0,0.0,0.0,0.0,0.0,0.0,-0.1698,0.0,0.0,0.2014,0.229,0.2382,0.2411,0.2288,0.2755,0.2934,0.2812,0.25,0.2124,0.1682,-0.075,-0.2216,-0.2725,-0.3257,-0.3652,-0.355,0.1784,0.441,0.577,1.5545,1.9132,1.8809,2.0766,2.189,0.0,0.0,0.0,2.2297,2.2439,2.2764,2.3095,2.3095,2.3289,2.3766,2.5088,2.566,2.6211,2.7864,2.8554,2.8874,2.9112,2.9267,2.9373,2.9312,2.9395,2.957,2.9769,2.9662,2.9626,2.9883,2.9905,2.9942,3.0125,3.0359,3.0563,3.0628,3.0641,3.0639,3.0655,3.0638,3.0482,0.0,0.0,0.0,3.0164,3.0164,3.019,3.0213,3.0256,3.029,3.0355,3.0346,3.0365,3.0404,3.0714,3.1796,3.3611,3.5067,3.5762,3.576,3.576,3.576,3.576,3.576,3.5599,3.5295,3.4769,3.4209,3.3568,3.2502,3.1908,3.1562,3.1026,3.0819,3.0781,0.0,0.0,0.0,0.0,0.0,0.0,0.0,0.0,0.0,0.0,0.0,0.0,0.0,0.0,0.0,0.0,0.0,0.0,0.0,0.0,0.0,0.1794,0.2471,0.27,0.2426,0.2471,0.2744,0.3155,0.3225,0.1991,-0.0475,0.0539,0.005,-0.1749,-0.2657,-0.3207,-0.3529,-0.3756,0.0737,0.8518,1.3827,1.7927,2.0888,2.1239,0.0,0.0,0.0,0.0,0.0,0.0,2.279,2.3126,2.3126,2.3336,2.3705,2.4694,2.5451,2.6231,2.7519,2.8452,2.9092,2.9286,2.9532,2.9678,2.9551,2.9625,2.9765,2.9962,2.9697,2.9589,0.0,0.0,2.987,3.0321,3.0519,3.062,3.0693,3.0698,3.0641,0.0,0.0,0.0,0.0,0.0,0.0,2.9672,0.0,2.9626,2.9696,2.9713,2.9767,2.9902,2.9902,2.9902,2.9902,3.082,3.2229,3.4109,3.5185,3.5698,3.5704,3.5704,3.5704,3.5704,3.5646,3.5204,3.4497,3.44,3.3433,3.2002,3.2029,3.1532,3.0811,3.0879,3.0868,3.081,0.0,0.0,0.0,0.0,0.0,0.0,0.0,0.0,0.0,0.0,0.0,0.0,0.0,0.0,0.0,0.0,0.0,0.0,0.0,0.0,0.0,0.0,0.0,0.0,0.0,0.0,0.0,0.2744,0.2903,0.2735,0.2191,0.0872,0.0,-0.0461,-0.0692,-0.1244,-0.2058,-0.3208,-0.2446,0.0652,0.0,1.5785,1.2664,0.0,0.0,0.0,0.0,0.0,0.0,0.0,0.0,0.0,0.0,2.3831,2.4169,2.5729,2.6364,2.6945,2.8612,2.9326,2.9606,2.9662,2.975,2.9834,2.9801,2.9902,3.0015,3.006,2.995,2.9883,0.0,0.0,0.0,3.0229,3.0489,0.0,3.0702,3.0523,0.0,3.0308,0.0,2.9916,2.9531,2.9476,0.0,0.0,2.9494,2.968,2.9696,2.9748,2.9817,2.9902,2.9902,2.9883,2.9896,3.1565,3.2943,3.4049,3.5114,3.5657,3.5704,3.5704,3.5704,3.5665,3.5007,3.4622,3.4313,3.3016,3.2275,3.1871,3.1276,3.0941,3.0806,3.0879,3.0896,3.0873,0.0,0.0,0.0,0.0,0.0,0.0,0.0,0.0,0.0,0.0,0.0,0.0,0.0,0.0,0.0,0.0,0.0,0.0,0.0,0.0,0.0,0.0,0.0,0.0,0.0,0.0,0.0,0.0,0.0,0.0,0.2744,0.1521,0.0581,0.0045,0.1344,0.0895,-0.0845,-0.1551,0.0,0.0,0.0,0.0,0.0,0.0,0.0,0.0,0.0,0.0,0.0,0.0,0.0,2.3671,2.3917,2.4057,2.4375,2.5782,0.0,2.7266,2.8757,2.9531,2.9931,2.9851,2.9981,3.0104,3.0011,3.0099,3.0221,3.0221,3.0114,0.0,3.0071,3.0132,0.0,0.0,0.0,0.0,3.0628,3.0467,3.0257,0.0,2.9832,0.0,2.9119,2.8986,2.88,0.0,2.9082,2.9395,2.9436,2.9475,2.9532,2.9626,2.9964,3.0528,3.1299,3.246,3.3522,3.4439,3.5128,3.5526,3.5673,3.5684,3.5704,3.5646,3.4775,3.4176,3.3712,3.2358,3.1612,3.1285,3.0821,3.0706,3.0768,3.0834,3.0879,3.0956,0.0,0.0,0.0,0.0,0.0,0.0,0.0,0.0,0.0,0.0,0.0,0.0,0.0,0.0,0.0,0.0,0.0,0.0,0.0,0.0,0.0,0.0,0.0,0.0,0.0,0.0,0.0,0.0,0.0,0.0,0.0,0.0,0.0,0.0,0.0,0.0,0.0,0.0,0.0,0.0,0.0,0.0,0.0,0.0,0.0,0.0,0.0,0.0,0.0,0.0,2.3206,2.3878,2.4037,2.4174,2.4484,2.5622,2.6524,2.7425,2.8605,2.9518,3.0109,2.9996,3.0174,3.0355,3.0182,3.0267,3.0398,3.0398,0.0,3.0109,3.0266,3.0263,3.0317,3.0463,0.0,3.0641,3.0514,3.0405,3.0175,2.9725,2.9457,2.9107,2.864,2.854,2.8414,2.82,2.8837,2.925,2.9209,2.9324,2.9466,2.9595,3.0302,3.1422,3.3059,3.3285,3.3903,3.4944,3.5178,3.5386,3.5558,3.5643,3.5684,3.5646,3.4659,3.3808,3.3024,3.2048,3.1236,3.0607,3.0603,3.0633,3.0706,3.0768,3.0911,3.1172,0.0,0.0,0.0,0.0,0.0,0.0,0.0,0.0,0.0,0.0,0.1357,0.066,0.0,0.0,0.0,0.0,0.0,0.0,0.0,0.0,0.0,0.0,0.0,0.0,0.0,0.2506,0.2868,0.3049,0.2865,0.0,0.0,0.0,0.0,0.0,0.0,0.0,0.0,0.0,0.0,0.0,0.0,0.0,0.0,0.0,0.0,0.0,0.0,0.0,0.0,0.0,2.3342,2.4173,2.4495,2.4594,2.4951,2.6754,2.7388,2.7885,2.964,3.0227,3.0343,3.033,3.0355,3.0398,3.0355,3.0367,0.0,0.0,3.0323,3.0299,3.0234,3.0389,3.0521,3.05,3.0619,3.0622,3.0435,3.0163,2.975,0.0,2.8883,2.8431,2.7642,2.8525,0.0,0.0,2.9825,3.0321,2.9787,3.0589,3.112,3.1191,3.139,3.1974,3.2943,3.32,3.3763,3.4675,3.5047,3.5273,3.5372,3.5546,3.5643,3.5607,3.4021,3.3237,3.2966,3.1449,3.0733,3.0607,3.0603,3.06,3.0626,3.0742,3.1253,3.1923,0.0,0.0,0.0,0.0,0.0,0.0,0.0,0.2517,0.262,0.262,0.2214,0.1762,0.1323,0.0988,0.0,0.0,0.0,0.0,0.0,0.0,0.0,0.0,0.0,0.0,0.0,0.2682,0.3087,0.3935,0.0,0.2907,0.2996,0.2506,0.1927,0.1344,0.2876,0.3194,0.2467,0.0,0.0,0.6512,0.9199,1.0821,0.0,0.0,0.0,0.0,0.0,0.0,0.0,0.0,2.3283,2.4524,2.4657,2.4808,2.5264,2.7065,2.7668,2.813,2.9925,3.0398,3.0398,3.0398,3.0398,3.0398,3.0398,0.0,0.0,0.0,3.0383,3.0394,3.0215,3.0442,0.0,3.0472,3.0527,3.0531,3.0326,2.9971,0.0,2.8864,2.8388,2.783,0.0,2.7944,2.8444,2.8247,3.0158,3.1034,3.045,3.1107,3.1704,3.2176,3.2225,3.2686,3.3525,3.3655,3.402,3.4588,3.4813,3.4994,3.5239,3.5372,3.5514,3.5546,3.3837,3.3102,3.2966,3.1294,3.0598,3.0607,3.0593,3.0595,3.0665,3.1226,3.1708,3.2231,0.0,0.0,0.0,0.0,0.0,0.0,0.0,0.2712,0.2746,0.2746,0.2779,0.2679,0.2314,0.1758,0.1474,0.0,0.0,0.0,0.0,0.0,0.0,0.0,0.0,0.0,0.0,0.0,0.0,0.464,0.3744,0.0,0.0,0.0,0.0,0.0,0.2642,0.3322,0.3595,0.2099,0.4702,0.0,0.0,0.6633,0.0,0.0,0.0,0.0,0.0,0.0,0.0,0.0,2.3225,2.479,2.4779,2.4929,2.5401,2.6924,2.7486,2.7948,2.9467,2.9987,3.0121,3.0121,3.0275,3.0398,3.0379,3.039,0.0,0.0,3.0419,3.0462,3.029,0.0,3.0631,0.0,3.0484,3.0432,3.0151,2.982,2.9324,0.0,2.795,0.0,2.6723,2.7521,0.0,2.794,3.0344,3.1757,3.1529,3.1821,3.2286,3.2912,3.3006,3.3352,3.4055,3.4099,3.4245,3.4517,3.4567,3.4774,3.5083,3.5209,3.5359,3.5437,3.3804,3.3091,3.2966,3.1294,3.0598,3.0598,3.0598,3.0604,3.0722,3.1646,3.2159,3.2575,0.0,0.0,0.0,0.0,0.0,0.0,0.0,0.2808,0.2871,0.2871,0.3039,0.3072,0.2838,0.2562,0.2435,0.0,0.0,0.0,0.0,0.0,0.0,0.0,0.0,0.0,0.0,0.0,0.0,0.4412,0.4276,0.0,0.0,0.0,0.0,0.0,0.0,0.2948,0.1784,0.3322,0.0,0.0,0.0,0.0,0.0,0.0,0.0,0.0,0.0,0.0,0.0,0.0,0.0,2.4818,2.4942,2.5043,2.5298,2.6312,0.0,0.0,2.7871,2.8659,2.9217,2.9217,2.9813,3.0379,3.0316,0.0,3.0471,3.0398,3.0492,3.0582,3.0494,3.0598,3.0648,3.0505,0.0,3.0475,2.9918,2.9704,2.921,2.8111,0.0,0.0,2.6066,2.7743,2.8749,2.8381,3.0783,3.2606,3.3488,3.3587,3.3605,3.3697,3.3758,3.3873,3.3998,3.4074,3.4148,3.4245,3.4476,3.4628,3.4675,3.503,3.5247,3.523,3.3754,3.3109,3.2974,3.1284,3.0598,3.0598,3.0598,3.0607,3.0711,3.1649,3.2493,3.3329,0.0,0.0,0.0,0.0,0.0,0.0,0.3626,0.3298,0.3167,0.3355,0.327,0.3175,0.3072,0.3,0.2905,0.2828,0.0,0.0,0.0,0.0,0.0,0.0,0.0,0.0,0.0,0.0,0.4626,0.5198,0.4626,0.0,0.0,0.0,0.0,0.0,0.0,0.3649,0.3591,0.0,0.0,0.0,0.0,0.0,0.0,0.0,0.0,0.0,0.0,0.0,0.0,0.0,0.0,0.0,2.5044,2.5122,0.0,0.0,2.654,2.6732,2.7648,2.8486,2.9105,2.9148,2.9825,3.0451,3.0439,0.0,3.0539,3.0419,3.0535,3.0633,3.0524,3.0607,3.0657,3.0526,3.0437,0.0,3.0023,0.0,2.9015,2.8182,2.739,0.0,0.0,0.0,2.9117,3.0623,3.1708,3.2553,3.3184,3.339,3.3494,3.3494,3.3734,3.3868,3.3947,3.3998,3.4074,3.4148,3.4293,3.4431,3.4607,3.4888,3.51,3.517,3.3679,3.3048,3.2963,3.1245,3.0559,3.0598,3.0598,3.0598,3.078,3.2233,3.3,3.3501,0.0,0.0,0.0,0.0,0.0,0.4274,0.4172,0.3691,0.3401,0.3681,0.3401,0.3208,0.3208,0.3208,0.318,0.3075,0.3008,0.0,0.0,0.0,0.0,0.0,0.0,0.0,0.0,0.0,0.5067,0.568,0.5067,0.467,0.0,0.0,0.418,0.3615,0.0,0.0,0.0,0.0,0.0,0.0,0.0,0.0,0.0,0.0,0.0,0.0,0.0,0.0,0.0,0.0,0.0,0.0,0.0,0.0,0.0,0.0,2.6196,2.632,2.6956,2.793,2.8772,2.882,2.9669,3.052,0.0,0.0,3.0571,3.0482,3.0607,3.0691,3.058,3.0637,3.0657,3.0545,3.0385,3.0206,3.0023,2.9533,2.896,0.0,0.0,2.6589,0.0,2.7337,2.9299,3.1951,3.2249,3.2403,3.2651,3.3063,3.3291,3.3291,3.3625,3.3815,3.3895,3.3947,3.3998,3.4074,3.4148,3.4269,3.4473,3.4694,3.4925,3.5024,3.355,3.2972,3.2941,3.1214,3.054,3.0579,3.0579,3.0578,3.0817,3.2622,3.3293,3.359,0.0,0.0,0.0,0.0,0.0,0.0,0.414,0.3821,0.363,0.3681,0.3401,0.3208,0.3208,0.3208,0.3285,0.3468,0.3422,0.0,0.0,0.0,0.0,0.0,0.0,0.0,0.0,0.0,0.568,0.568,0.568,0.5453,0.5009,0.5313,0.4966,0.4132,0.0,0.0,0.0,0.0,0.0,0.0,0.0,0.0,0.0,0.0,0.0,0.0,0.0,0.0,0.0,0.0,0.0,0.0,0.0,0.0,0.0,0.0,2.5351,2.5399,2.534,2.6631,2.7995,2.7931,2.9215,3.051,0.0,3.0602,3.0599,3.0605,3.0701,3.0786,3.0702,3.0701,3.0684,3.0614,3.0485,0.0,2.9867,2.9569,0.0,0.0,0.0,2.6916,2.6266,2.74,2.9202,3.1625,3.2126,0.0,3.2318,3.2939,3.3291,3.3291,3.3625,3.3815,3.3895,3.3895,3.3921,3.3998,3.4074,3.4099,3.4124,3.445,3.471,3.4832,3.3347,3.2818,3.2875,3.1182,3.0499,3.0509,3.0509,3.055,3.0812,3.2558,3.3293,3.3651,0.0,0.0,0.0,0.0,0.0,0.0,0.0,0.4318,0.4183,0.4237,0.3918,0.3597,0.3434,0.3274,0.3416,0.3929,0.3643,0.0,0.0,0.0,0.0,0.0,0.0,0.0,0.0,0.0,0.5755,0.568,0.5933,0.5707,0.5005,0.591,0.5867,0.5096,0.5604,0.6081,0.0,0.0,0.0,0.0,0.0,0.0,0.0,0.0,0.0,0.0,0.0,0.0,0.0,0.0,0.0,0.0,0.0,0.0,0.0,2.5361,0.0,0.0,2.5292,2.6553,2.7874,2.7884,2.9253,3.0565,3.0602,3.0658,3.0714,3.0689,3.0696,3.0723,3.07,3.0652,3.0591,3.0482,3.0315,0.0,0.0,0.0,0.0,2.8322,2.7009,2.6612,0.0,0.0,2.912,3.1476,3.2002,3.2249,3.2283,3.2939,3.3291,3.3291,3.3625,3.3807,3.3815,3.3868,3.3895,3.3921,3.3998,3.4049,3.4124,3.4386,3.4668,3.4851,3.3922,3.3322,3.2902,3.1777,3.1009,3.0499,3.0499,3.05,3.0675,3.1916,3.2756,3.3429,0.0,0.0,0.0,0.0,0.0,0.0,0.0,0.464,0.4441,0.4398,0.4048,0.3761,0.3602,0.3565,0.3774,0.4351,0.4201,0.0,0.0,0.0,0.0,0.0,0.0,0.0,0.0,0.5922,0.5793,0.5761,0.6056,0.5879,0.5275,0.6386,0.6477,0.5793,0.6295,0.6768,0.0,0.0,0.0,0.0,0.0,0.0,1.69,0.0,0.0,0.0,0.0,0.0,0.0,0.0,0.0,0.0,0.0,0.0,0.0,0.0,2.5283,2.5252,0.0,2.6303,2.7479,2.7862,2.9035,0.0,3.06,3.0722,3.0745,3.0716,3.0699,3.0675,3.0632,3.0565,3.0496,3.0385,3.0175,0.0,0.0,0.0,0.0,2.7893,0.0,0.0,0.0,2.8277,2.9059,3.0991,3.1881,3.2386,3.2454,3.3111,3.3465,3.3494,3.368,3.3807,3.3807,3.3842,3.3868,3.3868,3.3921,3.3998,3.4074,3.4269,3.4564,3.4832,3.3762,3.3172,0.0,3.1684,3.0906,3.0466,3.0466,3.0479,3.0608,3.1603,3.2505,3.338,0.0,0.0,0.0,0.0,0.0,0.0,0.0,0.4692,0.4462,0.4242,0.3961,0.3737,0.3737,0.3918,0.4257,0.4675,0.0,0.0,0.0,0.0,0.0,0.0,0.0,0.0,0.6221,0.5964,0.5836,0.5836,0.6093,0.6013,0.5723,0.6702,0.6823,0.6221,0.6719,0.7021,0.0,0.0,0.0,0.0,0.0,0.0,0.0,0.0,0.0,0.0,0.0,0.0,0.0,0.0,0.0,0.0,0.0,0.0,0.0,0.0,0.0,0.0,0.0,2.5938,2.6895,0.0,0.0,0.0,3.0565,3.075,0.0,3.0697,3.0682,3.066,3.0523,3.0442,3.037,3.0304,3.0056,0.0,0.0,2.9012,0.0,0.0,2.6807,0.0,2.7896,2.8286,2.9026,3.0284,3.1725,3.2588,3.2702,3.3321,3.3698,3.3807,3.3807,3.3807,3.3807,3.3807,3.3807,3.3807,3.3868,3.3921,3.3998,3.4049,3.439,3.4813,3.3109,3.2591,3.2776,3.116,3.0456,3.0398,3.0398,3.0439,3.0598,3.1476,3.2402,3.3345,0.0,0.0,0.0,0.0,0.0,0.0,0.0,0.0,0.0,0.0,0.4323,0.4161,0.3961,0.3863,0.4102,0.0,0.0,0.0,0.0,0.0,0.0,0.0,0.0,0.0,0.6435,0.6221,0.6056,0.5976,0.6142,0.6013,0.5723,0.6477,0.6605,0.6221,0.6865,0.7293,0.0,0.0,0.0,0.0,0.0,0.0,0.0,0.0,0.0,0.0,1.993,2.041,0.0,0.0,0.0,0.0,0.0,0.0,0.0,0.0,2.5283,2.5282,2.5222,0.0,2.6781,2.7692,2.8573,2.9499,0.0,3.0707,3.0702,0.0,0.0,0.0,3.056,3.0442,3.0285,3.0161,0.0,0.0,2.9103,0.0,0.0,2.6906,2.6454,2.6634,2.774,2.8193,2.8929,3.0156,3.1319,3.2162,3.2588,3.3063,3.3437,3.3726,3.378,3.3807,3.3807,3.3807,3.3807,3.3807,3.3834,3.3842,3.3921,3.3947,3.4274,3.4756,3.3696,3.3092,3.2814,3.1814,3.1006,3.0398,3.0398,3.0402,3.0458,3.0793,3.1469,3.2382,0.0,0.0,0.0,0.0,0.0,0.0,0.0,0.0,0.0,0.0,0.0,0.0,0.0,0.0,0.0,0.0,0.0,0.0,0.0,0.0,0.0,0.0,0.0,0.6227,0.6179,0.627,0.6276,0.6227,0.6313,0.6184,0.5852,0.6435,0.6513,0.6221,0.6914,0.73,0.0,0.0,0.0,0.0,1.3427,0.0,0.0,0.0,0.0,0.0,1.977,2.037,0.0,2.2002,2.295,2.3954,0.0,0.0,0.0,0.0,2.5283,2.5252,2.5212,2.5535,2.6228,2.7595,2.8277,2.8965,3.0375,0.0,0.0,0.0,0.0,0.0,0.0,0.0,0.0,0.0,2.9661,0.0,0.0,0.0,2.7426,2.6989,2.6607,2.6638,0.0,2.8118,2.8942,2.9607,3.0964,3.1758,3.1722,3.2277,3.2527,3.2411,3.2921,3.3395,3.3807,3.3807,3.3807,3.3807,3.3807,3.386,3.3895,3.3895,3.4208,3.4678,3.3449,3.2889,3.2788,3.1558,3.0802,3.0398,3.0398,3.0398,3.0414,3.0552,3.1137,3.2039,0.0,0.0,0.0,0.0,0.0,0.0,0.0,0.0,0.0,0.0,0.0,0.0,0.0,0.0,0.0,0.0,0.0,0.0,0.0,0.0,0.0,0.0,0.0,0.6013,0.5873,0.6233,0.6489,0.652,0.6483,0.6355,0.6062,0.6435,0.6477,0.6307,0.6985,0.7405,0.0,0.0,0.0,0.0,1.3656,0.0,0.0,0.0,0.0,0.0,0.0,0.0,0.0,2.1943,2.2941,2.4004,2.4753,0.0,0.0,0.0,0.0,0.0,2.5212,2.5308,2.584,2.7563,2.7967,2.8427,3.0277,0.0,0.0,0.0,0.0,0.0,0.0,0.0,0.0,0.0,0.0,0.0,2.8298,2.7823,2.7444,2.7149,2.6858,0.0,2.6691,2.7977,2.8805,2.8805,3.0358,3.1039,3.0543,3.1158,3.1321,3.0874,3.181,3.269,3.3395,3.3678,3.3807,3.3807,3.3807,3.3815,3.3895,3.3921,3.4208,3.4579,3.2958,3.249,3.2762,3.1027,3.0348,3.0398,3.0398,3.0398,3.0414,3.0535,3.1052,3.1864,0.0,0.0,0.0,0.0,0.0,0.0,0.0,0.0,0.0,0.0,0.0,0.0,0.0,0.0,0.0,0.0,0.0,0.0,0.0,0.0,0.0,0.5696,0.6179,0.6355,0.6136,0.6477,0.6647,0.6683,0.6489,0.6367,0.6331,0.619,0.6307,0.6641,0.7404,0.8229,0.9173,0.9877,1.1895,1.46,1.4601,0.0,0.0,0.0,0.0,0.0,0.0,0.0,0.0,2.2066,2.3281,2.4746,2.4872,0.0,0.0,0.0,0.0,0.0,2.5209,2.5783,2.6659,2.7724,2.8027,2.8529,3.0304,0.0,0.0,0.0,0.0,0.0,0.0,2.9958,2.9817,0.0,0.0,2.8121,0.0,0.0,2.6825,2.6791,0.0,2.6691,2.6691,2.7486,2.7994,2.7994,2.8878,2.9483,2.9661,3.0091,3.0462,3.0632,3.1192,3.1539,3.1693,3.3083,3.3807,3.3807,3.3807,3.3807,3.3815,3.4049,3.4302,3.4519,3.307,3.2622,3.2762,3.1078,3.0398,3.0398,3.0398,3.0398,3.0402,3.0501,3.0629,3.1048,0.0,0.0,0.0,0.0,0.0,0.0,0.0,0.0,0.0,0.0,0.0,0.0,0.0,0.0,0.0,0.0,0.0,0.0,0.0,0.0,0.0,0.5696,0.6386,0.6598,0.6258,0.6641,0.6852,0.6852,0.6907,0.6829,0.6568,0.6605,0.6881,0.7314,0.8074,0.8927,0.9848,1.0366,1.2229,1.4816,0.0,0.0,0.0,0.0,0.0,0.0,0.0,0.0,0.0,0.0,2.3615,2.4855,2.4902,0.0,0.0,0.0,0.0,0.0,2.5198,2.59,2.6862,2.7725,2.8359,2.9057,3.0258,0.0,0.0,0.0,0.0,0.0,0.0,0.0,2.9551,2.9175,0.0,2.841,2.7794,2.7426,2.7164,0.0,0.0,2.6691,2.6691,2.7385,2.7894,2.8083,2.8642,2.8951,2.8868,2.9193,2.9294,2.9076,3.0026,3.0567,3.0643,3.184,3.2478,3.2485,3.2485,3.2485,3.2529,3.2741,3.322,3.3838,3.2881,3.287,3.3426,3.1738,3.1071,3.1064,3.0571,3.0398,3.0402,3.0519,3.0884,3.1557,0.0,0.0,0.0,0.0,0.0,0.0,0.0,0.0,0.0,0.0,0.0,0.0,0.0,0.0,0.0,0.0,0.0,0.0,0.0,0.0,0.6221,0.6039,0.6683,0.681,0.6374,0.6852,0.707,0.7027,0.737,0.7363,0.7056,0.7342,0.7653,0.8074,0.8833,0.9712,1.0675,1.1131,1.2806,1.5117,0.0,0.0,0.0,0.0,0.0,0.0,0.0,0.0,0.0,0.0,0.0,0.0,0.0,0.0,0.0,2.5262,2.5241,2.519,2.522,2.6083,2.7133,2.7749,0.0,2.9511,3.0243,0.0,0.0,0.0,0.0,0.0,0.0,2.9495,0.0,2.8779,2.8797,2.8639,2.7992,2.7695,2.7491,2.7244,2.6989,2.6858,2.6923,2.7452,2.7877,2.8155,2.8493,2.8545,2.8189,2.8452,2.8382,2.7886,2.9017,2.9671,2.9777,3.0423,3.0968,3.1384,3.1384,3.1384,3.1409,3.1658,3.2238,3.2989,3.2444,3.2714,3.3398,3.1937,3.1347,3.1333,3.066,3.0402,3.0439,3.0564,3.1078,3.1865,0.0,0.0,0.0,0.0,0.0,0.0,0.0,0.0,0.0,0.0,0.0,0.0,0.0,0.0,0.0,0.0,0.0,0.0,0.0,0.0,0.6774,0.7083,0.7167,0.6985,0.6495,0.7063,0.7293,0.7167,0.7628,0.7946,0.8095,0.8162,0.8423,0.8842,0.9584,1.0781,1.2283,1.3196,1.455,1.6119,1.6365,0.0,0.0,0.0,0.0,0.0,0.0,0.0,0.0,0.0,0.0,0.0,0.0,0.0,2.5118,2.519,2.5198,2.5214,2.5273,2.6535,2.7833,2.7889,2.8652,0.0,3.0256,3.0341,0.0,3.0136,0.0,0.0,0.0,2.9341,2.9042,2.8748,2.8572,2.8166,2.7382,0.0,2.7213,2.7213,2.7181,2.7276,2.7612,2.7694,2.7712,2.7742,2.7764,2.7782,2.7742,2.7996,2.8128,2.8075,2.8536,2.8809,2.8901,2.9028,2.9868,3.1384,3.1384,3.1384,3.1409,3.1877,3.2103,3.2162,3.1794,3.1703,3.1711,3.0835,3.0494,3.0475,3.0417,3.0439,3.051,3.0639,3.0745,3.1047,0.0,0.0,0.0,0.0,0.0,0.0,0.0,0.0,0.0,0.0,0.0,0.0,0.0,0.0,0.0,0.0,0.0,0.0,0.0,0.7014,0.7273,0.7216,0.7377,0.7579,0.769,0.7814,0.7814,0.7697,0.8333,0.8852,0.9244,0.9512,0.9847,1.0281,1.1095,1.2141,1.3377,1.3979,1.5108,1.6465,1.656,1.7158,0.0,0.0,0.0,0.0,0.0,0.0,0.0,0.0,2.4115,2.4437,2.4832,2.4974,2.5006,2.5153,2.5195,2.5324,2.588,2.6963,2.8038,2.8612,0.0,0.0,0.0,3.0182,3.0101,2.9905,2.9755,0.0,0.0,0.0,2.8915,2.8897,2.8755,2.8456,2.7908,2.7823,2.7765,2.7577,2.7535,2.7552,2.7701,2.7701,2.7771,2.7954,2.78,2.7771,2.7954,2.8047,2.8129,2.8156,2.8507,2.8815,2.9052,2.9075,2.9481,3.0267,3.0157,3.0091,3.0113,3.0546,3.1032,3.154,3.1584,3.1884,3.2286,3.1573,3.1248,3.116,3.0609,3.0414,3.0441,3.0593,3.0631,3.09,0.0,0.0,0.0,0.0,0.0,0.0,0.0,0.0,0.0,0.0,0.0,0.0,0.0,0.0,0.0,0.0,0.0,0.0,0.7147,0.7682,0.7855,0.7545,0.7719,0.7961,0.8167,0.8472,0.8504,0.8259,0.9004,0.96,1.0128,1.0504,1.0874,1.135,1.1995,1.2916,1.3946,1.441,1.536,1.6602,1.668,1.7224,0.0,0.0,0.0,0.0,0.0,0.0,0.0,0.0,2.4357,2.4407,2.4865,2.4961,2.4936,2.5172,2.5209,2.5388,2.6346,2.7246,2.8154,0.0,0.0,0.0,3.0171,3.0052,2.9943,2.9737,2.9701,0.0,0.0,0.0,0.0,0.0,2.8881,2.8626,2.829,2.8237,2.8156,2.7992,2.7897,2.7915,2.8,2.8017,2.8055,2.8228,2.8083,2.8083,2.8281,2.8281,2.8308,2.8404,2.8601,2.8868,2.9188,2.9209,2.9316,2.9608,2.9514,2.9455,2.9415,2.9753,3.0227,3.0793,3.1045,3.1494,3.202,3.157,3.135,3.1256,3.0659,3.0449,3.0482,3.0587,3.0667,3.0945,0.0,0.0,0.0,0.0,0.0,0.0,0.0,0.0,0.0,0.0,0.0,0.0,0.0,0.0,0.0,0.0,0.0,0.0,0.8521,0.8643,0.8561,0.8216,0.8216,0.8051,0.7712,0.8878,0.927,0.882,0.9561,1.0167,1.0621,1.1029,1.1442,1.1811,1.2162,1.2904,1.3946,1.454,1.5491,1.6628,1.6825,1.7361,1.8107,0.0,0.0,0.0,0.0,0.0,0.0,0.0,2.4339,2.4464,2.487,2.4953,2.4953,2.5217,2.5254,2.5446,2.6528,2.7393,0.0,0.0,0.0,0.0,3.0145,2.9954,2.978,2.9701,0.0,2.955,2.9093,2.9056,0.0,2.9089,2.8881,2.8601,2.835,2.8298,2.8298,2.8298,2.8264,2.8334,2.8669,2.8637,2.8587,2.8587,2.8587,2.8637,2.8694,2.8694,2.8718,2.881,2.881,2.8934,2.9209,2.9209,2.9355,2.9608,2.9822,2.9805,2.9608,2.9822,2.9905,2.9905,3.0104,3.0273,3.0402,3.0472,3.0492,3.0501,3.0501,3.0535,3.0607,3.0662,3.0788,3.1142,0.0,0.0,0.0,0.0,0.0,0.0,0.0,0.0,0.0,0.0,0.0,0.0,0.0,0.0,0.0,0.0,0.0,0.0,0.8521,0.8846,0.8895,0.8561,0.8561,0.8643,0.8837,0.9558,0.9991,1.0128,1.0591,1.0895,1.1094,1.1799,1.2222,1.2437,1.3032,1.3583,1.4173,1.4923,1.5766,1.6675,1.738,1.812,1.8859,0.0,0.0,0.0,0.0,0.0,0.0,0.0,0.0,0.0,2.4749,2.4808,2.4731,2.5019,2.5134,2.5552,2.7078,2.7756,0.0,0.0,0.0,0.0,0.0,3.0007,0.0,0.0,2.9451,2.9328,2.9228,2.9075,0.0,2.9089,2.8952,2.8815,2.8725,2.8725,2.8725,2.8725,2.8651,2.8669,2.8761,2.8761,2.8737,2.8737,2.8737,2.8737,2.8761,2.8897,2.8993,2.9097,2.9097,2.9293,2.9698,2.9533,2.9662,3.0015,3.0079,3.0003,2.9822,3.0019,3.0113,3.0109,3.018,3.0273,3.0413,3.0527,3.0576,3.0576,3.0528,3.0519,3.0543,3.0594,3.0676,3.1011,0.0,0.0,0.0,0.0,0.0,0.0,0.0,0.0,0.0,0.0,0.0,0.0,0.0,0.0,0.0,0.0,0.0,0.0,0.0,0.9377,0.9408,0.8926,0.8886,0.9191,0.9767,1.0079,1.0552,1.1159,1.1207,1.1356,1.1531,1.221,1.2579,1.2745,1.3387,1.3894,1.4256,1.5136,1.6061,1.7007,1.7802,1.8607,1.9435,0.0,0.0,0.0,0.0,0.0,0.0,0.0,0.0,0.0,2.4707,2.4768,2.47,2.5,2.5133,2.5592,2.7472,0.0,0.0,0.0,0.0,3.0385,3.019,0.0,0.0,0.0,0.0,2.9332,2.9272,2.9115,0.0,2.9044,2.8975,2.8905,2.8929,2.8929,2.8929,2.8929,2.8881,2.8834,2.8834,2.881,2.8785,2.8785,2.8863,2.891,2.8834,2.9034,2.9169,2.923,2.923,2.9436,2.9888,2.9769,2.9888,3.0204,3.0204,3.0142,3.0019,3.0142,3.0204,3.0199,3.0254,3.0348,3.0491,3.0564,3.0614,3.0626,3.0535,3.0527,3.0579,3.0587,3.0672,3.1036,0.0,0.0,0.0,0.0,0.0,0.0,0.0,0.0,0.0,0.0,0.0,0.0,0.0,0.0,0.0,0.0,0.0,0.0,0.0,0.0,0.9932,0.9266,0.9297,0.9707,1.056,1.055,1.1014,1.1909,1.1531,1.1531,1.1945,1.2354,1.265,1.2803,1.3446,1.398,1.4433,1.5403,1.6466,1.7572,1.8211,1.9026,1.9927,2.083,0.0,0.0,0.0,0.0,0.0,0.0,0.0,0.0,2.4698,2.4742,2.4764,2.5083,2.5235,2.5732,2.7658,0.0,0.0,0.0,0.0,0.0,3.0177,2.9972,2.9754,2.9495,0.0,2.9532,2.9293,2.9203,2.9134,2.9067,2.8998,2.8957,2.9044,2.9044,2.9021,2.9044,2.898,2.8957,2.8934,2.8887,2.8858,2.881,2.9012,2.9079,2.8934,2.9141,2.9272,2.9355,2.9355,2.9551,2.9921,2.9905,3.0003,3.0204,3.0204,3.0204,3.0204,3.0204,3.0204,3.0213,3.0348,3.0491,3.0603,3.06,3.0645,3.0672,3.056,3.0571,3.0672,3.0625,3.0724,3.1107,0.0,0.0,0.0,0.0,0.0,0.0,0.0,0.0,0.0,0.0,0.0,0.0,0.0,0.0,0.0,0.0,0.0,0.0,0.0,0.0,0.9753,0.9594,0.9892,1.038,1.1046,1.1046,1.1394,1.2066,1.1872,1.1909,1.2234,1.272,1.3116,1.3446,1.3894,1.4667,1.5652,1.6244,1.7256,1.8572,1.9499,2.0228,2.0782,2.1541,2.2082,0.0,0.0,0.0,0.0,0.0,0.0,0.0,2.4547,2.4631,2.4676,2.4955,2.5573,2.6429,0.0,2.8626,0.0,0.0,0.0,3.0312,3.019,3.0109,2.9975,2.9771,2.9644,2.9589,2.9514,2.9513,2.9494,2.9474,2.9334,2.9272,2.9455,2.9334,2.9293,2.9455,2.9455,2.9395,2.923,2.9355,2.9293,2.8975,2.9141,2.9251,2.9228,2.9397,2.9608,2.977,2.9769,2.9888,3.0142,2.9988,3.0003,3.0204,3.0204,3.0204,3.0204,3.0204,3.0199,3.0202,3.0453,3.056,3.061,3.0711,3.0711,3.0614,3.0586,3.0548,3.0543,3.0587,3.0652,3.0906,0.0,0.0,0.0,0.0,0.0,0.0,0.0,0.0,0.0,0.0,0.0,0.0,0.0,0.0,0.0,0.0,0.0,0.0,0.0,0.0,1.0505,1.0312,1.0725,1.1094,1.1542,1.1726,1.2029,1.2461,1.2425,1.2461,1.2603,1.3,1.3344,1.3648,1.4292,1.5089,1.6045,1.6819,1.7985,1.9363,2.0163,2.0846,2.1444,2.2023,2.2446,2.2773,2.2925,0.0,0.0,0.0,0.0,0.0,0.0,0.0,2.4564,2.4891,2.5631,2.661,0.0,0.0,0.0,0.0,0.0,0.0,3.04,3.0309,3.0209,3.0109,2.9899,2.9734,2.9734,2.9662,2.9608,2.9608,2.9513,2.9494,2.9589,2.9513,2.9494,2.9589,2.9608,2.957,2.9436,2.9551,2.9513,2.9312,2.9474,2.9551,2.9455,2.9644,2.9786,2.9888,2.9888,3.0003,3.0204,3.0098,3.0098,3.0204,3.0204,3.0199,3.0213,3.0213,3.0221,3.0267,3.0462,3.0571,3.0605,3.0711,3.0728,3.0697,3.062,3.0593,3.0605,3.0599,3.0637,3.0831,0.0,0.0,0.0,0.0,0.0,0.0,0.0,0.0,0.0,0.0,0.0,0.0,0.0,0.0,0.0,0.0,0.0,0.0,0.0,0.0,0.0,1.1132,1.142,1.1726,1.2018,1.2354,1.2685,1.2896,1.2931,1.2978,1.3069,1.3319,1.3589,1.3868,1.4833,1.5717,1.6491,1.7615,1.8872,2.0204,2.0697,2.1292,2.1986,2.2343,2.2588,2.2799,2.3077,2.333,2.361,2.3795,0.0,0.0,0.0,0.0,2.4479,2.4847,2.5703,2.676,0.0,0.0,0.0,0.0,0.0,0.0,3.0593,3.0501,3.0402,3.0402,3.0177,2.9969,2.9969,2.982,2.9698,2.9698,2.9681,2.9662,2.9698,2.9681,2.9662,2.9698,2.9698,2.9698,2.9662,2.9681,2.9681,2.9608,2.9787,2.9839,2.9662,2.9822,2.9924,2.9956,2.9937,3.0034,3.0204,3.0204,3.0204,3.0204,3.0199,3.0213,3.0215,3.0215,3.0241,3.0316,3.0441,3.0537,3.06,3.0667,3.0724,3.0739,3.0639,3.0614,3.0639,3.0607,3.0614,3.0782,0.0,0.0,0.0,0.0,0.0,0.0,0.0,0.0,0.0,0.0,0.0,0.0,0.0,0.0,0.0,0.0,0.0,0.0,1.0802,0.0,0.0,1.1494,1.1568,1.1872,1.2389,1.265,1.2803,1.2896,1.3082,0.0,0.0,0.0,0.0,1.478,1.5837,1.6984,1.8221,1.9121,2.0295,2.1543,2.1602,2.1972,2.249,2.2412,2.2695,2.3067,2.3271,2.3432,2.3566,2.3996,2.417,0.0,0.0,0.0,2.4464,2.4733,2.6009,2.7447,0.0,0.0,0.0,0.0,0.0,3.0593,0.0,0.0,3.0402,0.0,3.0314,3.0254,3.0254,3.0194,3.0128,3.0128,2.9969,2.9921,3.0113,2.9953,2.9921,3.0094,3.0128,3.0049,2.9872,3.0019,2.9969,2.9626,2.9787,2.9888,2.9855,2.9888,2.9988,3.0157,3.0157,3.0171,3.0204,3.0204,3.0204,3.0204,3.0194,3.0228,3.0292,3.0292,3.0292,3.0316,3.0442,3.0535,3.06,3.0667,3.0667,3.062,3.06,3.0527,3.0439,3.049,3.051,3.0559,0.0,0.0,0.0,0.0,0.0,0.0,0.0,0.0,0.0,0.0,0.0,0.0,0.0,0.0,0.0,1.1067,1.1207,1.1394,1.1616,1.1616,1.1763,1.2029,1.209,1.2246,1.2591,1.2768,1.2943,1.3082,0.0,0.0,0.0,1.4452,1.4738,0.0,0.0,1.7515,1.8754,1.9841,2.0898,2.1827,2.2061,2.2281,2.251,2.2695,2.2968,2.3236,2.3468,2.362,2.3707,2.3955,2.4016,2.4036,2.4134,0.0,0.0,0.0,2.6291,0.0,2.9086,0.0,0.0,0.0,0.0,3.0691,3.0649,0.0,3.0574,3.0574,3.0511,3.0441,3.0378,3.0333,3.0309,3.0309,3.0228,3.019,3.026,3.0188,3.0147,3.0185,3.0204,3.0157,3.0083,3.0142,3.0128,2.9953,3.0019,3.0064,3.0064,3.0064,3.0113,3.0204,3.0204,3.0204,3.0204,3.0204,3.0199,3.0194,3.0228,3.0279,3.0304,3.0336,3.0367,3.0359,3.0472,3.0528,3.0552,3.0656,3.0677,3.065,3.0614,3.0595,3.0567,3.051,3.049,3.0511,0.0,0.0,0.0,0.0,0.0,0.0,0.0,0.0,0.0,0.0,0.0,0.0,0.0,0.0,0.0,0.0,1.1689,1.1945,1.2246,1.2282,1.2354,1.2484,1.2544,1.2627,1.278,1.2908,1.3082,1.3301,0.0,0.0,1.4332,1.4797,1.5238,0.0,1.6937,1.815,0.0,0.0,0.0,2.2044,2.2298,2.251,2.273,2.3084,2.3324,2.3513,2.3664,2.3789,2.3873,2.3896,2.3896,2.3917,2.4054,2.4094,0.0,0.0,0.0,0.0,0.0,0.0,0.0,0.0,0.0,0.0,0.0,0.0,3.0698,0.0,3.0668,3.0593,3.0492,3.0433,3.0402,3.0402,3.0402,3.0381,3.0333,3.0309,3.0292,3.026,3.0226,3.0213,3.0247,3.0226,3.0199,3.0226,3.0199,3.0204,3.0204,3.0204,3.0204,3.0204,3.0204,3.0199,3.0199,3.0232,3.0226,3.0228,3.0279,3.0316,3.0336,3.0379,3.0398,3.041,3.0441,3.0472,3.051,3.0607,3.0645,3.0645,3.0613,3.0603,3.0607,3.054,3.05,3.0511,0.0,0.0,0.0,0.0,0.0,0.0,0.0,0.0,0.0,0.0,0.0,0.0,1.17,1.2167,1.2384,1.2341,1.233,1.2401,1.2473,1.2461,1.2579,1.2768,1.2733,0.0,1.3072,1.3129,1.3288,0.0,0.0,0.0,1.4429,1.4862,1.5817,1.7144,1.8167,1.9292,2.0471,0.0,0.0,0.0,0.0,2.2832,2.3458,2.3481,2.371,2.4039,2.3858,2.3919,2.4078,2.3958,2.3896,2.3917,2.3996,2.4094,2.4356,0.0,0.0,0.0,0.0,0.0,0.0,0.0,0.0,0.0,0.0,0.0,3.0691,3.0703,3.0691,3.069,3.0683,3.0528,3.0402,3.0402,3.0402,3.0402,3.0402,3.0344,3.0321,3.0381,3.0279,3.0247,3.037,3.0267,3.0226,3.0292,3.0253,3.0204,3.0204,3.0204,3.0204,3.0204,3.0204,3.0199,3.0207,3.0266,3.0286,3.0285,3.0304,3.0336,3.0379,3.0398,3.0398,3.0398,3.039,3.0439,3.0501,3.051,3.0519,3.0519,3.0576,3.053,3.0419,3.0481,3.0491,3.0511,0.0,0.0,0.0,0.0,0.0,0.0,0.0,0.0,0.0,0.0,0.0,0.0,0.0,1.2639,1.2722,1.2733,1.2883,1.3079,1.3327,1.3327,1.3408,1.3568,1.3602,1.3656,1.3795,1.4019,1.4117,0.0,0.0,1.4937,1.512,1.5935,1.7028,1.8313,1.867,1.9473,2.0624,2.1524,0.0,0.0,0.0,0.0,0.0,0.0,0.0,0.0,0.0,0.0,2.404,2.4039,2.3939,2.3928,2.4475,2.4803,2.526,2.6786,0.0,0.0,0.0,0.0,0.0,0.0,3.0636,3.0684,3.0782,3.0785,3.0771,3.0755,3.0759,3.0753,3.0753,3.0671,3.0591,3.0591,3.0591,3.0574,3.053,3.0521,3.0472,3.0413,3.0367,3.0356,3.0402,3.0309,3.0267,3.0304,3.0234,3.0204,3.0204,3.0199,3.0194,3.0194,3.024,3.0253,3.0266,3.0286,3.0292,3.0304,3.0348,3.0379,3.0398,3.0398,3.0398,3.0398,3.0398,3.0414,3.0439,3.0472,3.053,3.0567,3.0595,3.0576,3.0528,3.0511,3.053,3.0569,0.0,0.0,0.0,0.0,0.0,0.0,0.0,0.0,0.0,0.0,0.0,0.0,0.0,0.0,1.3126,1.3306,1.3509,1.3729,1.3992,1.3992,1.4071,1.4149,1.4181,1.4264,1.4365,1.4519,1.4627,0.0,0.0,0.0,0.0,1.6829,1.7979,1.9295,1.9495,2.016,0.0,0.0,0.0,2.2652,0.0,0.0,2.362,0.0,0.0,0.0,0.0,0.0,0.0,2.4561,2.4598,2.4652,2.5439,2.5996,2.6597,0.0,0.0,0.0,3.0032,0.0,0.0,0.0,0.0,3.0602,3.0741,0.0,3.0756,3.0781,3.0806,3.0798,3.0804,3.0753,3.0724,3.0691,3.0691,3.0671,3.0637,3.061,3.0585,3.051,3.0453,3.0443,3.0501,3.0422,3.0356,3.0333,3.0267,3.0207,3.0199,3.0194,3.0221,3.0234,3.0292,3.0305,3.0305,3.0323,3.0304,3.0235,3.0355,3.0367,3.0299,3.0367,3.0398,3.0398,3.0398,3.0398,3.039,3.0441,3.0492,3.053,3.0568,3.0567,3.0554,3.053,3.0559,3.0598,0.0,0.0,0.0,0.0,0.0,0.0,0.0,0.0,0.0,1.2696,0.0,0.0,0.0,0.0,0.0,1.4192,1.4224,1.4301,1.4456,1.447,1.4487,1.4564,1.4501,1.4568,1.4758,1.4707,1.4783,1.5102,0.0,0.0,0.0,0.0,1.8626,2.0166,2.0783,2.1406,2.201,0.0,2.2375,2.3091,0.0,2.3277,2.3816,0.0,0.0,0.0,2.4154,2.4337,0.0,2.5571,0.0,0.0,0.0,0.0,0.0,0.0,0.0,0.0,0.0,0.0,0.0,0.0,0.0,0.0,3.067,0.0,3.064,3.0779,3.0804,3.0807,3.0793,3.0804,3.0779,3.0709,3.0703,3.0691,3.0704,3.0656,3.063,3.069,3.0582,3.0565,3.069,3.0582,3.0482,3.0413,3.0344,3.0279,3.0202,3.0202,3.0234,3.0292,3.0311,3.0304,3.0285,3.0367,3.0299,3.0109,3.0299,3.0286,3.0109,3.0299,3.0398,3.0398,3.0398,3.041,3.041,3.0406,3.0398,3.0409,3.0471,3.0491,3.052,3.0588,3.0598,3.0598,0.0,0.0,0.0,0.0,0.0,0.0,1.2745,1.2945,1.3062,0.0,0.0,0.0,1.3635,1.3986,1.4474,1.5018,1.5108,1.5345,1.5879,1.5976,1.6016,1.6087,1.6087,1.6126,1.6289,1.6169,1.6459,1.7111,1.7099,1.7653,1.8744,1.9502,2.0295,0.0,2.1901,2.2392,2.266,2.2616,0.0,2.3248,2.3312,2.3606,0.0,0.0,0.0,0.0,0.0,2.5754,2.5858,0.0,2.6908,2.6919,0.0,0.0,0.0,0.0,0.0,0.0,2.9872,0.0,0.0,0.0,0.0,0.0,0.0,0.0,3.0681,3.0721,3.0778,3.0801,3.08,3.0797,3.0792,3.0774,3.0763,3.0769,3.0759,3.0753,3.0753,3.0778,3.0742,3.0722,3.0778,3.0659,3.0559,3.0552,3.0443,3.0359,3.0348,3.0297,3.0311,3.0374,3.0367,3.0292,3.015,3.0163,3.0114,2.9965,3.0011,3.0011,2.9946,3.0109,3.0196,3.0254,3.0359,3.0436,3.0477,3.0417,3.0439,3.0471,3.0491,3.053,3.0569,3.0598,3.0598,3.0598,0.0,0.0,0.0,0.0,0.0,0.0,1.3037,1.3279,1.3531,0.0,0.0,0.0,1.4648,1.4895,1.5418,1.6371,1.6486,1.6806,1.755,1.762,1.7658,1.7743,1.7727,1.7823,1.7945,1.7866,1.8103,1.8659,1.8632,1.9164,2.018,2.0767,2.1351,2.1987,0.0,0.0,0.0,0.0,0.0,0.0,2.354,0.0,0.0,2.4388,2.477,0.0,0.0,0.0,2.6886,2.7886,2.8311,0.0,0.0,0.0,0.0,0.0,0.0,0.0,0.0,0.0,0.0,0.0,0.0,0.0,3.0433,3.051,3.0601,0.0,3.076,3.0792,3.0796,3.0799,3.08,3.08,3.0792,3.0791,3.0808,3.0789,3.0793,3.0804,3.0793,3.0793,3.0804,3.0735,3.0661,3.0607,3.0496,3.0423,3.0359,3.0352,3.0367,3.0398,3.0311,3.0228,3.0109,3.0052,2.9977,2.9902,2.9965,2.9977,2.9992,3.015,3.0248,3.0292,3.0406,3.0449,3.05,3.046,3.0471,3.0501,3.053,3.0559,3.0598,3.0598,3.0598,3.0598,0.0,0.0,0.0,1.2978,1.3047,1.3163,1.3301,1.3648,1.4026,0.0,1.4661,1.5162,1.59,1.6102,1.6688,1.7985,1.8087,1.8427,1.9165,1.9241,1.9241,1.9312,1.9312,1.9383,1.9497,1.9497,1.9611,1.9863,1.9984,2.0467,2.1292,2.155,2.2038,2.2738,0.0,0.0,0.0,0.0,0.0,2.3602,2.372,2.3986,0.0,0.0,2.5231,2.602,2.6403,2.7046,2.7867,2.8948,2.9775,0.0,0.0,0.0,0.0,0.0,3.0019,0.0,0.0,0.0,0.0,0.0,3.0166,0.0,3.0362,3.0414,3.0496,0.0,3.0778,3.0788,3.0765,3.0767,3.0769,3.0769,3.0772,3.0781,3.0794,3.0798,3.0798,3.0798,3.079,3.0794,3.0793,3.081,3.0743,3.0631,3.0545,3.0453,3.0321,3.0379,3.0398,3.0367,3.0196,3.0075,3.008,2.9946,2.9902,2.9902,3.0022,3.008,3.0075,3.0285,3.0375,3.0386,3.0469,3.05,3.052,3.052,3.052,3.052,3.0588,3.0598,3.0598,3.0598,3.0598,3.0598,0.0,0.0,0.0,1.3288,1.3357,1.3547,1.3868,1.4052,1.4292,1.4718,1.5845,1.6754,1.7133,1.8,1.8734,1.9219,1.9379,1.9586,1.9968,2.0052,2.0069,2.0094,2.0094,2.0119,2.0193,2.0044,2.0263,2.0899,2.0882,2.1429,2.247,2.2613,2.2964,2.3412,0.0,0.0,0.0,0.0,0.0,2.4155,2.4174,0.0,2.4572,2.5518,2.6123,2.6647,2.8102,2.876,2.9081,2.9888,3.0252,3.034,0.0,0.0,0.0,3.0109,0.0,0.0,0.0,0.0,0.0,0.0,0.0,0.0,3.0383,3.0482,3.0546,0.0,3.0552,3.062,3.0564,3.0556,3.0552,3.0555,3.0647,3.0742,3.0781,3.0799,3.0795,3.0793,3.0804,3.0796,3.0794,3.0794,3.0794,3.0768,3.065,3.056,3.0472,3.0417,3.0343,3.015,3.0122,3.0052,2.995,2.9918,2.9902,2.9902,2.9934,2.9946,2.9943,3.0155,3.0279,3.0328,3.0449,3.052,3.0588,3.0588,3.0588,3.0569,3.0598,3.0598,3.0598,3.0598,3.0598,3.0598,0.0,0.0,0.0,1.3769,1.4,1.4278,1.447,1.4738,1.5206,1.5921,1.7306,1.8347,1.8643,1.9213,1.9844,2.0577,2.0713,2.1042,2.169,2.1663,2.1722,2.1838,2.1766,2.1766,2.1885,2.1773,2.1947,2.2459,2.2282,2.2566,2.3265,2.3265,2.3495,2.386,0.0,0.0,0.0,0.0,2.4664,2.4857,2.4982,0.0,2.5517,2.6618,2.7428,2.8058,2.8946,2.9545,2.9989,3.0295,3.0398,0.0,3.0279,3.0273,3.0299,0.0,3.0253,3.0292,0.0,0.0,0.0,3.0202,0.0,0.0,0.0,3.0344,3.0402,3.0404,3.0481,3.0535,3.051,3.0472,3.0462,3.0488,3.0579,3.0658,3.0701,3.0767,3.0801,3.08,3.0796,3.079,3.0801,3.0801,3.0796,3.0742,3.0697,3.06,3.051,3.0472,3.0386,3.0254,3.015,3.008,2.9992,2.9934,2.9934,2.9992,3.0022,3.008,3.0144,3.0285,3.0364,3.0417,3.051,3.0569,3.0598,3.0598,3.0598,3.0598,3.0598,3.0598,3.0598,3.0598,3.0598,3.0598,1.3868,0.0,0.0,0.0,1.4724,1.5134,1.5341,1.5772,1.6432,1.7423,1.887,1.9903,2.0196,2.0474,2.1053,2.2048,2.2147,2.2503,2.3343,2.323,2.3242,2.3414,2.3282,2.3259,2.3437,2.3392,2.3459,2.3671,2.3486,2.3486,2.3671,2.3703,2.3858,2.4081,0.0,0.0,0.0,0.0,0.0,2.5838,0.0,2.6432,2.6642,2.7738,2.8656,2.9337,2.9508,3.002,3.0604,3.0482,3.0432,3.0432,3.0409,3.0371,0.0,0.0,0.0,0.0,0.0,0.0,0.0,0.0,0.0,3.0026,0.0,0.0,0.0,3.0353,3.0404,3.0452,3.0432,0.0,0.0,3.023,0.0,0.0,0.0,3.0609,0.0,3.0781,3.0781,3.0799,3.0808,3.0804,3.0771,3.0724,3.0715,3.0645,3.0537,3.051,3.0442,3.0355,3.0196,3.0122,3.0122,3.0007,3.0022,3.0177,3.0222,3.0316,3.0409,3.0481,3.052,3.052,3.0588,3.0598,3.0598,3.0598,3.0598,3.0598,3.0598,3.0598,3.0598,3.0598,3.0598,3.0598,1.4923,1.4984,0.0,0.0,1.5389,1.5957,1.6967,1.7314,1.7914,1.9061,2.0407,2.1295,0.0,0.0,0.0,0.0,0.0,0.0,2.3737,0.0,2.3668,2.3588,2.3566,2.3544,2.3566,2.3566,2.3566,2.361,2.371,2.371,2.361,2.3979,2.4097,0.0,2.4315,0.0,0.0,0.0,2.633,0.0,2.8056,2.7965,0.0,2.8685,2.9237,2.9493,3.0267,3.0594,3.0681,0.0,3.0571,3.0568,0.0,3.0479,3.054,3.0428,0.0,0.0,0.0,0.0,0.0,0.0,3.0352,0.0,3.0375,0.0,3.0283,3.0309,0.0,3.0216,3.0171,0.0,0.0,2.9289,2.9969,3.0322,2.9571,3.0192,3.0716,3.0712,3.0767,3.08,3.0799,3.081,3.0799,3.0796,3.0732,3.0661,3.0586,3.0527,3.0392,3.0136,3.0169,3.0182,3.0182,3.0177,3.0273,3.0458,3.0458,3.0479,3.0491,3.0491,3.053,3.0598,3.0598,3.0598,3.0598,3.0598,3.0598,3.0598,3.0598,3.0598,3.0598,3.0598,3.0598,3.0598,1.5492,1.5607,0.0,0.0,1.6809,1.7448,1.8442,1.9225,1.99,2.0559,2.1693,0.0,0.0,0.0,0.0,0.0,0.0,2.4275,0.0,0.0,0.0,2.4281,2.4003,2.3925,2.4118,2.4002,2.3999,2.4058,2.3999,2.4001,2.4003,2.4174,2.43,0.0,2.5133,0.0,2.6065,0.0,2.777,0.0,0.0,0.0,0.0,2.984,3.0095,3.0194,3.0565,3.0711,3.0706,0.0,3.0633,0.0,0.0,0.0,0.0,3.0528,0.0,0.0,0.0,0.0,0.0,0.0,0.0,0.0,3.0328,0.0,3.0309,3.0285,0.0,0.0,0.0,0.0,0.0,0.0,3.0166,3.0414,3.0057,0.0,3.0691,3.0697,3.0716,3.0769,3.08,3.0797,3.0811,3.0864,3.0794,3.072,3.0665,3.0591,3.0491,3.034,3.0328,3.0328,3.0371,3.0364,3.0417,3.0499,3.05,3.051,3.0491,3.053,3.0569,3.0598,3.0598,3.0598,3.0598,3.0598,3.0598,3.0598,3.0598,3.0598,3.0598,3.0598,3.0598,3.0598,1.698,0.0,0.0,0.0,0.0,1.9083,2.0085,2.1071,0.0,0.0,0.0,0.0,2.3563,2.3914,0.0,0.0,2.4634,2.4777,0.0,0.0,2.4603,0.0,0.0,0.0,2.4582,2.4424,2.4375,2.4446,2.4302,2.4413,2.4705,2.4789,2.503,2.5456,0.0,2.6727,2.7082,0.0,2.8995,2.9279,3.0027,3.041,3.06,3.0639,3.0697,3.0728,3.0758,3.0742,3.0742,3.0703,3.0665,3.0638,3.0661,3.0637,3.0598,0.0,0.0,0.0,3.0482,0.0,0.0,0.0,0.0,0.0,0.0,3.0311,3.0323,3.0328,3.0323,0.0,0.0,0.0,3.0164,2.9922,0.0,3.0414,3.0201,3.0458,3.0671,3.0671,3.0697,3.0726,3.0779,3.0781,3.082,3.0874,3.081,3.0746,3.0709,3.0639,3.0563,3.0509,3.0449,3.0449,3.049,3.0519,3.053,3.053,3.054,3.053,3.053,3.0588,3.0598,3.0598,3.0598,3.0598,3.0598,3.0598,3.0598,3.0598,3.0598,3.0598,3.0598,3.0598,3.0598,3.0598,1.995,1.9764,0.0,0.0,0.0,0.0,0.0,0.0,0.0,0.0,0.0,0.0,0.0,0.0,0.0,0.0,0.0,2.5415,2.5282,0.0,2.5149,0.0,0.0,2.485,0.0,2.4712,2.466,2.4599,2.4599,2.4972,2.5755,2.6019,2.6522,2.7218,2.7658,2.828,2.9004,2.9128,2.9707,3.0536,3.0575,3.0677,3.0796,0.0,3.0799,3.0804,3.0877,3.0898,3.0879,3.0742,3.0703,3.0683,3.0611,3.0604,3.0615,0.0,0.0,0.0,3.0607,3.0593,3.0556,3.0422,3.0398,3.0398,3.0398,3.0348,3.0318,3.0375,3.0241,3.0109,3.0109,3.0109,2.987,2.9155,2.9866,0.0,0.0,3.0081,3.061,3.0591,3.0664,3.0704,3.0708,3.0752,3.0792,3.0801,3.074,3.0701,3.0709,3.0637,3.0567,3.0509,3.05,3.0491,3.0491,3.0559,3.0598,3.0598,3.0598,3.0598,3.0598,3.0598,3.0598,3.0598,3.0598,3.0598,3.0598,3.0598,3.0598,3.0598,3.0598,3.0598,3.0598,3.0598,3.0598,3.0598,0.0,0.0,0.0,0.0,0.0,0.0,0.0,2.3254,0.0,0.0,2.4098,0.0,0.0,2.4982,2.5224,0.0,0.0,2.5492,2.5506,2.5848,0.0,0.0,0.0,2.6371,0.0,0.0,2.6536,2.6507,2.6574,2.6716,2.7001,2.7173,2.7383,2.7657,0.0,2.8917,0.0,0.0,0.0,0.0,0.0,3.0799,3.0857,0.0,3.0829,3.0877,3.0898,3.0877,3.0831,3.0772,3.0714,3.0636,3.0669,3.0642,3.0604,3.0625,3.0623,3.0632,3.0602,3.0629,3.0651,3.0619,3.06,3.0593,3.0532,3.0511,3.0509,3.053,3.0479,3.0394,3.0316,3.0304,3.0196,2.9909,3.0138,3.0263,0.0,3.0246,3.0462,3.0462,3.0571,3.0646,3.0697,3.0758,3.0804,3.0796,3.0776,3.0742,3.0697,3.0644,3.0595,3.0579,3.052,3.052,3.0559,3.0588,3.0598,3.0598,3.0598,3.0598,3.0598,3.0598,3.0598,3.0598,3.0598,3.0598,3.0598,3.0598,3.0598,3.0598,3.0598,3.0598,3.0598,3.0598,3.0598,3.0598,2.3374,0.0,0.0,0.0,0.0,0.0,0.0,0.0,0.0,0.0,2.4492,0.0,2.4956,0.0,2.546,0.0,2.5941,2.6182,2.6548,2.689,0.0,2.6513,2.7235,2.7459,0.0,0.0,2.7605,2.7574,2.7593,2.7758,2.8109,2.8238,2.8445,2.8752,0.0,2.9707,2.9777,3.0387,3.0701,0.0,0.0,3.0858,0.0,0.0,3.082,3.0857,3.0857,3.0827,3.0765,3.0732,3.0665,3.0603,3.0653,3.0626,3.0601,3.0632,3.0643,3.0639,3.0605,3.0625,3.0664,3.0651,3.0654,3.0657,3.062,3.0595,3.0593,3.0593,3.0559,3.052,3.0472,3.0411,3.0371,3.0375,3.0359,3.0355,0.0,3.0447,3.046,3.046,3.0549,3.0622,3.0689,3.0716,3.0751,3.0792,3.0761,3.0723,3.0691,3.0633,3.0602,3.0598,3.0559,3.0559,3.0598,3.0598,3.0598,3.0598,3.0598,3.0598,3.0598,3.0598,3.0598,3.0598,3.0598,3.0598,3.0598,3.0598,3.0598,3.0598,3.0598,3.0598,3.0598,3.0598,3.0598,3.0598,2.3864,0.0,0.0,0.0,2.3735,0.0,0.0,0.0,2.4582,0.0,2.5026,2.5232,2.5362,2.549,2.592,2.6844,2.7002,2.7419,2.8276,2.8283,0.0,0.0,2.8255,2.8175,2.8067,0.0,0.0,2.7836,2.7777,2.821,2.909,2.9201,0.0,0.0,3.053,0.0,3.0711,3.0691,3.0774,3.0898,3.0898,3.0856,3.0801,3.0799,3.0799,3.0796,3.0799,3.0739,3.0697,3.062,3.0593,3.0605,3.0605,3.0605,3.06,3.0686,3.0701,3.0672,3.0612,3.0601,3.0593,3.0599,3.0609,3.0593,3.06,3.0607,3.06,3.06,3.0509,3.0443,3.0581,3.0434,3.0359,3.0472,3.0442,3.0439,3.0579,3.0588,3.0588,3.0588,3.0595,3.0642,3.0691,3.0637,3.0671,3.0792,3.0673,3.0644,3.0696,3.0633,3.0595,3.0598,3.0598,3.0598,3.0598,3.0598,3.0598,3.0598,3.0598,3.0598,3.0598,3.0598,3.0598,3.0598,3.0598,3.0598,3.0598,3.0598,3.0598,3.0598,3.0598,3.0598,3.0598,3.0598,3.0598,3.0598,2.4097,2.4302,2.4409,0.0,2.4155,2.4173,0.0,0.0,0.0,0.0,2.5815,2.6359,2.6532,2.7169,2.7453,2.7226,2.7616,0.0,0.0,0.0,0.0,2.8179,2.9311,2.9678,2.9051,2.9649,2.9913,2.9857,2.9838,2.9949,3.0191,3.0211,0.0,0.0,0.0,0.0,3.0691,3.0742,3.0829,3.0898,3.0853,3.0825,3.0799,3.0735,3.0682,3.065,3.0715,3.0677,3.062,3.06,3.0595,3.0595,3.0595,3.0595,3.0604,3.0629,3.0629,3.0614,3.0607,3.0606,3.0608,3.0664,3.068,3.0661,3.0675,3.068,3.0667,3.0667,3.065,3.062,3.0607,3.0516,3.0443,0.0,0.0,0.0,0.0,0.0,0.0,3.0449,3.0546,3.0603,3.0621,3.0665,3.0697,3.0712,3.074,3.0726,3.0696,3.0633,3.0595,3.0598,3.0598,3.0598,3.0598,3.0598,3.0598,3.0598,3.0598,3.0598,3.0598,3.0598,3.0598,3.0598,3.0598,3.0598,3.0598,3.0598,3.0598,3.0598,3.0598,3.0598,3.0598,3.0598,3.0598,3.0598,2.4508,0.0,0.0,2.5246,0.0,0.0,2.5329,2.5779,0.0,2.6443,2.6997,0.0,2.7519,2.7946,2.8211,2.8215,2.8527,0.0,2.9636,0.0,0.0,2.9258,3.0136,3.0429,2.9972,3.0428,0.0,3.0642,3.0603,3.0601,3.0637,0.0,0.0,0.0,0.0,3.0672,3.0758,3.0775,3.082,3.0855,3.0774,3.0732,0.0,3.0667,3.0633,3.0607,3.0632,3.0618,3.0599,3.0599,3.0604,3.0598,3.0598,3.0598,3.0598,3.0598,3.0598,3.0588,3.0602,3.0599,3.0603,3.0658,3.0657,3.066,3.0658,3.0681,3.0699,3.0699,3.0696,3.0715,3.0728,3.0633,3.0535,0.0,0.0,0.0,0.0,0.0,0.0,0.0,3.0548,3.0602,3.0607,3.0659,3.0711,3.0711,3.0753,3.0756,3.0661,3.0653,3.0632,3.0598,3.0598,3.0598,3.0598,3.0598,3.0598,3.0598,3.0598,3.0598,3.0598,3.0598,3.0598,3.0598,3.0598,3.0598,3.0598,3.0598,3.0598,3.0598,3.0598,3.0598,3.0598,3.0598,3.0598,3.0598,2.5264,0.0,0.0,0.0,0.0,0.0,0.0,2.7392,0.0,2.8013,0.0,2.8366,2.8364,2.8415,2.8738,2.9484,2.9562,2.9878,3.0643,3.0682,3.0682,3.0682,3.0706,3.0706,3.0701,3.0641,3.0634,0.0,0.0,0.0,0.0,0.0,0.0,0.0,0.0,0.0,0.0,3.0796,3.0799,3.0774,3.072,3.065,3.0593,3.0605,3.0591,3.0598,3.0598,3.0598,3.0598,3.0598,3.0598,3.0598,3.0598,3.0598,3.0598,3.0598,3.0598,3.0598,3.0598,3.0598,3.0597,3.0603,3.0605,3.0607,3.0599,3.0653,3.0702,3.0703,3.0712,3.0752,3.0877,3.0732,3.0605,0.0,0.0,0.0,0.0,0.0,0.0,0.0,0.0,0.0,3.0597,3.0652,3.0701,3.0701,3.0762,3.0739,3.0609,3.0654,3.0678,3.0607,3.0598,3.0598,3.0598,3.0598,3.0598,3.0598,3.0598,3.0598,3.0598,3.0598,3.0598,3.0598,3.0598,3.0598,3.0598,3.0598,3.0598,3.0598,3.0598,3.0598,3.0598,3.0598,3.0598,3.0598,2.6917,0.0,0.0,0.0,0.0,2.8907,2.8867,2.832,2.7967,2.8143,2.8752,2.9199,2.9199,2.9814,3.0283,3.0387,3.04,0.0,0.0,0.0,0.0,3.0621,3.0678,3.0667,3.0614,3.0658,3.0696,0.0,0.0,3.0689,3.0711,0.0,0.0,0.0,0.0,0.0,3.0792,3.0804,0.0,3.0715,3.0639,3.0607,3.0605,3.0593,3.0597,3.0598,3.0598,3.0598,3.0598,3.0598,3.0598,3.0598,3.0598,3.0598,3.0598,3.0598,3.0598,3.0598,3.0598,3.0598,3.0598,3.0597,3.0607,3.06,3.0607,3.0658,3.0723,3.0765,3.0772,3.078,3.0811,3.0735,3.0672,3.0681,3.0681,0.0,0.0,0.0,0.0,0.0,0.0,3.0726,3.0605,3.062,3.0614,3.0614,3.0728,3.0739,3.0609,3.0654,3.0678,3.0607,3.0598,3.0598,3.0598,3.0598,3.0598,3.0598,3.0598,3.0598,3.0598,3.0598,3.0598,3.0598,3.0598,3.0598,3.0598,3.0598,3.0598,3.0598,3.0598,3.0598,3.0598,3.0598,3.0598,3.0598,0.0,0.0,0.0,0.0,0.0,0.0,0.0,2.9613,2.935,2.9489,2.979,3.0016,3.0016,3.04,3.0637,3.0591,3.061,3.0613,3.0598,3.0604,3.0604,3.0598,3.0626,3.063,3.061,3.063,3.0639,3.0657,3.0657,3.0675,3.0703,3.0696,0.0,0.0,0.0,3.0747,0.0,0.0,3.0691,3.0658,3.0603,3.061,3.0602,3.0597,3.0598,3.0598,3.0598,3.0598,3.0598,3.0598,3.0598,3.0598,3.0598,3.0598,3.0598,3.0598,3.0598,3.0598,3.0598,3.0598,3.0598,3.0598,3.0595,3.061,3.061,3.0613,3.0656,3.0697,3.0724,3.0735,3.0702,3.0698,3.0682,3.0645,3.0685,3.0711,0.0,0.0,3.0711,0.0,0.0,0.0,0.0,3.065,3.0633,3.06,3.0724,3.0739,3.0609,3.0654,3.0678,3.0607,3.0598,3.0598,3.0598,3.0598,3.0598,3.0598,3.0598,3.0598,3.0598,3.0598,3.0598,3.0598,3.0598,3.0598,3.0598,3.0598,3.0598,3.0598,3.0598,3.0598,3.0598,3.0598,3.0598,3.0598,0.0,2.9182,0.0,0.0,3.0215,3.0659,3.0612,3.0603,3.0614,3.0667,3.0639,3.061,3.061,3.0604,3.0598,3.0598,3.0598,3.0598,3.0598,3.0598,3.0598,3.0598,3.0598,3.0598,3.0598,3.0598,3.0604,3.0593,3.0592,3.0619,3.0691,3.0708,0.0,0.0,0.0,0.0,3.0691,3.062,3.0605,3.0603,3.0586,3.0598,3.0598,3.0598,3.0598,3.0598,3.0598,3.0598,3.0598,3.0598,3.0598,3.0598,3.0598,3.0598,3.0598,3.0598,3.0598,3.0598,3.0598,3.0598,3.0598,3.0598,3.0598,3.0598,3.0598,3.0602,3.0591,3.0593,3.065,3.0681,3.0632,3.0652,3.0683,3.0659,3.0669,3.0713,3.0739,0.0,3.0726,0.0,0.0,0.0,3.0696,3.0708,3.0691,3.0623,3.0739,3.0739,3.0609,3.0654,3.0678,3.0607,3.0598,3.0598,3.0598,3.0598,3.0598,3.0598,3.0598,3.0598,3.0598,3.0598,3.0598,3.0598,3.0598,3.0598,3.0598,3.0598,3.0598,3.0598,3.0598,3.0598,3.0598,3.0598,3.0598,3.0598,0.0,0.0,0.0,0.0,0.0,3.0609,3.0594,3.06,3.06,3.0607,3.0591,3.0597,3.0597,3.0607,3.0598,3.0598,3.0598,3.0598,3.0598,3.0598,3.0598,3.0598,3.0598,3.0598,3.0598,3.0598,3.0604,3.0593,3.06,3.0639,3.0711,3.07,3.07,3.0711,3.0711,3.0661,3.0607,3.06,3.0595,3.0588,3.0598,3.0598,3.0598,3.0598,3.0598,3.0598,3.0598,3.0598,3.0598,3.0598,3.0598,3.0598,3.0598,3.0598,3.0598,3.0598,3.0598,3.0598,3.0598,3.0598,3.0598,3.0598,3.0598,3.0598,3.0598,3.0607,3.0595,3.0598,3.065,3.0691,3.0696,3.07,3.0716,3.0765,3.0732,3.0735,3.0859,0.0,3.0816,3.0879,0.0,0.0,3.0702,3.0747,3.0762,3.0701,3.0751,3.0739,3.0609,3.0654,3.0678,3.0607,3.0598,3.0598,3.0598,3.0598,3.0598,3.0598,3.0598,3.0598,3.0598,3.0598,3.0598,3.0598,3.0598,3.0598,3.0598,3.0598,3.0598,3.0598,3.0598,3.0598,3.0598,3.0598,3.0598,3.0598,0.0,0.0,0.0,0.0,0.0,3.0606,3.0599,3.0593,3.0593,3.0593,3.0606,3.0598,3.0598,3.0598,3.0598,3.0598,3.0598,3.0598,3.0598,3.0598,3.0598,3.0598,3.0598,3.0598,3.0598,3.0598,3.0597,3.0593,3.0593,3.0618,3.063,3.0639,3.0639,3.0639,3.0632,3.0634,3.0593,3.0593,3.0595,3.0598,3.0598,3.0598,3.0598,3.0598,3.0598,3.0598,3.0598,3.0598,3.0598,3.0598,3.0598,3.0598,3.0598,3.0598,3.0598,3.0598,3.0598,3.0598,3.0598,3.0598,3.0598,3.0598,3.0598,3.0598,3.0598,3.0598,3.0607,3.0613,3.0626,3.0649,3.0649,3.0646,3.0645,3.0686,3.0687,3.0728,3.0777,3.0794,0.0,3.0843,0.0,3.0827,3.0767,3.078,3.0781,3.0758,3.0778,3.0778,3.0726,3.0712,3.0675,3.0607,3.0606,3.0598,3.0598,3.0598,3.0598,3.0598,3.0598,3.0598,3.0598,3.0598,3.0598,3.0598,3.0598,3.0598,3.0598,3.0598,3.0598,3.0598,3.0598,3.0598,3.0598,3.0598,3.0607,3.0597,3.0599,3.0633,3.0664,3.061,3.0595,3.0599,3.0607,3.0598,3.0598,3.0598,3.0598,3.0598,3.0598,3.0598,3.0598,3.0598,3.0598,3.0598,3.0598,3.0598,3.0598,3.0598,3.0598,3.0598,3.0598,3.0598,3.0598,3.0598,3.0598,3.0598,3.0598,3.061,3.0595,3.0595,3.0606,3.0598,3.0598,3.0598,3.0598,3.0598,3.0598,3.0598,3.0598,3.0598,3.0598,3.0598,3.0598,3.0598,3.0598,3.0598,3.0598,3.0598,3.0598,3.0598,3.0598,3.0598,3.0598,3.0598,3.0598,3.0598,3.0598,3.0598,3.0598,3.0598,3.0598,3.0598,3.0598,3.0598,3.0598,3.0598,3.0598,3.0593,3.061,3.0593,3.0633,3.0691,3.07,3.0739,0.0,3.0807,3.0791,3.0788,3.0774,3.0786,3.0792,3.0771,3.0799,3.0781,3.0774,3.0728,3.0681,3.0591,3.0595,3.0598,3.0588,3.0598,3.0607,3.0597,3.0607,3.0598,3.0607,3.0598,3.0598,3.0598,3.0598,3.0598,3.0598,3.0598,3.0598,3.0598,3.0607,3.0588,3.0588,3.0597,3.0586,3.0604,3.0614,3.06,3.0591,3.0597,3.0598,3.0598,3.0598,3.0598,3.0598,3.0598,3.0598,3.0598,3.0598,3.0598,3.0598,3.0598,3.0598,3.0598,3.0598,3.0598,3.0598,3.0598,3.0598,3.0598,3.0598,3.0598,3.0598,3.0598,3.0598,3.0598,3.0598,3.0598,3.0598,3.0598,3.0598,3.0598,3.0598,3.0598,3.0598,3.0598,3.0598,3.0598,3.0598,3.0598,3.0598,3.0598,3.0598,3.0598,3.0598,3.0598,3.0598,3.0598,3.0598,3.0598,3.0598,3.0598,3.0598,3.0598,3.0598,3.0598,3.0598,3.0598,3.0598,3.0598,3.0598,3.0598,3.0598,3.0598,3.0598,3.0598,3.0598,3.0598,3.0595,3.0598,3.0607,3.0622,3.0691,3.0691,3.0721,3.0786,3.0795,3.0769,3.0708,3.0762,3.0762,3.0714,3.0754,3.0774,3.0704,3.0696,3.0664,3.0604,3.0597,3.0588,3.0595,3.0588,3.0597,3.0602,3.0597,3.0597,3.0595,3.0588,3.0598,3.0598,3.0598,3.0598,3.0598,3.0598,3.0598,3.0598,3.0606,3.0595,3.0604,3.0602,3.0602,3.0602,3.0593,3.0604,3.0595,3.0607,3.0598,3.0598,3.0598,3.0598,3.0598,3.0598,3.0598,3.0598,3.0598,3.0598,3.0598,3.0598,3.0598,3.0598,3.0598,3.0598,3.0598,3.0598,3.0598,3.0598,3.0598,3.0598,3.0598,3.0598,3.0598,3.0598,3.0598,3.0598,3.0598,3.0598,3.0598,3.0598,3.0598,3.0598,3.0598,3.0598,3.0598,3.0598,3.0598,3.0598,3.0598,3.0598,3.0598,3.0598,3.0598,3.0598,3.0598,3.0598,3.0598,3.0598,3.0598,3.0598,3.0598,3.0598,3.0598,3.0598,3.0598,3.0598,3.0598,3.0598,3.0598,3.0598,3.0598,3.0598,3.0598,3.0598,3.0598,3.0598,3.0607,3.0604,3.0604,3.0621,3.063,3.063,3.0671,3.0722,3.0734,3.0722,3.0698,3.0726,3.0716,3.07,3.0758,3.0762,3.0704,3.0697,3.0697,3.0664,3.061,3.0604,3.0593,3.0604,3.0604,3.0604,3.0595,3.0597,3.0588,3.0598,3.0598,3.0598,3.0598,3.0598,3.0598,3.0597,3.0606,3.0606,3.0613,3.0593,3.0602,3.0602,3.0637,3.0657,3.0598,3.0598,3.0598,3.0598,3.055,3.052,3.0588,3.055,3.052,3.0598,3.0598,3.0598,3.0598,3.0598,3.0598,3.0598,3.0598,3.0598,3.0598,3.0598,3.0598,3.0598,3.0598,3.0598,3.0598,3.0598,3.0598,3.0598,3.0598,3.0598,3.0598,3.0598,3.0598,3.0598,3.0598,3.0598,3.0598,3.0598,3.0598,3.0598,3.0598,3.0598,3.0598,3.0598,3.0598,3.0598,3.0598,3.0598,3.0598,3.0598,3.0598,3.0598,3.0598,3.0598,3.0598,3.0598,3.0598,3.0598,3.0598,3.0598,3.0598,3.0598,3.0598,3.0598,3.0598,3.0598,3.0598,3.0588,3.0597,3.0597,3.0606,3.0606,3.0606,3.0606,3.0623,3.064,3.064,3.0637,3.0649,3.0697,3.0704,3.0704,3.0704,3.0695,3.0701,3.0701,3.075,3.0745,3.07,3.0709,3.071,3.0697,3.0634,3.061,3.0637,3.0602,3.0621,3.064,3.0604,3.0586,3.0597,3.0597,3.0597,3.0606,3.0606,3.0606,3.0606,3.0604,3.0613,3.0593,3.0629,3.0637,3.0637,3.0602,3.0621,3.064,3.0579,3.0579,3.0579,3.0579,3.0419,3.0348,3.054,3.0419,3.0348,3.055,3.0579,3.0579,3.0588,3.0588,3.0588,3.0588,3.0598,3.0598,3.0598,3.0598,3.0598,3.0598,3.0598,3.0598,3.0598,3.0598,3.0598,3.0598,3.0598,3.0598,3.0598,3.0598,3.0598,3.0598,3.0598,3.0598,3.0598,3.0598,3.0598,3.0598,3.0569,3.0588,3.0588,3.0588,3.0588,3.0588,3.0598,3.0598,3.0598,3.0598,3.0598,3.0598,3.0598,3.0598,3.0598,3.0598,3.0598,3.0598,3.0598,3.0598,3.0598,3.0598,3.0598,3.0598,3.0598,3.0598,3.0607,3.0595,3.0595,3.0604,3.0602,3.0602,3.0602,3.0602,3.0645,3.07,3.07,3.0695,3.0691,3.0695,3.07,3.07,3.07,3.07,3.0709,3.0704,3.0697,3.0703,3.0688,3.0698,3.0698,3.07,3.0637,3.0637,3.07,3.064,3.064,3.07,3.064,3.0595,3.0604,3.0604,3.0613,3.0602,3.0602,3.0602,3.0602,3.061,3.061,3.061,3.0673,3.07,3.0692,3.0613,3.0595,3.0577,3.0228,3.0235,3.0235,3.0235,3.019,3.0157,3.0203,3.0177,3.0157,3.0203,3.0235,3.0253,3.0348,3.0359,3.0359,3.0359,3.051,3.0598,3.0598,3.0598,3.0598,3.0598,3.0598,3.0598,3.0598,3.0598,3.0598,3.0598,3.0598,3.0598,3.0598,3.0598,3.0598,3.0598,3.0598,3.0598,3.0598,3.0598,3.0598,3.0588,3.043,3.0359,3.0359,3.0359,3.0359,3.0389,3.053,3.0598,3.0598,3.0598,3.0598,3.0598,3.0598,3.0598,3.0598,3.0598,3.0598,3.0598,3.0598,3.0598,3.0598,3.0598,3.0598,3.0598,3.0598,3.0598,3.0607,3.0595,3.0595,3.0604,3.0602,3.0602,3.0602,3.0602,3.061,3.061,3.061,3.0618,3.0634,3.0683,3.071,3.071,3.071,3.0704,3.0704,3.0709,3.0698,3.0691,3.0695,3.0704,3.069,3.07,3.0668,3.0683,3.0703,3.068,3.0665,3.061,3.0613,3.0604,3.0602,3.0602,3.0602,3.0602,3.0602,3.0602,3.061,3.0665,3.0673,3.0673,3.0695,3.068,3.0613,3.0604,3.054,3.0432,3.0103,3.0109,3.0109,3.0109,3.0052,3.0022,3.0095,3.0052,3.0022,3.0095,3.0109,3.0117,3.0196,3.0209,3.0234,3.0294,3.0481,3.0559,3.0471,3.055,3.0598,3.0598,3.0598,3.0598,3.0598,3.0598,3.0598,3.0598,3.0598,3.0598,3.0598,3.0598,3.055,3.0471,3.0559,3.055,3.0471,3.0559,3.0598,3.0588,3.0389,3.0348,3.043,3.0337,3.0359,3.0441,3.0559,3.0598,3.0598,3.0598,3.0598,3.0598,3.0598,3.0598,3.0598,3.0598,3.0598,3.0598,3.0598,3.0598,3.0598,3.0598,3.0598,3.0598,3.0598,3.0598,3.0607,3.0595,3.0604,3.0621,3.0637,3.0653,3.0653,3.0653,3.0653,3.0653,3.0653,3.0653,3.0661,3.0695,3.0695,3.0695,3.0695,3.0703,3.0704,3.0691,3.0711,3.0711,3.0703,3.0691,3.071,3.0695,3.071,3.069,3.069,3.0688,3.0665,3.0602,3.0593,3.0621,3.0637,3.0637,3.0645,3.0653,3.0653,3.0653,3.0661,3.0668,3.0695,3.0695,3.071,3.0653,3.0595,3.052,3.0442,3.0344,3.0037,3.0037,3.0037,3.0037,2.9953,2.9905,3.0022,2.9934,2.9905,3.0022,3.0037,3.0052,3.0066,3.0066,3.0122,3.0234,3.0409,3.0471,3.0348,3.0481,3.0559,3.0598,3.0598,3.0598,3.0598,3.0559,3.0559,3.0559,3.052,3.051,3.051,3.055,3.0451,3.0306,3.051,3.051,3.0359,3.052,3.0598,3.0588,3.0389,3.04,3.055,3.0378,3.04,3.0559,3.0588,3.0598,3.0598,3.0598,3.0598,3.0598,3.0598,3.0598,3.0598,3.0598,3.0598,3.0598,3.0598,3.0598,3.0598,3.0598,3.0598,3.0598,3.0598,3.0598,3.0607,3.0595,3.0593,3.061,3.07,3.0695,3.071,3.069,3.069,3.069,3.069,3.069,3.069,3.069,3.069,3.069,3.069,3.069,3.069,3.069,3.069,3.069,3.069,3.069,3.069,3.069,3.069,3.069,3.071,3.0707,3.0673,3.061,3.061,3.0645,3.0707,3.0707,3.0695,3.069,3.069,3.069,3.069,3.069,3.069,3.069,3.069,3.0653,3.0558,3.0433,3.0337,3.0267,2.979,2.9755,2.9755,2.9755,2.9737,2.9738,2.9755,2.9737,2.9738,2.9755,2.9755,2.9808,2.9921,2.9937,2.9953,2.995,3.0095,3.0285,3.055,3.0411,3.043,3.0598,3.0598,3.0598,3.0598,3.043,3.0348,3.0348,3.0241,3.0177,3.0177,3.0302,3.0337,3.0306,3.051,3.0588,3.0559,3.0588,3.0598,3.0588,3.0389,3.0317,3.0348,3.0306,3.0317,3.0359,3.055,3.0598,3.0598,3.0598,3.0598,3.0598,3.0598,3.0598,3.0598,3.0598,3.0598,3.0598,3.0598,3.0598,3.0598,3.0598,3.0598,3.0598,3.0598,3.0598,3.0588,3.0593,3.0593,3.0621,3.0695,3.0695,3.0688,3.071,3.069,3.069,3.069,3.069,3.069,3.069,3.069,3.069,3.069,3.069,3.069,3.069,3.069,3.069,3.069,3.069,3.069,3.069,3.069,3.0703,3.0707,3.07,3.07,3.0673,3.0673,3.0688,3.071,3.071,3.071,3.069,3.069,3.069,3.069,3.069,3.069,3.069,3.069,3.0582,3.0423,3.0413,3.0321,3.0213,2.9701,2.9701,2.9701,2.9701,2.9701,2.9701,2.9701,2.9701,2.9701,2.9701,2.9701,2.9719,2.979,2.979,2.9806,2.9888,2.9888,3.0011,3.0297,3.0314,3.0314,3.034,3.0409,3.0409,3.034,3.0409,3.04,3.0306,3.0234,3.0209,3.0209,3.0196,3.0144,3.0095,3.026,3.034,3.034,3.0409,3.0441,3.043,3.0348,3.0306,3.0306,3.0306,3.0378,3.0481,3.0559,3.0598,3.0598,3.0598,3.0598,3.0598,3.0598,3.0598,3.0598,3.0598,3.0598,3.0598,3.0598,3.0598,3.0598,3.0598,3.0598,3.0598,3.0598,3.0607,3.0606,3.0604,3.0621,3.0665,3.0688,3.0695,3.0703,3.069,3.069,3.069,3.069,3.069,3.069,3.069,3.069,3.069,3.069,3.069,3.069,3.069,3.069,3.069,3.069,3.069,3.069,3.069,3.069,3.071,3.0695,3.0695,3.0695,3.0695,3.0695,3.0703,3.069,3.069,3.069,3.069,3.069,3.069,3.069,3.069,3.069,3.071,3.0661,3.0548,3.0402,3.0348,3.0279,3.0204,2.9701,2.9701,2.9701,2.9701,2.9701,2.9701,2.9701,2.9701,2.9701,2.9701,2.9701,2.9701,2.9701,2.9701,2.9738,2.9841,2.9774,2.979,2.9977,3.0131,3.0184,3.0144,3.0247,3.0234,3.0089,3.0328,3.0375,3.0234,3.0196,3.0184,3.0184,3.0103,3.0007,2.9905,3.0037,3.0109,3.0122,3.0247,3.0306,3.0306,3.0348,3.0359,3.0359,3.0359,3.0471,3.0598,3.0598,3.0598,3.0598,3.0598,3.0598,3.0598,3.0598,3.0598,3.0607,3.0607,3.0588,3.0588,3.0598,3.0598,3.0598,3.0598,3.0607,3.0607,3.0607,3.0606,3.0604,3.0613,3.0657,3.0673,3.0707,3.0695,3.071,3.069,3.069,3.069,3.069,3.069,3.069,3.069,3.069,3.069,3.069,3.069,3.069,3.069,3.069,3.069,3.069,3.069,3.069,3.069,3.069,3.069,3.069,3.069,3.069,3.069,3.069,3.069,3.069,3.069,3.069,3.069,3.069,3.069,3.069,3.069,3.069,3.069,3.0645,3.053,3.0392,3.0344,3.0267,3.0204,2.9701,2.9701,2.9701,2.9701,2.9701,2.9701,2.9701,2.9701,2.9701,2.9701,2.9701,2.9701,2.9701,2.9701,2.9701,2.9701,2.972,2.972,2.9719,2.9857,3.0037,3.0283,3.0294,3.0234,3.0089,2.9996,2.9965,3.0022,2.9905,2.9841,2.9841,2.995,2.9981,2.9905,3.0037,3.0109,3.0122,3.0247,3.0306,3.0306,3.0491,3.0588,3.0588,3.0588,3.0588,3.0598,3.0598,3.0598,3.0598,3.0598,3.0598,3.0598,3.0598,3.0597,3.0595,3.0595,3.0604,3.0593,3.0607,3.0598,3.0598,3.0598,3.0597,3.0595,3.0595,3.0593,3.0629,3.0673,3.0637,3.0618,3.0683,3.0695,3.0707,3.071,3.069,3.069,3.069,3.069,3.069,3.069,3.069,3.069,3.069,3.069,3.069,3.069,3.069,3.069,3.069,3.069,3.069,3.069,3.069,3.069,3.069,3.069,3.069,3.069,3.069,3.069,3.069,3.069,3.069,3.069,3.069,3.069,3.069,3.069,3.069,3.069,3.069,3.0574,3.0402,3.0402,3.0309,3.0204,2.9823,2.979,2.9755,2.9755,2.9719,2.9701,2.9701,2.9701,2.9701,2.9701,2.9701,2.9701,2.9701,2.9701,2.9701,2.9701,2.9701,2.9701,2.9701,2.979,2.9905,3.0037,3.0089,3.0052,2.9921,3.0104,3.018,3.0123,3.0064,3.0003,2.9918,2.9888,2.9841,2.9773,2.9823,2.9905,2.9981,3.0022,3.008,3.0117,3.0297,3.0297,3.0248,3.0458,3.049,3.0441,3.0559,3.0597,3.0598,3.0595,3.0595,3.0606,3.0606,3.0595,3.0593,3.0593,3.0602,3.0602,3.0604,3.0604,3.0604,3.0604,3.0604,3.0593,3.0593,3.0629,3.0673,3.07,3.068,3.0676,3.071,3.0703,3.0703,3.069,3.069,3.069,3.069,3.069,3.069,3.069,3.069,3.069,3.069,3.069,3.069,3.069,3.069,3.069,3.069,3.069,3.069,3.069,3.069,3.069,3.069,3.069,3.069,3.069,3.069,3.069,3.069,3.069,3.069,3.069,3.069,3.069,3.069,3.069,3.069,3.0683,3.0565,3.0482,3.0392,3.0316,3.0234,3.0204,2.9907,2.9841,2.9808,2.9823,2.979,2.9756,2.9738,2.9738,2.9719,2.9683,2.9701,2.9701,2.9701,2.9701,2.9701,2.9701,2.9719,2.9738,2.9738,2.979,2.9857,2.9888,2.9996,3.0,2.9823,3.0109,3.0226,3.0176,3.0128,3.0064,2.9965,2.9857,2.9755,2.9701,2.9701,2.9756,2.9841,2.9905,2.9965,3.0007,3.0196,3.0177,3.0095,3.0394,3.0419,3.0317,3.054,3.0606,3.0607,3.0595,3.0595,3.0606,3.0595,3.0613,3.0637,3.0626,3.0626,3.0626,3.0626,3.0626,3.0626,3.061,3.061,3.0637,3.0637,3.0673,3.0688,3.0688,3.0703,3.069,3.069,3.069,3.069,3.069,3.069,3.069,3.069,3.069,3.069,3.069,3.069,3.069,3.069,3.069,3.069,3.069,3.069,3.069,3.069,3.069,3.069,3.069,3.069,3.069,3.069,3.069,3.069,3.069,3.069,3.069,3.069,3.069,3.069,3.069,3.069,3.069,3.069,3.069,3.069,3.0683,3.051,3.0442,3.0392,3.0267,3.0213,3.0204,2.9891,2.9841,2.9806,2.9888,2.9888,2.9891,2.9825,2.9808,2.9773,2.972,2.9701,2.9701,2.9701,2.9701,2.9701,2.9701,2.9755,2.9808,2.9808,2.9874,2.9888,2.9888,3.0079,3.0113,2.9924,2.9888,2.9972,3.0102,2.9972,2.9888,2.9888,2.9823,2.9774,2.9701,2.9701,2.9701,2.9701,2.9902,2.9992,3.0022,3.0286,3.0323,3.0228,3.0419,3.043,3.0317,3.054,3.0606,3.0598,3.0598,3.0598,3.0607,3.0595,3.0649,3.0707,3.071,3.069,3.069,3.069,3.069,3.0683,3.0618,3.0645,3.07,3.07,3.0695,3.069,3.069,3.069,3.069,3.069,3.069,3.069,3.069,3.069,3.069,3.069,3.069,3.069,3.069,3.069,3.069,3.069,3.069,3.069,3.069,3.069,3.069,3.069,3.069,3.069,3.069,3.069,3.069,3.069,3.069,3.069,3.069,3.069,3.069,3.069,3.069,3.069,3.069,3.069,3.069,3.069,3.069,3.069,3.0683,3.0621,3.0511,3.0392,3.0321,3.026,3.0204,3.0113,3.0053,3.0026,3.0038,2.9907,2.9823,2.9808,2.9755,2.9719,2.9701,2.9738,2.9773,2.9773,2.9806,2.9841,2.9841,2.9857,2.9907,2.9991,3.0022,3.0068,3.0113,3.0113,3.0102,3.0038,3.0083,3.0128,3.0176,3.0128,3.0034,2.9888,2.9975,2.9926,2.9773,2.9806,2.9841,2.9841,2.9905,2.9984,3.0083,3.0157,3.0171,3.0152,3.0352,3.0386,3.0333,3.0586,3.0649,3.0613,3.0645,3.0637,3.0613,3.0657,3.0673,3.0707,3.071,3.069,3.069,3.069,3.069,3.071,3.0676,3.0695,3.0703,3.0703,3.071,3.069,3.069,3.069,3.069,3.069,3.069,3.069,3.069,3.069,3.069,3.069,3.069,3.069,3.069,3.069,3.069,3.069,3.069,3.069,3.069,3.069,3.069,3.069,3.069,3.069,3.069,3.069,3.069,3.069,3.069,3.069,3.069,3.069,3.069,3.069,3.069,3.069,3.069,3.069,3.069,3.069,3.069,3.0668,3.0621,3.0492,3.0411,3.0321,3.026,3.0213,3.0204,3.0185,3.0147,3.0102,3.0132,3.0038,2.9959,2.9926,2.9876,2.9844,2.979,2.9806,2.9841,2.9841,2.9891,2.9888,2.9888,2.9956,3.0019,3.0132,3.0147,3.0161,3.0204,3.0161,3.0147,3.0147,3.019,3.0204,3.0204,3.0176,3.0098,2.9972,3.0007,2.9959,2.9841,2.9872,2.9888,2.9888,2.9956,3.0022,3.0102,3.0132,3.0117,3.0117,3.0292,3.0316,3.0299,3.0501,3.0567,3.0567,3.0602,3.0637,3.0645,3.0692,3.0707,3.0695,3.071,3.069,3.069,3.069,3.069,3.069,3.069,3.069,3.069,3.069,3.069,3.069,3.069,3.069,3.069,3.069,3.069,3.069,3.069,3.069,3.069,3.069,3.069,3.069,3.069,3.069,3.069,3.069,3.069,3.069,3.069,3.069,3.069,3.069,3.069,3.069,3.069,3.069,3.069,3.069,3.069,3.069,3.069,3.069,3.069,3.069,3.069,3.069,3.069,3.069,3.069,3.069,3.0668,3.0637,3.0586,3.0422,3.0344,3.0292,3.0226,3.0204,3.0204,3.019,3.0161,3.0132,3.019,3.0204,3.0176,3.0102,3.0087,3.0038,2.9924,2.9905,2.9924,2.9924,2.9921,2.994,2.994,3.0038,3.0132,3.0204,3.0204,3.0204,3.0204,3.0204,3.0204,3.0204,3.0204,3.0204,3.0204,3.0147,3.0102,3.0102,2.9972,2.9921,2.9924,2.9921,2.994,2.9921,3.0053,3.0102,3.0117,3.0176,3.0161,3.0132,3.0241,3.0273,3.0226,3.0352,3.046,3.0501,3.053,3.0595,3.07,3.07,3.0695,3.069,3.069,3.069,3.069,3.069,3.069,3.069,3.069,3.069,3.069,3.069,3.069,3.069,3.069,3.069,3.069,3.069,3.069,3.069,3.069,3.069,3.069,3.069,3.069,3.069,3.069,3.069,3.069,3.069,3.069,3.069,3.069,3.069,3.069,3.069,3.069,3.069,3.069,3.069,3.069,3.069,3.069,3.069,3.069,3.069,3.069,3.069,3.069,3.069,3.069,3.069,3.069,3.069,3.0629,3.0595,3.0558,3.0375,3.0304,3.0279,3.0226,3.0204,3.0204,3.0204,3.019,3.0171,3.0204,3.0161,3.0117,3.0102,3.0022,2.994,2.9905,2.9988,3.0072,3.0072,3.0098,3.0142,3.0142,3.0157,3.0171,3.0204,3.0204,3.0204,3.0204,3.0204,3.0204,3.0204,3.0204,3.0204,3.0204,3.019,3.0161,3.0102,3.0113,3.0098,3.0053,3.0113,3.0142,3.0142,3.0176,3.019,3.019,3.0185,3.0204,3.0204,3.0267,3.0292,3.0292,3.0378,3.0482,3.0586,3.064,3.068,3.0703,3.0707,3.0695,3.069,3.069,3.069,3.069,3.069,3.069,3.069,3.069,3.069,3.069,3.069,3.069,3.069,3.069,3.069,3.069,3.069,3.069,3.069,3.069,3.069,3.069,3.069,3.069,3.069,3.069,3.069,3.069,3.069,3.069,3.069,3.069,3.069,3.069,3.069,3.069,3.069,3.069,3.069,3.069,3.069,3.069,3.069,3.069,3.069,3.069,3.069,3.069,3.069,3.069,3.069,3.069,3.069,3.0629,3.0549,3.0423,3.0333,3.0273,3.0226,3.0218,3.0204,3.0204,3.0204,3.0204,3.0204,3.0204,3.0176,3.0147,3.0147,3.0098,3.0034,3.0034,3.0098,3.0147,3.0147,3.019,3.0204,3.0204,3.0204,3.0204,3.0204,3.0204,3.0204,3.0204,3.0204,3.0204,3.0204,3.0204,3.0204,3.0204,3.0204,3.019,3.0147,3.0171,3.019,3.0147,3.0171,3.0204,3.0204,3.0204,3.0204,3.0204,3.0204,3.0204,3.0199,3.0234,3.026,3.0273,3.0333,3.0462,3.0604,3.068,3.0703,3.069,3.0703,3.0703,3.069,3.069,3.069,3.069,3.069,3.069,3.069,3.069,3.069,3.069,3.069,3.069,3.069,3.069,3.069,3.069,3.069,3.069,3.069,3.069,3.069,3.069,3.069,3.069,3.069,3.069,3.069,3.069,3.069,3.069,3.069,3.069,3.069,3.069,3.069,3.069,3.069,3.069,3.069,3.069,3.069,3.069,3.069,3.069,3.069,3.069,3.069,3.069,3.069,3.069,3.069,3.0676,3.0645,3.0558,3.0442,3.0356,3.0279,3.024,3.0204,3.0204,3.0204,3.0204,3.0204,3.0204,3.0204,3.0204,3.0204,3.0204,3.0204,3.0204,3.0204,3.0204,3.0204,3.0204,3.0204,3.0204,3.0204,3.0204,3.0204,3.0204,3.0204,3.0204,3.0204,3.0204,3.0204,3.0204,3.0204,3.0204,3.0204,3.0204,3.0204,3.0204,3.0204,3.0204,3.0204,3.0204,3.0204,3.0204,3.0204,3.0204,3.0204,3.0204,3.0204,3.0204,3.0223,3.0357,3.0414,3.0428,3.0637,3.0841,3.1021,3.1115,3.1137,3.1118,3.0962,3.0923,3.0884,3.0729,3.069,3.069,3.069,3.069,3.069,3.069,3.069,3.069,3.069,3.069,3.069,3.069,3.069,3.069,3.069,3.069,3.069,3.069,3.069,3.069,3.069,3.069,3.069,3.069,3.069,3.069,3.069,3.069,3.069,3.069,3.0683,3.0683,3.069,3.0683,3.0683,3.069,3.069,3.069,3.069,3.069,3.069,3.069,3.0683,3.0683,3.069,3.069,3.069,3.069,3.069,3.0661,3.0595,3.0462,3.0348,3.0292,3.0226,3.0204,3.0204,3.0204,3.0204,3.0204,3.0204,3.0204,3.0204,3.0204,3.0204,3.0204,3.0204,3.0204,3.0204,3.0204,3.0204,3.0204,3.0204,3.0204,3.0204,3.0204,3.0204,3.0204,3.0204,3.0204,3.0204,3.0204,3.0204,3.0204,3.0204,3.0204,3.0204,3.0204,3.0204,3.0204,3.0204,3.0204,3.0204,3.0204,3.0204,3.0204,3.0204,3.0204,3.0204,3.0204,3.0204,3.0204,3.028,3.1045,3.1293,3.135,3.211,3.2513,3.2703,3.2884,3.2943,3.2827,3.2069,3.1817,3.1681,3.0923,3.069,3.069,3.069,3.069,3.069,3.069,3.069,3.069,3.069,3.069,3.069,3.069,3.069,3.069,3.069,3.069,3.069,3.069,3.069,3.069,3.069,3.069,3.069,3.069,3.069,3.069,3.069,3.069,3.069,3.069,3.0645,3.0637,3.069,3.0645,3.0637,3.069,3.069,3.069,3.069,3.069,3.069,3.069,3.0637,3.0645,3.069,3.069,3.069,3.069,3.069,3.0661,3.0595,3.0462,3.0348,3.0292,3.0226,3.0204,3.0204,3.0204,3.0204,3.0204,3.0204,3.0204,3.0204,3.0204,3.0204,3.0204,3.0204,3.0204,3.0204,3.0204,3.0204,3.0204,3.0204,3.0204,3.0204,3.0204,3.0204,3.0204,3.0204,3.0204,3.0204,3.0204,3.0204,3.0204,3.0204,3.0204,3.0204,3.0204,3.0204,3.0204,3.0204,3.0204,3.0204,3.0204,3.0204,3.0204,3.0204,3.0204,3.0452,3.0873,3.0911,3.1197,3.1637,3.2019,3.2153,3.2172,3.2594,3.2891,3.3073,3.316,3.3242,3.3235,3.2846,3.273,3.2555,3.1681,3.1428,3.1312,3.0826,3.069,3.069,3.069,3.069,3.069,3.069,3.069,3.069,3.069,3.069,3.069,3.069,3.069,3.069,3.069,3.069,3.069,3.069,3.069,3.069,3.069,3.069,3.069,3.069,3.069,3.069,3.069,3.0668,3.0668,3.069,3.0668,3.0668,3.069,3.069,3.069,3.069,3.069,3.069,3.069,3.0668,3.0653,3.0645,3.0565,3.0528,3.0528,3.0528,3.0482,3.043,3.0367,3.0297,3.0234,3.0213,3.0204,3.0204,3.0204,3.0204,3.0261]}]]